<?xml version="1.0" encoding="UTF-8" standalone="no" ?>
<gpx xmlns="http://www.topografix.com/GPX/1/1" xmlns:xsi="http://www.w3.org/2001/XMLSchema-instance" xsi:schemaLocation="http://www.topografix.com/GPX/1/1 http://www.topografix.com/GPX/1/1/gpx.xsd" version="1.1" creator="VisuGPX - https://www.visugpx.com">
  <metadata>
    <name>Kilian's Classik - Carlit Font Romeu Marathon</name>
  </metadata>
  <trk>
    <name><![CDATA[Kilian's Classik - Carlit Font Romeu Marathon]]></name>
    <trkseg>
      <trkpt lat="42.5052" lon="2.04265">
        <ele>1761.77</ele>
        <time>2021-10-20T22:00:30Z</time>
      </trkpt>
      <trkpt lat="42.50526" lon="2.04304">
        <ele>1763.83</ele>
        <time>2021-10-20T22:00:30Z</time>
      </trkpt>
      <trkpt lat="42.5053" lon="2.04333">
        <ele>1765.23</ele>
        <time>2021-10-20T22:00:30Z</time>
      </trkpt>
      <trkpt lat="42.50528" lon="2.0436">
        <ele>1765.68</ele>
        <time>2021-10-20T22:00:30Z</time>
      </trkpt>
      <trkpt lat="42.50527" lon="2.04384">
        <ele>1766.58</ele>
        <time>2021-10-20T22:00:30Z</time>
      </trkpt>
      <trkpt lat="42.50522" lon="2.04407">
        <ele>1766.63</ele>
        <time>2021-10-20T22:00:30Z</time>
      </trkpt>
      <trkpt lat="42.5052" lon="2.04429">
        <ele>1767.42</ele>
        <time>2021-10-20T22:00:30Z</time>
      </trkpt>
      <trkpt lat="42.50517" lon="2.04451">
        <ele>1768.14</ele>
        <time>2021-10-20T22:00:30Z</time>
      </trkpt>
      <trkpt lat="42.5052" lon="2.04465">
        <ele>1769.49</ele>
        <time>2021-10-20T22:00:30Z</time>
      </trkpt>
      <trkpt lat="42.50527" lon="2.04484">
        <ele>1771.66</ele>
        <time>2021-10-20T22:00:30Z</time>
      </trkpt>
      <trkpt lat="42.50541" lon="2.04496">
        <ele>1773.9</ele>
        <time>2021-10-20T22:00:30Z</time>
      </trkpt>
      <trkpt lat="42.50555" lon="2.04503">
        <ele>1776.02</ele>
        <time>2021-10-20T22:00:30Z</time>
      </trkpt>
      <trkpt lat="42.50568" lon="2.04506">
        <ele>1777.96</ele>
        <time>2021-10-20T22:00:30Z</time>
      </trkpt>
      <trkpt lat="42.5058" lon="2.04497">
        <ele>1779.91</ele>
        <time>2021-10-20T22:00:30Z</time>
      </trkpt>
      <trkpt lat="42.50583" lon="2.04483">
        <ele>1780.62</ele>
        <time>2021-10-20T22:00:30Z</time>
      </trkpt>
      <trkpt lat="42.50591" lon="2.04462">
        <ele>1781.42</ele>
        <time>2021-10-20T22:00:30Z</time>
      </trkpt>
      <trkpt lat="42.50595" lon="2.04442">
        <ele>1781.68</ele>
        <time>2021-10-20T22:00:30Z</time>
      </trkpt>
      <trkpt lat="42.506" lon="2.04429">
        <ele>1782.32</ele>
        <time>2021-10-20T22:00:30Z</time>
      </trkpt>
      <trkpt lat="42.50606" lon="2.04406">
        <ele>1783.04</ele>
        <time>2021-10-20T22:00:30Z</time>
      </trkpt>
      <trkpt lat="42.50614" lon="2.04384">
        <ele>1784.05</ele>
        <time>2021-10-20T22:00:30Z</time>
      </trkpt>
      <trkpt lat="42.50619" lon="2.04368">
        <ele>1784.59</ele>
        <time>2021-10-20T22:00:30Z</time>
      </trkpt>
      <trkpt lat="42.50624" lon="2.04357">
        <ele>1785.25</ele>
        <time>2021-10-20T22:00:30Z</time>
      </trkpt>
      <trkpt lat="42.50628" lon="2.04339">
        <ele>1786.03</ele>
        <time>2021-10-20T22:00:30Z</time>
      </trkpt>
      <trkpt lat="42.50635" lon="2.04323">
        <ele>1787.75</ele>
        <time>2021-10-20T22:00:30Z</time>
      </trkpt>
      <trkpt lat="42.50644" lon="2.04327">
        <ele>1789.2</ele>
        <time>2021-10-20T22:00:30Z</time>
      </trkpt>
      <trkpt lat="42.50653" lon="2.04302">
        <ele>1792.05</ele>
        <time>2021-10-20T22:00:30Z</time>
      </trkpt>
      <trkpt lat="42.50654" lon="2.04287">
        <ele>1793.02</ele>
        <time>2021-10-20T22:00:30Z</time>
      </trkpt>
      <trkpt lat="42.50656" lon="2.04273">
        <ele>1793.99</ele>
        <time>2021-10-20T22:00:30Z</time>
      </trkpt>
      <trkpt lat="42.50657" lon="2.04255">
        <ele>1794.31</ele>
        <time>2021-10-20T22:00:30Z</time>
      </trkpt>
      <trkpt lat="42.50657" lon="2.04243">
        <ele>1794.37</ele>
        <time>2021-10-20T22:00:30Z</time>
      </trkpt>
      <trkpt lat="42.50657" lon="2.04225">
        <ele>1794.46</ele>
        <time>2021-10-20T22:00:30Z</time>
      </trkpt>
      <trkpt lat="42.50659" lon="2.0421">
        <ele>1795.03</ele>
        <time>2021-10-20T22:00:30Z</time>
      </trkpt>
      <trkpt lat="42.50672" lon="2.04211">
        <ele>1798.23</ele>
        <time>2021-10-20T22:00:30Z</time>
      </trkpt>
      <trkpt lat="42.50685" lon="2.04212">
        <ele>1800.82</ele>
        <time>2021-10-20T22:00:30Z</time>
      </trkpt>
      <trkpt lat="42.507" lon="2.04215">
        <ele>1802.99</ele>
        <time>2021-10-20T22:00:30Z</time>
      </trkpt>
      <trkpt lat="42.50709" lon="2.04215">
        <ele>1804.31</ele>
        <time>2021-10-20T22:00:30Z</time>
      </trkpt>
      <trkpt lat="42.50718" lon="2.04216">
        <ele>1805.63</ele>
        <time>2021-10-20T22:00:30Z</time>
      </trkpt>
      <trkpt lat="42.50731" lon="2.04219">
        <ele>1807.53</ele>
        <time>2021-10-20T22:00:30Z</time>
      </trkpt>
      <trkpt lat="42.50739" lon="2.04228">
        <ele>1808.7</ele>
        <time>2021-10-20T22:00:30Z</time>
      </trkpt>
      <trkpt lat="42.50748" lon="2.04236">
        <ele>1810.04</ele>
        <time>2021-10-20T22:00:30Z</time>
      </trkpt>
      <trkpt lat="42.50758" lon="2.04248">
        <ele>1811.46</ele>
        <time>2021-10-20T22:00:30Z</time>
      </trkpt>
      <trkpt lat="42.50764" lon="2.04262">
        <ele>1812.46</ele>
        <time>2021-10-20T22:00:30Z</time>
      </trkpt>
      <trkpt lat="42.50768" lon="2.04275">
        <ele>1813.23</ele>
        <time>2021-10-20T22:00:30Z</time>
      </trkpt>
      <trkpt lat="42.50773" lon="2.04287">
        <ele>1813.78</ele>
        <time>2021-10-20T22:00:30Z</time>
      </trkpt>
      <trkpt lat="42.5079" lon="2.04295">
        <ele>1816.48</ele>
        <time>2021-10-20T22:00:30Z</time>
      </trkpt>
      <trkpt lat="42.50804" lon="2.04295">
        <ele>1818.88</ele>
        <time>2021-10-20T22:00:30Z</time>
      </trkpt>
      <trkpt lat="42.50816" lon="2.04297">
        <ele>1820.94</ele>
        <time>2021-10-20T22:00:30Z</time>
      </trkpt>
      <trkpt lat="42.50827" lon="2.04296">
        <ele>1822.82</ele>
        <time>2021-10-20T22:00:30Z</time>
      </trkpt>
      <trkpt lat="42.50842" lon="2.04296">
        <ele>1825.38</ele>
        <time>2021-10-20T22:00:30Z</time>
      </trkpt>
      <trkpt lat="42.50858" lon="2.04296">
        <ele>1828.11</ele>
        <time>2021-10-20T22:00:30Z</time>
      </trkpt>
      <trkpt lat="42.50876" lon="2.04297">
        <ele>1831.17</ele>
        <time>2021-10-20T22:00:30Z</time>
      </trkpt>
      <trkpt lat="42.50895" lon="2.04296">
        <ele>1834.39</ele>
        <time>2021-10-20T22:00:30Z</time>
      </trkpt>
      <trkpt lat="42.50911" lon="2.04294">
        <ele>1837.11</ele>
        <time>2021-10-20T22:00:30Z</time>
      </trkpt>
      <trkpt lat="42.50924" lon="2.04296">
        <ele>1839.22</ele>
        <time>2021-10-20T22:00:30Z</time>
      </trkpt>
      <trkpt lat="42.50945" lon="2.04301">
        <ele>1842.53</ele>
        <time>2021-10-20T22:00:30Z</time>
      </trkpt>
      <trkpt lat="42.50965" lon="2.04305">
        <ele>1845.43</ele>
        <time>2021-10-20T22:00:30Z</time>
      </trkpt>
      <trkpt lat="42.50986" lon="2.04303">
        <ele>1848.57</ele>
        <time>2021-10-20T22:00:30Z</time>
      </trkpt>
      <trkpt lat="42.51" lon="2.04299">
        <ele>1850.79</ele>
        <time>2021-10-20T22:00:30Z</time>
      </trkpt>
      <trkpt lat="42.51011" lon="2.04292">
        <ele>1852.69</ele>
        <time>2021-10-20T22:00:30Z</time>
      </trkpt>
      <trkpt lat="42.51045" lon="2.04298">
        <ele>1855.84</ele>
        <time>2021-10-20T22:00:30Z</time>
      </trkpt>
      <trkpt lat="42.51059" lon="2.04291">
        <ele>1857.17</ele>
        <time>2021-10-20T22:00:30Z</time>
      </trkpt>
      <trkpt lat="42.51071" lon="2.04245">
        <ele>1857.75</ele>
        <time>2021-10-20T22:00:30Z</time>
      </trkpt>
      <trkpt lat="42.51083" lon="2.04224">
        <ele>1857.96</ele>
        <time>2021-10-20T22:00:30Z</time>
      </trkpt>
      <trkpt lat="42.51091" lon="2.04214">
        <ele>1858.16</ele>
        <time>2021-10-20T22:00:30Z</time>
      </trkpt>
      <trkpt lat="42.511" lon="2.04184">
        <ele>1855.8</ele>
        <time>2021-10-20T22:00:30Z</time>
      </trkpt>
      <trkpt lat="42.51103" lon="2.0417">
        <ele>1854.85</ele>
        <time>2021-10-20T22:00:30Z</time>
      </trkpt>
      <trkpt lat="42.5111" lon="2.04157">
        <ele>1853.47</ele>
        <time>2021-10-20T22:00:30Z</time>
      </trkpt>
      <trkpt lat="42.51117" lon="2.04139">
        <ele>1851.96</ele>
        <time>2021-10-20T22:00:30Z</time>
      </trkpt>
      <trkpt lat="42.51122" lon="2.04123">
        <ele>1851.17</ele>
        <time>2021-10-20T22:00:30Z</time>
      </trkpt>
      <trkpt lat="42.5113" lon="2.04105">
        <ele>1849.88</ele>
        <time>2021-10-20T22:00:30Z</time>
      </trkpt>
      <trkpt lat="42.51137" lon="2.04089">
        <ele>1848.65</ele>
        <time>2021-10-20T22:00:30Z</time>
      </trkpt>
      <trkpt lat="42.51145" lon="2.04073">
        <ele>1847.18</ele>
        <time>2021-10-20T22:00:30Z</time>
      </trkpt>
      <trkpt lat="42.51154" lon="2.0406">
        <ele>1845.65</ele>
        <time>2021-10-20T22:00:30Z</time>
      </trkpt>
      <trkpt lat="42.5116" lon="2.04047">
        <ele>1844.64</ele>
        <time>2021-10-20T22:00:30Z</time>
      </trkpt>
      <trkpt lat="42.5117" lon="2.04041">
        <ele>1844.26</ele>
        <time>2021-10-20T22:00:30Z</time>
      </trkpt>
      <trkpt lat="42.5118" lon="2.04042">
        <ele>1843.98</ele>
        <time>2021-10-20T22:00:30Z</time>
      </trkpt>
      <trkpt lat="42.51193" lon="2.04047">
        <ele>1843.68</ele>
        <time>2021-10-20T22:00:30Z</time>
      </trkpt>
      <trkpt lat="42.51206" lon="2.04042">
        <ele>1843.23</ele>
        <time>2021-10-20T22:00:30Z</time>
      </trkpt>
      <trkpt lat="42.51217" lon="2.04041">
        <ele>1842.89</ele>
        <time>2021-10-20T22:00:30Z</time>
      </trkpt>
      <trkpt lat="42.5123" lon="2.04039">
        <ele>1842.62</ele>
        <time>2021-10-20T22:00:30Z</time>
      </trkpt>
      <trkpt lat="42.51243" lon="2.04035">
        <ele>1843.24</ele>
        <time>2021-10-20T22:00:30Z</time>
      </trkpt>
      <trkpt lat="42.51255" lon="2.04032">
        <ele>1843.87</ele>
        <time>2021-10-20T22:00:30Z</time>
      </trkpt>
      <trkpt lat="42.51265" lon="2.04027">
        <ele>1844.45</ele>
        <time>2021-10-20T22:00:30Z</time>
      </trkpt>
      <trkpt lat="42.51271" lon="2.04005">
        <ele>1845.07</ele>
        <time>2021-10-20T22:00:30Z</time>
      </trkpt>
      <trkpt lat="42.51273" lon="2.03991">
        <ele>1844.98</ele>
        <time>2021-10-20T22:00:30Z</time>
      </trkpt>
      <trkpt lat="42.51274" lon="2.03977">
        <ele>1844.71</ele>
        <time>2021-10-20T22:00:30Z</time>
      </trkpt>
      <trkpt lat="42.51277" lon="2.03963">
        <ele>1844.56</ele>
        <time>2021-10-20T22:00:30Z</time>
      </trkpt>
      <trkpt lat="42.51283" lon="2.03948">
        <ele>1844.56</ele>
        <time>2021-10-20T22:00:30Z</time>
      </trkpt>
      <trkpt lat="42.51292" lon="2.03929">
        <ele>1844.71</ele>
        <time>2021-10-20T22:00:30Z</time>
      </trkpt>
      <trkpt lat="42.51301" lon="2.0392">
        <ele>1845.41</ele>
        <time>2021-10-20T22:00:30Z</time>
      </trkpt>
      <trkpt lat="42.51313" lon="2.03911">
        <ele>1846.63</ele>
        <time>2021-10-20T22:00:30Z</time>
      </trkpt>
      <trkpt lat="42.51325" lon="2.03899">
        <ele>1847.85</ele>
        <time>2021-10-20T22:00:30Z</time>
      </trkpt>
      <trkpt lat="42.51335" lon="2.0389">
        <ele>1848.87</ele>
        <time>2021-10-20T22:00:30Z</time>
      </trkpt>
      <trkpt lat="42.51346" lon="2.03879">
        <ele>1850</ele>
        <time>2021-10-20T22:00:30Z</time>
      </trkpt>
      <trkpt lat="42.51356" lon="2.03869">
        <ele>1851.02</ele>
        <time>2021-10-20T22:00:30Z</time>
      </trkpt>
      <trkpt lat="42.51368" lon="2.03852">
        <ele>1852.02</ele>
        <time>2021-10-20T22:00:30Z</time>
      </trkpt>
      <trkpt lat="42.51377" lon="2.03844">
        <ele>1852.73</ele>
        <time>2021-10-20T22:00:30Z</time>
      </trkpt>
      <trkpt lat="42.51388" lon="2.03841">
        <ele>1853.72</ele>
        <time>2021-10-20T22:00:30Z</time>
      </trkpt>
      <trkpt lat="42.514" lon="2.03838">
        <ele>1854.8</ele>
        <time>2021-10-20T22:00:30Z</time>
      </trkpt>
      <trkpt lat="42.51411" lon="2.03833">
        <ele>1855.8</ele>
        <time>2021-10-20T22:00:30Z</time>
      </trkpt>
      <trkpt lat="42.51422" lon="2.03831">
        <ele>1856.83</ele>
        <time>2021-10-20T22:00:30Z</time>
      </trkpt>
      <trkpt lat="42.51436" lon="2.03824">
        <ele>1858.23</ele>
        <time>2021-10-20T22:00:30Z</time>
      </trkpt>
      <trkpt lat="42.51445" lon="2.03815">
        <ele>1859.51</ele>
        <time>2021-10-20T22:00:30Z</time>
      </trkpt>
      <trkpt lat="42.51455" lon="2.03803">
        <ele>1860.98</ele>
        <time>2021-10-20T22:00:30Z</time>
      </trkpt>
      <trkpt lat="42.51466" lon="2.03788">
        <ele>1862.48</ele>
        <time>2021-10-20T22:00:30Z</time>
      </trkpt>
      <trkpt lat="42.51475" lon="2.03778">
        <ele>1863.71</ele>
        <time>2021-10-20T22:00:30Z</time>
      </trkpt>
      <trkpt lat="42.51484" lon="2.03766">
        <ele>1864.99</ele>
        <time>2021-10-20T22:00:30Z</time>
      </trkpt>
      <trkpt lat="42.51489" lon="2.03754">
        <ele>1865.71</ele>
        <time>2021-10-20T22:00:30Z</time>
      </trkpt>
      <trkpt lat="42.51503" lon="2.03757">
        <ele>1868</ele>
        <time>2021-10-20T22:00:30Z</time>
      </trkpt>
      <trkpt lat="42.51511" lon="2.03764">
        <ele>1870.04</ele>
        <time>2021-10-20T22:00:30Z</time>
      </trkpt>
      <trkpt lat="42.51521" lon="2.03718">
        <ele>1872.65</ele>
        <time>2021-10-20T22:00:30Z</time>
      </trkpt>
      <trkpt lat="42.51521" lon="2.037">
        <ele>1872.53</ele>
        <time>2021-10-20T22:00:30Z</time>
      </trkpt>
      <trkpt lat="42.51523" lon="2.03683">
        <ele>1872.97</ele>
        <time>2021-10-20T22:00:30Z</time>
      </trkpt>
      <trkpt lat="42.51527" lon="2.03671">
        <ele>1874.05</ele>
        <time>2021-10-20T22:00:30Z</time>
      </trkpt>
      <trkpt lat="42.51537" lon="2.03653">
        <ele>1876.91</ele>
        <time>2021-10-20T22:00:30Z</time>
      </trkpt>
      <trkpt lat="42.51542" lon="2.03637">
        <ele>1878.36</ele>
        <time>2021-10-20T22:00:30Z</time>
      </trkpt>
      <trkpt lat="42.5155" lon="2.03611">
        <ele>1880.69</ele>
        <time>2021-10-20T22:00:30Z</time>
      </trkpt>
      <trkpt lat="42.51554" lon="2.03597">
        <ele>1881.86</ele>
        <time>2021-10-20T22:00:30Z</time>
      </trkpt>
      <trkpt lat="42.5156" lon="2.03588">
        <ele>1883.51</ele>
        <time>2021-10-20T22:00:30Z</time>
      </trkpt>
      <trkpt lat="42.51569" lon="2.03593">
        <ele>1886.23</ele>
        <time>2021-10-20T22:00:30Z</time>
      </trkpt>
      <trkpt lat="42.51573" lon="2.03606">
        <ele>1887.37</ele>
        <time>2021-10-20T22:00:30Z</time>
      </trkpt>
      <trkpt lat="42.51582" lon="2.03619">
        <ele>1889.8</ele>
        <time>2021-10-20T22:00:30Z</time>
      </trkpt>
      <trkpt lat="42.51588" lon="2.03606">
        <ele>1891.47</ele>
        <time>2021-10-20T22:00:30Z</time>
      </trkpt>
      <trkpt lat="42.51594" lon="2.03596">
        <ele>1893.16</ele>
        <time>2021-10-20T22:00:30Z</time>
      </trkpt>
      <trkpt lat="42.51604" lon="2.03573">
        <ele>1895.07</ele>
        <time>2021-10-20T22:00:30Z</time>
      </trkpt>
      <trkpt lat="42.51613" lon="2.03552">
        <ele>1896.43</ele>
        <time>2021-10-20T22:00:30Z</time>
      </trkpt>
      <trkpt lat="42.51621" lon="2.03538">
        <ele>1897.82</ele>
        <time>2021-10-20T22:00:30Z</time>
      </trkpt>
      <trkpt lat="42.51632" lon="2.03521">
        <ele>1899.79</ele>
        <time>2021-10-20T22:00:30Z</time>
      </trkpt>
      <trkpt lat="42.51643" lon="2.03501">
        <ele>1901.71</ele>
        <time>2021-10-20T22:00:30Z</time>
      </trkpt>
      <trkpt lat="42.51652" lon="2.03488">
        <ele>1903.16</ele>
        <time>2021-10-20T22:00:30Z</time>
      </trkpt>
      <trkpt lat="42.51661" lon="2.03479">
        <ele>1904.76</ele>
        <time>2021-10-20T22:00:30Z</time>
      </trkpt>
      <trkpt lat="42.51675" lon="2.03464">
        <ele>1907.13</ele>
        <time>2021-10-20T22:00:30Z</time>
      </trkpt>
      <trkpt lat="42.51683" lon="2.03449">
        <ele>1908.17</ele>
        <time>2021-10-20T22:00:30Z</time>
      </trkpt>
      <trkpt lat="42.51682" lon="2.03436">
        <ele>1907.46</ele>
        <time>2021-10-20T22:00:30Z</time>
      </trkpt>
      <trkpt lat="42.51685" lon="2.03412">
        <ele>1907.18</ele>
        <time>2021-10-20T22:00:30Z</time>
      </trkpt>
      <trkpt lat="42.51691" lon="2.03395">
        <ele>1907.76</ele>
        <time>2021-10-20T22:00:30Z</time>
      </trkpt>
      <trkpt lat="42.51698" lon="2.0338">
        <ele>1908.82</ele>
        <time>2021-10-20T22:00:30Z</time>
      </trkpt>
      <trkpt lat="42.51703" lon="2.03368">
        <ele>1910.02</ele>
        <time>2021-10-20T22:00:30Z</time>
      </trkpt>
      <trkpt lat="42.5171" lon="2.03359">
        <ele>1911.57</ele>
        <time>2021-10-20T22:00:30Z</time>
      </trkpt>
      <trkpt lat="42.5172" lon="2.03349">
        <ele>1913.6</ele>
        <time>2021-10-20T22:00:30Z</time>
      </trkpt>
      <trkpt lat="42.51731" lon="2.03342">
        <ele>1915.71</ele>
        <time>2021-10-20T22:00:30Z</time>
      </trkpt>
      <trkpt lat="42.51742" lon="2.03336">
        <ele>1917.76</ele>
        <time>2021-10-20T22:00:30Z</time>
      </trkpt>
      <trkpt lat="42.51747" lon="2.03325">
        <ele>1918.66</ele>
        <time>2021-10-20T22:00:30Z</time>
      </trkpt>
      <trkpt lat="42.51759" lon="2.03308">
        <ele>1920.77</ele>
        <time>2021-10-20T22:00:30Z</time>
      </trkpt>
      <trkpt lat="42.51768" lon="2.03302">
        <ele>1922.34</ele>
        <time>2021-10-20T22:00:30Z</time>
      </trkpt>
      <trkpt lat="42.51784" lon="2.03301">
        <ele>1924.79</ele>
        <time>2021-10-20T22:00:30Z</time>
      </trkpt>
      <trkpt lat="42.51798" lon="2.03304">
        <ele>1926.57</ele>
        <time>2021-10-20T22:00:30Z</time>
      </trkpt>
      <trkpt lat="42.51812" lon="2.0331">
        <ele>1928.42</ele>
        <time>2021-10-20T22:00:30Z</time>
      </trkpt>
      <trkpt lat="42.51821" lon="2.03314">
        <ele>1929.65</ele>
        <time>2021-10-20T22:00:30Z</time>
      </trkpt>
      <trkpt lat="42.51834" lon="2.03315">
        <ele>1931.37</ele>
        <time>2021-10-20T22:00:30Z</time>
      </trkpt>
      <trkpt lat="42.51842" lon="2.03322">
        <ele>1932.78</ele>
        <time>2021-10-20T22:00:30Z</time>
      </trkpt>
      <trkpt lat="42.51858" lon="2.03329">
        <ele>1935.4</ele>
        <time>2021-10-20T22:00:30Z</time>
      </trkpt>
      <trkpt lat="42.51866" lon="2.03321">
        <ele>1935.95</ele>
        <time>2021-10-20T22:00:30Z</time>
      </trkpt>
      <trkpt lat="42.51874" lon="2.03312">
        <ele>1936.48</ele>
        <time>2021-10-20T22:00:30Z</time>
      </trkpt>
      <trkpt lat="42.51889" lon="2.03305">
        <ele>1938.09</ele>
        <time>2021-10-20T22:00:30Z</time>
      </trkpt>
      <trkpt lat="42.51902" lon="2.03302">
        <ele>1939.57</ele>
        <time>2021-10-20T22:00:30Z</time>
      </trkpt>
      <trkpt lat="42.51926" lon="2.03279">
        <ele>1940.44</ele>
        <time>2021-10-20T22:00:30Z</time>
      </trkpt>
      <trkpt lat="42.51943" lon="2.03267">
        <ele>1940.85</ele>
        <time>2021-10-20T22:00:30Z</time>
      </trkpt>
      <trkpt lat="42.51971" lon="2.03237">
        <ele>1942.49</ele>
        <time>2021-10-20T22:00:30Z</time>
      </trkpt>
      <trkpt lat="42.51988" lon="2.03195">
        <ele>1945.75</ele>
        <time>2021-10-20T22:00:30Z</time>
      </trkpt>
      <trkpt lat="42.52027" lon="2.03174">
        <ele>1951.16</ele>
        <time>2021-10-20T22:00:30Z</time>
      </trkpt>
      <trkpt lat="42.52031" lon="2.03147">
        <ele>1952.29</ele>
        <time>2021-10-20T22:00:30Z</time>
      </trkpt>
      <trkpt lat="42.52035" lon="2.03117">
        <ele>1953.55</ele>
        <time>2021-10-20T22:00:30Z</time>
      </trkpt>
      <trkpt lat="42.52043" lon="2.03089">
        <ele>1955.12</ele>
        <time>2021-10-20T22:00:30Z</time>
      </trkpt>
      <trkpt lat="42.52065" lon="2.03075">
        <ele>1958.36</ele>
        <time>2021-10-20T22:00:30Z</time>
      </trkpt>
      <trkpt lat="42.52093" lon="2.03052">
        <ele>1963.17</ele>
        <time>2021-10-20T22:00:30Z</time>
      </trkpt>
      <trkpt lat="42.52114" lon="2.03025">
        <ele>1967.61</ele>
        <time>2021-10-20T22:00:30Z</time>
      </trkpt>
      <trkpt lat="42.52133" lon="2.02983">
        <ele>1972.96</ele>
        <time>2021-10-20T22:00:30Z</time>
      </trkpt>
      <trkpt lat="42.52142" lon="2.02948">
        <ele>1977.31</ele>
        <time>2021-10-20T22:00:30Z</time>
      </trkpt>
      <trkpt lat="42.52153" lon="2.02911">
        <ele>1982.48</ele>
        <time>2021-10-20T22:00:30Z</time>
      </trkpt>
      <trkpt lat="42.52164" lon="2.02892">
        <ele>1986.28</ele>
        <time>2021-10-20T22:00:30Z</time>
      </trkpt>
      <trkpt lat="42.52181" lon="2.02863">
        <ele>1992.44</ele>
        <time>2021-10-20T22:00:30Z</time>
      </trkpt>
      <trkpt lat="42.52202" lon="2.02842">
        <ele>1999</ele>
        <time>2021-10-20T22:00:30Z</time>
      </trkpt>
      <trkpt lat="42.52234" lon="2.0281">
        <ele>2007.92</ele>
        <time>2021-10-20T22:00:30Z</time>
      </trkpt>
      <trkpt lat="42.52234" lon="2.02776">
        <ele>2009.58</ele>
        <time>2021-10-20T22:00:30Z</time>
      </trkpt>
      <trkpt lat="42.52228" lon="2.02735">
        <ele>2009.28</ele>
        <time>2021-10-20T22:00:30Z</time>
      </trkpt>
      <trkpt lat="42.52228" lon="2.02693">
        <ele>2010.02</ele>
        <time>2021-10-20T22:00:30Z</time>
      </trkpt>
      <trkpt lat="42.52223" lon="2.02661">
        <ele>2010.42</ele>
        <time>2021-10-20T22:00:30Z</time>
      </trkpt>
      <trkpt lat="42.52222" lon="2.02629">
        <ele>2011.66</ele>
        <time>2021-10-20T22:00:30Z</time>
      </trkpt>
      <trkpt lat="42.52221" lon="2.02602">
        <ele>2012.55</ele>
        <time>2021-10-20T22:00:30Z</time>
      </trkpt>
      <trkpt lat="42.52221" lon="2.02576">
        <ele>2013.58</ele>
        <time>2021-10-20T22:00:30Z</time>
      </trkpt>
      <trkpt lat="42.52229" lon="2.02549">
        <ele>2015.04</ele>
        <time>2021-10-20T22:00:30Z</time>
      </trkpt>
      <trkpt lat="42.52253" lon="2.02534">
        <ele>2016.84</ele>
        <time>2021-10-20T22:00:30Z</time>
      </trkpt>
      <trkpt lat="42.52277" lon="2.02528">
        <ele>2018.29</ele>
        <time>2021-10-20T22:00:30Z</time>
      </trkpt>
      <trkpt lat="42.52303" lon="2.02537">
        <ele>2020.35</ele>
        <time>2021-10-20T22:00:30Z</time>
      </trkpt>
      <trkpt lat="42.52332" lon="2.02545">
        <ele>2022.78</ele>
        <time>2021-10-20T22:00:30Z</time>
      </trkpt>
      <trkpt lat="42.52354" lon="2.0253">
        <ele>2024.21</ele>
        <time>2021-10-20T22:00:30Z</time>
      </trkpt>
      <trkpt lat="42.52381" lon="2.02523">
        <ele>2026.52</ele>
        <time>2021-10-20T22:00:30Z</time>
      </trkpt>
      <trkpt lat="42.52391" lon="2.02494">
        <ele>2026.6</ele>
        <time>2021-10-20T22:00:30Z</time>
      </trkpt>
      <trkpt lat="42.52413" lon="2.02454">
        <ele>2028.7</ele>
        <time>2021-10-20T22:00:30Z</time>
      </trkpt>
      <trkpt lat="42.52434" lon="2.0243">
        <ele>2030.68</ele>
        <time>2021-10-20T22:00:30Z</time>
      </trkpt>
      <trkpt lat="42.52455" lon="2.02403">
        <ele>2032.04</ele>
        <time>2021-10-20T22:00:30Z</time>
      </trkpt>
      <trkpt lat="42.52478" lon="2.02386">
        <ele>2033.45</ele>
        <time>2021-10-20T22:00:30Z</time>
      </trkpt>
      <trkpt lat="42.52506" lon="2.02384">
        <ele>2035.51</ele>
        <time>2021-10-20T22:00:30Z</time>
      </trkpt>
      <trkpt lat="42.5252" lon="2.02361">
        <ele>2034.76</ele>
        <time>2021-10-20T22:00:30Z</time>
      </trkpt>
      <trkpt lat="42.52526" lon="2.02332">
        <ele>2033.65</ele>
        <time>2021-10-20T22:00:30Z</time>
      </trkpt>
      <trkpt lat="42.52517" lon="2.02306">
        <ele>2032.12</ele>
        <time>2021-10-20T22:00:30Z</time>
      </trkpt>
      <trkpt lat="42.52514" lon="2.02284">
        <ele>2031.2</ele>
        <time>2021-10-20T22:00:30Z</time>
      </trkpt>
      <trkpt lat="42.52511" lon="2.02255">
        <ele>2031.49</ele>
        <time>2021-10-20T22:00:30Z</time>
      </trkpt>
      <trkpt lat="42.52508" lon="2.02227">
        <ele>2031.77</ele>
        <time>2021-10-20T22:00:30Z</time>
      </trkpt>
      <trkpt lat="42.52505" lon="2.02194">
        <ele>2033.46</ele>
        <time>2021-10-20T22:00:30Z</time>
      </trkpt>
      <trkpt lat="42.52527" lon="2.02173">
        <ele>2035.95</ele>
        <time>2021-10-20T22:00:30Z</time>
      </trkpt>
      <trkpt lat="42.52557" lon="2.02157">
        <ele>2037.11</ele>
        <time>2021-10-20T22:00:30Z</time>
      </trkpt>
      <trkpt lat="42.52588" lon="2.02133">
        <ele>2038.32</ele>
        <time>2021-10-20T22:00:30Z</time>
      </trkpt>
      <trkpt lat="42.52612" lon="2.02105">
        <ele>2040.18</ele>
        <time>2021-10-20T22:00:30Z</time>
      </trkpt>
      <trkpt lat="42.52633" lon="2.02077">
        <ele>2041.71</ele>
        <time>2021-10-20T22:00:30Z</time>
      </trkpt>
      <trkpt lat="42.52658" lon="2.02046">
        <ele>2042.83</ele>
        <time>2021-10-20T22:00:30Z</time>
      </trkpt>
      <trkpt lat="42.52673" lon="2.02013">
        <ele>2044</ele>
        <time>2021-10-20T22:00:30Z</time>
      </trkpt>
      <trkpt lat="42.5268" lon="2.0198">
        <ele>2046.74</ele>
        <time>2021-10-20T22:00:30Z</time>
      </trkpt>
      <trkpt lat="42.52706" lon="2.01959">
        <ele>2048.01</ele>
        <time>2021-10-20T22:00:30Z</time>
      </trkpt>
      <trkpt lat="42.52723" lon="2.01938">
        <ele>2048.56</ele>
        <time>2021-10-20T22:00:30Z</time>
      </trkpt>
      <trkpt lat="42.52752" lon="2.01921">
        <ele>2048.06</ele>
        <time>2021-10-20T22:00:30Z</time>
      </trkpt>
      <trkpt lat="42.52761" lon="2.01892">
        <ele>2048.18</ele>
        <time>2021-10-20T22:00:30Z</time>
      </trkpt>
      <trkpt lat="42.52783" lon="2.0187">
        <ele>2047.63</ele>
        <time>2021-10-20T22:00:30Z</time>
      </trkpt>
      <trkpt lat="42.52812" lon="2.01866">
        <ele>2046.84</ele>
        <time>2021-10-20T22:00:30Z</time>
      </trkpt>
      <trkpt lat="42.52837" lon="2.01879">
        <ele>2047.43</ele>
        <time>2021-10-20T22:00:30Z</time>
      </trkpt>
      <trkpt lat="42.52855" lon="2.01877">
        <ele>2047.69</ele>
        <time>2021-10-20T22:00:30Z</time>
      </trkpt>
      <trkpt lat="42.52899" lon="2.01877">
        <ele>2048.98</ele>
        <time>2021-10-20T22:00:30Z</time>
      </trkpt>
      <trkpt lat="42.52931" lon="2.01896">
        <ele>2050.13</ele>
        <time>2021-10-20T22:00:30Z</time>
      </trkpt>
      <trkpt lat="42.52952" lon="2.01917">
        <ele>2050.88</ele>
        <time>2021-10-20T22:00:30Z</time>
      </trkpt>
      <trkpt lat="42.52968" lon="2.01936">
        <ele>2051.77</ele>
        <time>2021-10-20T22:00:30Z</time>
      </trkpt>
      <trkpt lat="42.52987" lon="2.01933">
        <ele>2053.2</ele>
        <time>2021-10-20T22:00:30Z</time>
      </trkpt>
      <trkpt lat="42.53015" lon="2.01906">
        <ele>2055.69</ele>
        <time>2021-10-20T22:00:30Z</time>
      </trkpt>
      <trkpt lat="42.53048" lon="2.01869">
        <ele>2060.75</ele>
        <time>2021-10-20T22:00:30Z</time>
      </trkpt>
      <trkpt lat="42.53072" lon="2.0184">
        <ele>2065.55</ele>
        <time>2021-10-20T22:00:30Z</time>
      </trkpt>
      <trkpt lat="42.53098" lon="2.01814">
        <ele>2070.34</ele>
        <time>2021-10-20T22:00:30Z</time>
      </trkpt>
      <trkpt lat="42.53118" lon="2.01797">
        <ele>2073.7</ele>
        <time>2021-10-20T22:00:30Z</time>
      </trkpt>
      <trkpt lat="42.53142" lon="2.01758">
        <ele>2079.3</ele>
        <time>2021-10-20T22:00:30Z</time>
      </trkpt>
      <trkpt lat="42.53172" lon="2.01712">
        <ele>2088.74</ele>
        <time>2021-10-20T22:00:30Z</time>
      </trkpt>
      <trkpt lat="42.53188" lon="2.01681">
        <ele>2095.91</ele>
        <time>2021-10-20T22:00:30Z</time>
      </trkpt>
      <trkpt lat="42.53209" lon="2.01626">
        <ele>2109.73</ele>
        <time>2021-10-20T22:00:30Z</time>
      </trkpt>
      <trkpt lat="42.53227" lon="2.0157">
        <ele>2123.5</ele>
        <time>2021-10-20T22:00:30Z</time>
      </trkpt>
      <trkpt lat="42.53253" lon="2.01524">
        <ele>2136.93</ele>
        <time>2021-10-20T22:00:30Z</time>
      </trkpt>
      <trkpt lat="42.53284" lon="2.01507">
        <ele>2146.33</ele>
        <time>2021-10-20T22:00:30Z</time>
      </trkpt>
      <trkpt lat="42.5332" lon="2.01487">
        <ele>2159.77</ele>
        <time>2021-10-20T22:00:30Z</time>
      </trkpt>
      <trkpt lat="42.53354" lon="2.01485">
        <ele>2171.02</ele>
        <time>2021-10-20T22:00:30Z</time>
      </trkpt>
      <trkpt lat="42.53389" lon="2.01487">
        <ele>2182.59</ele>
        <time>2021-10-20T22:00:30Z</time>
      </trkpt>
      <trkpt lat="42.53421" lon="2.01485">
        <ele>2193.44</ele>
        <time>2021-10-20T22:00:30Z</time>
      </trkpt>
      <trkpt lat="42.53446" lon="2.01505">
        <ele>2197.72</ele>
        <time>2021-10-20T22:00:30Z</time>
      </trkpt>
      <trkpt lat="42.53475" lon="2.01529">
        <ele>2203.06</ele>
        <time>2021-10-20T22:00:30Z</time>
      </trkpt>
      <trkpt lat="42.53499" lon="2.0157">
        <ele>2207.74</ele>
        <time>2021-10-20T22:00:30Z</time>
      </trkpt>
      <trkpt lat="42.53519" lon="2.01586">
        <ele>2208.6</ele>
        <time>2021-10-20T22:00:30Z</time>
      </trkpt>
      <trkpt lat="42.53548" lon="2.0161">
        <ele>2208.86</ele>
        <time>2021-10-20T22:00:30Z</time>
      </trkpt>
      <trkpt lat="42.53571" lon="2.01625">
        <ele>2207.92</ele>
        <time>2021-10-20T22:00:30Z</time>
      </trkpt>
      <trkpt lat="42.53592" lon="2.01625">
        <ele>2206.43</ele>
        <time>2021-10-20T22:00:30Z</time>
      </trkpt>
      <trkpt lat="42.53621" lon="2.01626">
        <ele>2204.35</ele>
        <time>2021-10-20T22:00:30Z</time>
      </trkpt>
      <trkpt lat="42.53635" lon="2.01621">
        <ele>2203.3</ele>
        <time>2021-10-20T22:00:30Z</time>
      </trkpt>
      <trkpt lat="42.53658" lon="2.01624">
        <ele>2200.7</ele>
        <time>2021-10-20T22:00:30Z</time>
      </trkpt>
      <trkpt lat="42.5367" lon="2.01616">
        <ele>2199.42</ele>
        <time>2021-10-20T22:00:30Z</time>
      </trkpt>
      <trkpt lat="42.53685" lon="2.01593">
        <ele>2197.64</ele>
        <time>2021-10-20T22:00:30Z</time>
      </trkpt>
      <trkpt lat="42.53694" lon="2.01579">
        <ele>2196.2</ele>
        <time>2021-10-20T22:00:30Z</time>
      </trkpt>
      <trkpt lat="42.53703" lon="2.01562">
        <ele>2194.4</ele>
        <time>2021-10-20T22:00:30Z</time>
      </trkpt>
      <trkpt lat="42.53713" lon="2.01549">
        <ele>2192.13</ele>
        <time>2021-10-20T22:00:30Z</time>
      </trkpt>
      <trkpt lat="42.53722" lon="2.01535">
        <ele>2190.02</ele>
        <time>2021-10-20T22:00:30Z</time>
      </trkpt>
      <trkpt lat="42.53735" lon="2.01521">
        <ele>2186.94</ele>
        <time>2021-10-20T22:00:30Z</time>
      </trkpt>
      <trkpt lat="42.53745" lon="2.0151">
        <ele>2184.44</ele>
        <time>2021-10-20T22:00:30Z</time>
      </trkpt>
      <trkpt lat="42.53755" lon="2.01499">
        <ele>2181.9</ele>
        <time>2021-10-20T22:00:30Z</time>
      </trkpt>
      <trkpt lat="42.53763" lon="2.01486">
        <ele>2179.59</ele>
        <time>2021-10-20T22:00:30Z</time>
      </trkpt>
      <trkpt lat="42.53777" lon="2.01471">
        <ele>2175.74</ele>
        <time>2021-10-20T22:00:30Z</time>
      </trkpt>
      <trkpt lat="42.53796" lon="2.01452">
        <ele>2170.54</ele>
        <time>2021-10-20T22:00:30Z</time>
      </trkpt>
      <trkpt lat="42.53809" lon="2.01436">
        <ele>2166.68</ele>
        <time>2021-10-20T22:00:30Z</time>
      </trkpt>
      <trkpt lat="42.53821" lon="2.01423">
        <ele>2163.07</ele>
        <time>2021-10-20T22:00:30Z</time>
      </trkpt>
      <trkpt lat="42.53837" lon="2.01412">
        <ele>2158.51</ele>
        <time>2021-10-20T22:00:30Z</time>
      </trkpt>
      <trkpt lat="42.53855" lon="2.01392">
        <ele>2151.12</ele>
        <time>2021-10-20T22:00:30Z</time>
      </trkpt>
      <trkpt lat="42.53866" lon="2.0138">
        <ele>2147.03</ele>
        <time>2021-10-20T22:00:30Z</time>
      </trkpt>
      <trkpt lat="42.53881" lon="2.01363">
        <ele>2141.81</ele>
        <time>2021-10-20T22:00:30Z</time>
      </trkpt>
      <trkpt lat="42.53894" lon="2.01349">
        <ele>2137.64</ele>
        <time>2021-10-20T22:00:30Z</time>
      </trkpt>
      <trkpt lat="42.53909" lon="2.01331">
        <ele>2133.02</ele>
        <time>2021-10-20T22:00:30Z</time>
      </trkpt>
      <trkpt lat="42.53926" lon="2.01313">
        <ele>2126.43</ele>
        <time>2021-10-20T22:00:30Z</time>
      </trkpt>
      <trkpt lat="42.53939" lon="2.01296">
        <ele>2120.9</ele>
        <time>2021-10-20T22:00:30Z</time>
      </trkpt>
      <trkpt lat="42.53951" lon="2.01284">
        <ele>2116</ele>
        <time>2021-10-20T22:00:30Z</time>
      </trkpt>
      <trkpt lat="42.53967" lon="2.01269">
        <ele>2109.54</ele>
        <time>2021-10-20T22:00:30Z</time>
      </trkpt>
      <trkpt lat="42.53978" lon="2.01254">
        <ele>2104.95</ele>
        <time>2021-10-20T22:00:30Z</time>
      </trkpt>
      <trkpt lat="42.5399" lon="2.01242">
        <ele>2100.58</ele>
        <time>2021-10-20T22:00:30Z</time>
      </trkpt>
      <trkpt lat="42.54002" lon="2.01233">
        <ele>2096.39</ele>
        <time>2021-10-20T22:00:30Z</time>
      </trkpt>
      <trkpt lat="42.54017" lon="2.0122">
        <ele>2091.04</ele>
        <time>2021-10-20T22:00:30Z</time>
      </trkpt>
      <trkpt lat="42.5403" lon="2.01214">
        <ele>2086.72</ele>
        <time>2021-10-20T22:00:30Z</time>
      </trkpt>
      <trkpt lat="42.54048" lon="2.01211">
        <ele>2081.38</ele>
        <time>2021-10-20T22:00:30Z</time>
      </trkpt>
      <trkpt lat="42.54065" lon="2.01209">
        <ele>2077.4</ele>
        <time>2021-10-20T22:00:30Z</time>
      </trkpt>
      <trkpt lat="42.54077" lon="2.01201">
        <ele>2074.31</ele>
        <time>2021-10-20T22:00:30Z</time>
      </trkpt>
      <trkpt lat="42.54084" lon="2.01192">
        <ele>2072.37</ele>
        <time>2021-10-20T22:00:30Z</time>
      </trkpt>
      <trkpt lat="42.54091" lon="2.01179">
        <ele>2070.2</ele>
        <time>2021-10-20T22:00:30Z</time>
      </trkpt>
      <trkpt lat="42.54097" lon="2.01161">
        <ele>2067.89</ele>
        <time>2021-10-20T22:00:30Z</time>
      </trkpt>
      <trkpt lat="42.54105" lon="2.0114">
        <ele>2064.91</ele>
        <time>2021-10-20T22:00:30Z</time>
      </trkpt>
      <trkpt lat="42.5411" lon="2.01124">
        <ele>2062.84</ele>
        <time>2021-10-20T22:00:30Z</time>
      </trkpt>
      <trkpt lat="42.54114" lon="2.0111">
        <ele>2061.29</ele>
        <time>2021-10-20T22:00:30Z</time>
      </trkpt>
      <trkpt lat="42.54122" lon="2.01089">
        <ele>2058.8</ele>
        <time>2021-10-20T22:00:30Z</time>
      </trkpt>
      <trkpt lat="42.54126" lon="2.01074">
        <ele>2057.32</ele>
        <time>2021-10-20T22:00:30Z</time>
      </trkpt>
      <trkpt lat="42.54132" lon="2.01058">
        <ele>2055.36</ele>
        <time>2021-10-20T22:00:30Z</time>
      </trkpt>
      <trkpt lat="42.54137" lon="2.01045">
        <ele>2053.67</ele>
        <time>2021-10-20T22:00:30Z</time>
      </trkpt>
      <trkpt lat="42.54145" lon="2.01029">
        <ele>2051.11</ele>
        <time>2021-10-20T22:00:30Z</time>
      </trkpt>
      <trkpt lat="42.54159" lon="2.0101">
        <ele>2047.15</ele>
        <time>2021-10-20T22:00:30Z</time>
      </trkpt>
      <trkpt lat="42.54169" lon="2.00997">
        <ele>2044.35</ele>
        <time>2021-10-20T22:00:30Z</time>
      </trkpt>
      <trkpt lat="42.54182" lon="2.00981">
        <ele>2040.78</ele>
        <time>2021-10-20T22:00:30Z</time>
      </trkpt>
      <trkpt lat="42.54197" lon="2.00966">
        <ele>2036.31</ele>
        <time>2021-10-20T22:00:30Z</time>
      </trkpt>
      <trkpt lat="42.54209" lon="2.00951">
        <ele>2032.25</ele>
        <time>2021-10-20T22:00:30Z</time>
      </trkpt>
      <trkpt lat="42.5422" lon="2.00939">
        <ele>2028.6</ele>
        <time>2021-10-20T22:00:30Z</time>
      </trkpt>
      <trkpt lat="42.5423" lon="2.00928">
        <ele>2025.18</ele>
        <time>2021-10-20T22:00:30Z</time>
      </trkpt>
      <trkpt lat="42.54239" lon="2.00916">
        <ele>2021.76</ele>
        <time>2021-10-20T22:00:30Z</time>
      </trkpt>
      <trkpt lat="42.54246" lon="2.00906">
        <ele>2018.65</ele>
        <time>2021-10-20T22:00:30Z</time>
      </trkpt>
      <trkpt lat="42.54253" lon="2.00893">
        <ele>2015.09</ele>
        <time>2021-10-20T22:00:30Z</time>
      </trkpt>
      <trkpt lat="42.54258" lon="2.00882">
        <ele>2012.49</ele>
        <time>2021-10-20T22:00:30Z</time>
      </trkpt>
      <trkpt lat="42.54269" lon="2.00866">
        <ele>2008.34</ele>
        <time>2021-10-20T22:00:30Z</time>
      </trkpt>
      <trkpt lat="42.54279" lon="2.00857">
        <ele>2005.63</ele>
        <time>2021-10-20T22:00:30Z</time>
      </trkpt>
      <trkpt lat="42.54289" lon="2.00848">
        <ele>2003.03</ele>
        <time>2021-10-20T22:00:30Z</time>
      </trkpt>
      <trkpt lat="42.543" lon="2.00835">
        <ele>1998.88</ele>
        <time>2021-10-20T22:00:30Z</time>
      </trkpt>
      <trkpt lat="42.54313" lon="2.00815">
        <ele>1992.41</ele>
        <time>2021-10-20T22:00:30Z</time>
      </trkpt>
      <trkpt lat="42.54326" lon="2.00797">
        <ele>1986.67</ele>
        <time>2021-10-20T22:00:30Z</time>
      </trkpt>
      <trkpt lat="42.54335" lon="2.00781">
        <ele>1982.12</ele>
        <time>2021-10-20T22:00:30Z</time>
      </trkpt>
      <trkpt lat="42.5434" lon="2.0077">
        <ele>1979.11</ele>
        <time>2021-10-20T22:00:30Z</time>
      </trkpt>
      <trkpt lat="42.5435" lon="2.00758">
        <ele>1975.52</ele>
        <time>2021-10-20T22:00:30Z</time>
      </trkpt>
      <trkpt lat="42.5436" lon="2.00749">
        <ele>1972.88</ele>
        <time>2021-10-20T22:00:30Z</time>
      </trkpt>
      <trkpt lat="42.54373" lon="2.00739">
        <ele>1970.11</ele>
        <time>2021-10-20T22:00:30Z</time>
      </trkpt>
      <trkpt lat="42.54383" lon="2.0073">
        <ele>1967.89</ele>
        <time>2021-10-20T22:00:30Z</time>
      </trkpt>
      <trkpt lat="42.54393" lon="2.00722">
        <ele>1966</ele>
        <time>2021-10-20T22:00:30Z</time>
      </trkpt>
      <trkpt lat="42.54404" lon="2.00704">
        <ele>1962.58</ele>
        <time>2021-10-20T22:00:30Z</time>
      </trkpt>
      <trkpt lat="42.54411" lon="2.00693">
        <ele>1960.79</ele>
        <time>2021-10-20T22:00:30Z</time>
      </trkpt>
      <trkpt lat="42.54419" lon="2.00682">
        <ele>1959.2</ele>
        <time>2021-10-20T22:00:30Z</time>
      </trkpt>
      <trkpt lat="42.54426" lon="2.00672">
        <ele>1957.9</ele>
        <time>2021-10-20T22:00:30Z</time>
      </trkpt>
      <trkpt lat="42.54437" lon="2.00662">
        <ele>1956.94</ele>
        <time>2021-10-20T22:00:30Z</time>
      </trkpt>
      <trkpt lat="42.54446" lon="2.00654">
        <ele>1956.35</ele>
        <time>2021-10-20T22:00:30Z</time>
      </trkpt>
      <trkpt lat="42.5446" lon="2.00639">
        <ele>1955.65</ele>
        <time>2021-10-20T22:00:30Z</time>
      </trkpt>
      <trkpt lat="42.54474" lon="2.00634">
        <ele>1956.72</ele>
        <time>2021-10-20T22:00:30Z</time>
      </trkpt>
      <trkpt lat="42.54494" lon="2.00623">
        <ele>1957.87</ele>
        <time>2021-10-20T22:00:30Z</time>
      </trkpt>
      <trkpt lat="42.54505" lon="2.00613">
        <ele>1958.13</ele>
        <time>2021-10-20T22:00:30Z</time>
      </trkpt>
      <trkpt lat="42.54514" lon="2.00602">
        <ele>1958.08</ele>
        <time>2021-10-20T22:00:30Z</time>
      </trkpt>
      <trkpt lat="42.5452" lon="2.00592">
        <ele>1957.8</ele>
        <time>2021-10-20T22:00:30Z</time>
      </trkpt>
      <trkpt lat="42.54527" lon="2.00575">
        <ele>1957.17</ele>
        <time>2021-10-20T22:00:30Z</time>
      </trkpt>
      <trkpt lat="42.54535" lon="2.00556">
        <ele>1956.54</ele>
        <time>2021-10-20T22:00:30Z</time>
      </trkpt>
      <trkpt lat="42.54544" lon="2.0054">
        <ele>1956.15</ele>
        <time>2021-10-20T22:00:30Z</time>
      </trkpt>
      <trkpt lat="42.54552" lon="2.00526">
        <ele>1955.62</ele>
        <time>2021-10-20T22:00:30Z</time>
      </trkpt>
      <trkpt lat="42.54562" lon="2.00511">
        <ele>1955.06</ele>
        <time>2021-10-20T22:00:30Z</time>
      </trkpt>
      <trkpt lat="42.54572" lon="2.00495">
        <ele>1954.6</ele>
        <time>2021-10-20T22:00:30Z</time>
      </trkpt>
      <trkpt lat="42.54581" lon="2.00468">
        <ele>1953.84</ele>
        <time>2021-10-20T22:00:30Z</time>
      </trkpt>
      <trkpt lat="42.54589" lon="2.00455">
        <ele>1953.65</ele>
        <time>2021-10-20T22:00:30Z</time>
      </trkpt>
      <trkpt lat="42.54599" lon="2.00441">
        <ele>1953.57</ele>
        <time>2021-10-20T22:00:30Z</time>
      </trkpt>
      <trkpt lat="42.54609" lon="2.00425">
        <ele>1953.98</ele>
        <time>2021-10-20T22:00:30Z</time>
      </trkpt>
      <trkpt lat="42.54612" lon="2.00414">
        <ele>1954.46</ele>
        <time>2021-10-20T22:00:30Z</time>
      </trkpt>
      <trkpt lat="42.54603" lon="2.00356">
        <ele>1955.17</ele>
        <time>2021-10-20T22:00:30Z</time>
      </trkpt>
      <trkpt lat="42.54606" lon="2.00325">
        <ele>1957.78</ele>
        <time>2021-10-20T22:00:30Z</time>
      </trkpt>
      <trkpt lat="42.5461" lon="2.00275">
        <ele>1961.88</ele>
        <time>2021-10-20T22:00:30Z</time>
      </trkpt>
      <trkpt lat="42.54616" lon="2.00232">
        <ele>1965.49</ele>
        <time>2021-10-20T22:00:30Z</time>
      </trkpt>
      <trkpt lat="42.54629" lon="2.0017">
        <ele>1972.08</ele>
        <time>2021-10-20T22:00:30Z</time>
      </trkpt>
      <trkpt lat="42.54639" lon="2.00083">
        <ele>1984.25</ele>
        <time>2021-10-20T22:00:30Z</time>
      </trkpt>
      <trkpt lat="42.54658" lon="1.99992">
        <ele>1991.3</ele>
        <time>2021-10-20T22:00:30Z</time>
      </trkpt>
      <trkpt lat="42.54664" lon="1.99933">
        <ele>1986.57</ele>
        <time>2021-10-20T22:00:30Z</time>
      </trkpt>
      <trkpt lat="42.54671" lon="1.99845">
        <ele>1995.4</ele>
        <time>2021-10-20T22:00:30Z</time>
      </trkpt>
      <trkpt lat="42.54671" lon="1.99787">
        <ele>2016.02</ele>
        <time>2021-10-20T22:00:30Z</time>
      </trkpt>
      <trkpt lat="42.54663" lon="1.99724">
        <ele>2040.16</ele>
        <time>2021-10-20T22:00:30Z</time>
      </trkpt>
      <trkpt lat="42.54652" lon="1.9965">
        <ele>2056.29</ele>
        <time>2021-10-20T22:00:30Z</time>
      </trkpt>
      <trkpt lat="42.54643" lon="1.99555">
        <ele>2080.31</ele>
        <time>2021-10-20T22:00:30Z</time>
      </trkpt>
      <trkpt lat="42.54594" lon="1.99459">
        <ele>2110.27</ele>
        <time>2021-10-20T22:00:30Z</time>
      </trkpt>
      <trkpt lat="42.54523" lon="1.99335">
        <ele>2136.91</ele>
        <time>2021-10-20T22:00:30Z</time>
      </trkpt>
      <trkpt lat="42.54518" lon="1.99194">
        <ele>2144.44</ele>
        <time>2021-10-20T22:00:30Z</time>
      </trkpt>
      <trkpt lat="42.54559" lon="1.98998">
        <ele>2147.97</ele>
        <time>2021-10-20T22:00:30Z</time>
      </trkpt>
      <trkpt lat="42.54626" lon="1.98869">
        <ele>2152.63</ele>
        <time>2021-10-20T22:00:30Z</time>
      </trkpt>
      <trkpt lat="42.5467" lon="1.98764">
        <ele>2156.75</ele>
        <time>2021-10-20T22:00:30Z</time>
      </trkpt>
      <trkpt lat="42.54698" lon="1.98584">
        <ele>2157.18</ele>
        <time>2021-10-20T22:00:30Z</time>
      </trkpt>
      <trkpt lat="42.54781" lon="1.98444">
        <ele>2148.94</ele>
        <time>2021-10-20T22:00:30Z</time>
      </trkpt>
      <trkpt lat="42.54853" lon="1.98339">
        <ele>2145.35</ele>
        <time>2021-10-20T22:00:30Z</time>
      </trkpt>
      <trkpt lat="42.54961" lon="1.98223">
        <ele>2138.13</ele>
        <time>2021-10-20T22:00:30Z</time>
      </trkpt>
      <trkpt lat="42.55045" lon="1.98136">
        <ele>2133.44</ele>
        <time>2021-10-20T22:00:30Z</time>
      </trkpt>
      <trkpt lat="42.55149" lon="1.98083">
        <ele>2138.22</ele>
        <time>2021-10-20T22:00:30Z</time>
      </trkpt>
      <trkpt lat="42.55246" lon="1.98036">
        <ele>2141.91</ele>
        <time>2021-10-20T22:00:30Z</time>
      </trkpt>
      <trkpt lat="42.55341" lon="1.9799">
        <ele>2145.69</ele>
        <time>2021-10-20T22:00:30Z</time>
      </trkpt>
      <trkpt lat="42.55395" lon="1.97902">
        <ele>2146.36</ele>
        <time>2021-10-20T22:00:30Z</time>
      </trkpt>
      <trkpt lat="42.55465" lon="1.97859">
        <ele>2148.02</ele>
        <time>2021-10-20T22:00:30Z</time>
      </trkpt>
      <trkpt lat="42.55591" lon="1.97855">
        <ele>2154.09</ele>
        <time>2021-10-20T22:00:30Z</time>
      </trkpt>
      <trkpt lat="42.55675" lon="1.97816">
        <ele>2157.65</ele>
        <time>2021-10-20T22:00:30Z</time>
      </trkpt>
      <trkpt lat="42.55685" lon="1.97778">
        <ele>2156.02</ele>
        <time>2021-10-20T22:00:30Z</time>
      </trkpt>
      <trkpt lat="42.5571" lon="1.97743">
        <ele>2156.07</ele>
        <time>2021-10-20T22:00:30Z</time>
      </trkpt>
      <trkpt lat="42.55805" lon="1.97564">
        <ele>2159.15</ele>
        <time>2021-10-20T22:00:30Z</time>
      </trkpt>
      <trkpt lat="42.55864" lon="1.97573">
        <ele>2157.93</ele>
        <time>2021-10-20T22:00:30Z</time>
      </trkpt>
      <trkpt lat="42.5596" lon="1.9764">
        <ele>2159.17</ele>
        <time>2021-10-20T22:00:30Z</time>
      </trkpt>
      <trkpt lat="42.56022" lon="1.97541">
        <ele>2155.35</ele>
        <time>2021-10-20T22:00:30Z</time>
      </trkpt>
      <trkpt lat="42.56091" lon="1.97365">
        <ele>2159.76</ele>
        <time>2021-10-20T22:00:30Z</time>
      </trkpt>
      <trkpt lat="42.56126" lon="1.97221">
        <ele>2160.59</ele>
        <time>2021-10-20T22:00:30Z</time>
      </trkpt>
      <trkpt lat="42.5618" lon="1.97174">
        <ele>2168.33</ele>
        <time>2021-10-20T22:00:30Z</time>
      </trkpt>
      <trkpt lat="42.56234" lon="1.97153">
        <ele>2173.37</ele>
        <time>2021-10-20T22:00:30Z</time>
      </trkpt>
      <trkpt lat="42.5638" lon="1.97198">
        <ele>2181.97</ele>
        <time>2021-10-20T22:00:30Z</time>
      </trkpt>
      <trkpt lat="42.56497" lon="1.97194">
        <ele>2193.34</ele>
        <time>2021-10-20T22:00:30Z</time>
      </trkpt>
      <trkpt lat="42.5668" lon="1.97166">
        <ele>2205.48</ele>
        <time>2021-10-20T22:00:30Z</time>
      </trkpt>
      <trkpt lat="42.56792" lon="1.97155">
        <ele>2211.92</ele>
        <time>2021-10-20T22:00:30Z</time>
      </trkpt>
      <trkpt lat="42.5687" lon="1.97162">
        <ele>2217.83</ele>
        <time>2021-10-20T22:00:30Z</time>
      </trkpt>
      <trkpt lat="42.56927" lon="1.97135">
        <ele>2229.98</ele>
        <time>2021-10-20T22:00:30Z</time>
      </trkpt>
      <trkpt lat="42.56941" lon="1.97124">
        <ele>2232.33</ele>
        <time>2021-10-20T22:00:30Z</time>
      </trkpt>
      <trkpt lat="42.56958" lon="1.97113">
        <ele>2234.74</ele>
        <time>2021-10-20T22:00:30Z</time>
      </trkpt>
      <trkpt lat="42.56971" lon="1.97106">
        <ele>2236.34</ele>
        <time>2021-10-20T22:00:30Z</time>
      </trkpt>
      <trkpt lat="42.56986" lon="1.97102">
        <ele>2237.96</ele>
        <time>2021-10-20T22:00:30Z</time>
      </trkpt>
      <trkpt lat="42.57001" lon="1.97092">
        <ele>2239.17</ele>
        <time>2021-10-20T22:00:30Z</time>
      </trkpt>
      <trkpt lat="42.57018" lon="1.97088">
        <ele>2239.7</ele>
        <time>2021-10-20T22:00:30Z</time>
      </trkpt>
      <trkpt lat="42.57034" lon="1.97084">
        <ele>2240.09</ele>
        <time>2021-10-20T22:00:30Z</time>
      </trkpt>
      <trkpt lat="42.57056" lon="1.97077">
        <ele>2240.37</ele>
        <time>2021-10-20T22:00:30Z</time>
      </trkpt>
      <trkpt lat="42.57071" lon="1.97071">
        <ele>2240.32</ele>
        <time>2021-10-20T22:00:30Z</time>
      </trkpt>
      <trkpt lat="42.57089" lon="1.97066">
        <ele>2240.3</ele>
        <time>2021-10-20T22:00:30Z</time>
      </trkpt>
      <trkpt lat="42.57105" lon="1.97059">
        <ele>2240.2</ele>
        <time>2021-10-20T22:00:30Z</time>
      </trkpt>
      <trkpt lat="42.57119" lon="1.97054">
        <ele>2240.1</ele>
        <time>2021-10-20T22:00:30Z</time>
      </trkpt>
      <trkpt lat="42.57139" lon="1.97043">
        <ele>2239.32</ele>
        <time>2021-10-20T22:00:30Z</time>
      </trkpt>
      <trkpt lat="42.57152" lon="1.97028">
        <ele>2237.75</ele>
        <time>2021-10-20T22:00:30Z</time>
      </trkpt>
      <trkpt lat="42.57164" lon="1.97017">
        <ele>2236.41</ele>
        <time>2021-10-20T22:00:30Z</time>
      </trkpt>
      <trkpt lat="42.57174" lon="1.97007">
        <ele>2235.2</ele>
        <time>2021-10-20T22:00:30Z</time>
      </trkpt>
      <trkpt lat="42.57181" lon="1.96996">
        <ele>2234.09</ele>
        <time>2021-10-20T22:00:30Z</time>
      </trkpt>
      <trkpt lat="42.5719" lon="1.96986">
        <ele>2233.01</ele>
        <time>2021-10-20T22:00:30Z</time>
      </trkpt>
      <trkpt lat="42.57204" lon="1.96971">
        <ele>2231.34</ele>
        <time>2021-10-20T22:00:30Z</time>
      </trkpt>
      <trkpt lat="42.57224" lon="1.96953">
        <ele>2229.71</ele>
        <time>2021-10-20T22:00:30Z</time>
      </trkpt>
      <trkpt lat="42.57237" lon="1.96941">
        <ele>2228.63</ele>
        <time>2021-10-20T22:00:30Z</time>
      </trkpt>
      <trkpt lat="42.57248" lon="1.96929">
        <ele>2227.62</ele>
        <time>2021-10-20T22:00:30Z</time>
      </trkpt>
      <trkpt lat="42.5726" lon="1.96917">
        <ele>2226.82</ele>
        <time>2021-10-20T22:00:30Z</time>
      </trkpt>
      <trkpt lat="42.57275" lon="1.96899">
        <ele>2226.7</ele>
        <time>2021-10-20T22:00:30Z</time>
      </trkpt>
      <trkpt lat="42.57289" lon="1.96893">
        <ele>2228.59</ele>
        <time>2021-10-20T22:00:30Z</time>
      </trkpt>
      <trkpt lat="42.57309" lon="1.96849">
        <ele>2231.26</ele>
        <time>2021-10-20T22:00:30Z</time>
      </trkpt>
      <trkpt lat="42.57311" lon="1.96832">
        <ele>2231.83</ele>
        <time>2021-10-20T22:00:30Z</time>
      </trkpt>
      <trkpt lat="42.57313" lon="1.96816">
        <ele>2232.46</ele>
        <time>2021-10-20T22:00:30Z</time>
      </trkpt>
      <trkpt lat="42.57314" lon="1.96801">
        <ele>2232.92</ele>
        <time>2021-10-20T22:00:30Z</time>
      </trkpt>
      <trkpt lat="42.57312" lon="1.96774">
        <ele>2233.95</ele>
        <time>2021-10-20T22:00:30Z</time>
      </trkpt>
      <trkpt lat="42.57314" lon="1.96761">
        <ele>2235.43</ele>
        <time>2021-10-20T22:00:30Z</time>
      </trkpt>
      <trkpt lat="42.57316" lon="1.96748">
        <ele>2236.97</ele>
        <time>2021-10-20T22:00:30Z</time>
      </trkpt>
      <trkpt lat="42.57313" lon="1.96693">
        <ele>2242.34</ele>
        <time>2021-10-20T22:00:30Z</time>
      </trkpt>
      <trkpt lat="42.57301" lon="1.96668">
        <ele>2241.82</ele>
        <time>2021-10-20T22:00:30Z</time>
      </trkpt>
      <trkpt lat="42.57293" lon="1.96656">
        <ele>2240.66</ele>
        <time>2021-10-20T22:00:30Z</time>
      </trkpt>
      <trkpt lat="42.57285" lon="1.96644">
        <ele>2240.55</ele>
        <time>2021-10-20T22:00:30Z</time>
      </trkpt>
      <trkpt lat="42.57268" lon="1.96626">
        <ele>2239.28</ele>
        <time>2021-10-20T22:00:30Z</time>
      </trkpt>
      <trkpt lat="42.57268" lon="1.96612">
        <ele>2242.51</ele>
        <time>2021-10-20T22:00:30Z</time>
      </trkpt>
      <trkpt lat="42.57268" lon="1.96593">
        <ele>2246.91</ele>
        <time>2021-10-20T22:00:30Z</time>
      </trkpt>
      <trkpt lat="42.5727" lon="1.9658">
        <ele>2249.88</ele>
        <time>2021-10-20T22:00:30Z</time>
      </trkpt>
      <trkpt lat="42.57273" lon="1.96551">
        <ele>2255.52</ele>
        <time>2021-10-20T22:00:30Z</time>
      </trkpt>
      <trkpt lat="42.57268" lon="1.96539">
        <ele>2255.93</ele>
        <time>2021-10-20T22:00:30Z</time>
      </trkpt>
      <trkpt lat="42.57254" lon="1.96493">
        <ele>2258.86</ele>
        <time>2021-10-20T22:00:30Z</time>
      </trkpt>
      <trkpt lat="42.57256" lon="1.96478">
        <ele>2261.35</ele>
        <time>2021-10-20T22:00:30Z</time>
      </trkpt>
      <trkpt lat="42.5725" lon="1.96443">
        <ele>2264.28</ele>
        <time>2021-10-20T22:00:30Z</time>
      </trkpt>
      <trkpt lat="42.57247" lon="1.96421">
        <ele>2266.05</ele>
        <time>2021-10-20T22:00:30Z</time>
      </trkpt>
      <trkpt lat="42.57242" lon="1.96402">
        <ele>2266.96</ele>
        <time>2021-10-20T22:00:30Z</time>
      </trkpt>
      <trkpt lat="42.57238" lon="1.96389">
        <ele>2267.42</ele>
        <time>2021-10-20T22:00:30Z</time>
      </trkpt>
      <trkpt lat="42.57234" lon="1.96353">
        <ele>2270.97</ele>
        <time>2021-10-20T22:00:30Z</time>
      </trkpt>
      <trkpt lat="42.5723" lon="1.96309">
        <ele>2275.8</ele>
        <time>2021-10-20T22:00:30Z</time>
      </trkpt>
      <trkpt lat="42.57223" lon="1.96287">
        <ele>2277.72</ele>
        <time>2021-10-20T22:00:30Z</time>
      </trkpt>
      <trkpt lat="42.57222" lon="1.96275">
        <ele>2279.51</ele>
        <time>2021-10-20T22:00:30Z</time>
      </trkpt>
      <trkpt lat="42.57222" lon="1.96253">
        <ele>2283.26</ele>
        <time>2021-10-20T22:00:30Z</time>
      </trkpt>
      <trkpt lat="42.57213" lon="1.96224">
        <ele>2285.73</ele>
        <time>2021-10-20T22:00:30Z</time>
      </trkpt>
      <trkpt lat="42.57203" lon="1.96195">
        <ele>2287.94</ele>
        <time>2021-10-20T22:00:30Z</time>
      </trkpt>
      <trkpt lat="42.572" lon="1.96182">
        <ele>2289.31</ele>
        <time>2021-10-20T22:00:30Z</time>
      </trkpt>
      <trkpt lat="42.57197" lon="1.96171">
        <ele>2290.28</ele>
        <time>2021-10-20T22:00:30Z</time>
      </trkpt>
      <trkpt lat="42.57193" lon="1.96158">
        <ele>2291.08</ele>
        <time>2021-10-20T22:00:30Z</time>
      </trkpt>
      <trkpt lat="42.57196" lon="1.9614">
        <ele>2294.15</ele>
        <time>2021-10-20T22:00:30Z</time>
      </trkpt>
      <trkpt lat="42.5719" lon="1.96119">
        <ele>2295.6</ele>
        <time>2021-10-20T22:00:30Z</time>
      </trkpt>
      <trkpt lat="42.5719" lon="1.96104">
        <ele>2297.59</ele>
        <time>2021-10-20T22:00:30Z</time>
      </trkpt>
      <trkpt lat="42.57188" lon="1.96077">
        <ele>2300.63</ele>
        <time>2021-10-20T22:00:30Z</time>
      </trkpt>
      <trkpt lat="42.57184" lon="1.96062">
        <ele>2301.83</ele>
        <time>2021-10-20T22:00:30Z</time>
      </trkpt>
      <trkpt lat="42.57188" lon="1.96035">
        <ele>2306.09</ele>
        <time>2021-10-20T22:00:30Z</time>
      </trkpt>
      <trkpt lat="42.57192" lon="1.96021">
        <ele>2308.89</ele>
        <time>2021-10-20T22:00:30Z</time>
      </trkpt>
      <trkpt lat="42.57197" lon="1.96007">
        <ele>2311.72</ele>
        <time>2021-10-20T22:00:30Z</time>
      </trkpt>
      <trkpt lat="42.57207" lon="1.95994">
        <ele>2315.2</ele>
        <time>2021-10-20T22:00:30Z</time>
      </trkpt>
      <trkpt lat="42.57218" lon="1.95982">
        <ele>2318.91</ele>
        <time>2021-10-20T22:00:30Z</time>
      </trkpt>
      <trkpt lat="42.57226" lon="1.95964">
        <ele>2322.98</ele>
        <time>2021-10-20T22:00:30Z</time>
      </trkpt>
      <trkpt lat="42.57234" lon="1.95953">
        <ele>2326.3</ele>
        <time>2021-10-20T22:00:30Z</time>
      </trkpt>
      <trkpt lat="42.57243" lon="1.95939">
        <ele>2330.32</ele>
        <time>2021-10-20T22:00:30Z</time>
      </trkpt>
      <trkpt lat="42.57245" lon="1.95925">
        <ele>2333.11</ele>
        <time>2021-10-20T22:00:30Z</time>
      </trkpt>
      <trkpt lat="42.57249" lon="1.95912">
        <ele>2336.08</ele>
        <time>2021-10-20T22:00:30Z</time>
      </trkpt>
      <trkpt lat="42.5725" lon="1.95897">
        <ele>2338.85</ele>
        <time>2021-10-20T22:00:30Z</time>
      </trkpt>
      <trkpt lat="42.5725" lon="1.95883">
        <ele>2341.16</ele>
        <time>2021-10-20T22:00:30Z</time>
      </trkpt>
      <trkpt lat="42.5725" lon="1.95869">
        <ele>2343.46</ele>
        <time>2021-10-20T22:00:30Z</time>
      </trkpt>
      <trkpt lat="42.57252" lon="1.95854">
        <ele>2346.26</ele>
        <time>2021-10-20T22:00:30Z</time>
      </trkpt>
      <trkpt lat="42.57252" lon="1.95842">
        <ele>2348.23</ele>
        <time>2021-10-20T22:00:30Z</time>
      </trkpt>
      <trkpt lat="42.5725" lon="1.95828">
        <ele>2349.82</ele>
        <time>2021-10-20T22:00:30Z</time>
      </trkpt>
      <trkpt lat="42.57251" lon="1.95814">
        <ele>2350.65</ele>
        <time>2021-10-20T22:00:30Z</time>
      </trkpt>
      <trkpt lat="42.5725" lon="1.95801">
        <ele>2351.12</ele>
        <time>2021-10-20T22:00:30Z</time>
      </trkpt>
      <trkpt lat="42.57229" lon="1.95775">
        <ele>2349.26</ele>
        <time>2021-10-20T22:00:30Z</time>
      </trkpt>
      <trkpt lat="42.57205" lon="1.95747">
        <ele>2346.15</ele>
        <time>2021-10-20T22:00:30Z</time>
      </trkpt>
      <trkpt lat="42.57185" lon="1.95727">
        <ele>2345.62</ele>
        <time>2021-10-20T22:00:30Z</time>
      </trkpt>
      <trkpt lat="42.57145" lon="1.95634">
        <ele>2347.83</ele>
        <time>2021-10-20T22:00:30Z</time>
      </trkpt>
      <trkpt lat="42.57143" lon="1.9561">
        <ele>2348.33</ele>
        <time>2021-10-20T22:00:30Z</time>
      </trkpt>
      <trkpt lat="42.57144" lon="1.95581">
        <ele>2348.53</ele>
        <time>2021-10-20T22:00:30Z</time>
      </trkpt>
      <trkpt lat="42.57148" lon="1.95567">
        <ele>2348.22</ele>
        <time>2021-10-20T22:00:30Z</time>
      </trkpt>
      <trkpt lat="42.57151" lon="1.95548">
        <ele>2348.02</ele>
        <time>2021-10-20T22:00:30Z</time>
      </trkpt>
      <trkpt lat="42.57153" lon="1.95535">
        <ele>2347.86</ele>
        <time>2021-10-20T22:00:30Z</time>
      </trkpt>
      <trkpt lat="42.57157" lon="1.95521">
        <ele>2347.42</ele>
        <time>2021-10-20T22:00:30Z</time>
      </trkpt>
      <trkpt lat="42.57157" lon="1.95496">
        <ele>2347.54</ele>
        <time>2021-10-20T22:00:30Z</time>
      </trkpt>
      <trkpt lat="42.57157" lon="1.95482">
        <ele>2347.72</ele>
        <time>2021-10-20T22:00:30Z</time>
      </trkpt>
      <trkpt lat="42.57157" lon="1.95459">
        <ele>2348.27</ele>
        <time>2021-10-20T22:00:30Z</time>
      </trkpt>
      <trkpt lat="42.57158" lon="1.95445">
        <ele>2348.46</ele>
        <time>2021-10-20T22:00:30Z</time>
      </trkpt>
      <trkpt lat="42.5716" lon="1.95424">
        <ele>2348.64</ele>
        <time>2021-10-20T22:00:30Z</time>
      </trkpt>
      <trkpt lat="42.57164" lon="1.95409">
        <ele>2348.21</ele>
        <time>2021-10-20T22:00:30Z</time>
      </trkpt>
      <trkpt lat="42.57164" lon="1.95394">
        <ele>2348.36</ele>
        <time>2021-10-20T22:00:30Z</time>
      </trkpt>
      <trkpt lat="42.57163" lon="1.95377">
        <ele>2348.71</ele>
        <time>2021-10-20T22:00:30Z</time>
      </trkpt>
      <trkpt lat="42.57163" lon="1.95364">
        <ele>2348.84</ele>
        <time>2021-10-20T22:00:30Z</time>
      </trkpt>
      <trkpt lat="42.57163" lon="1.9535">
        <ele>2348.99</ele>
        <time>2021-10-20T22:00:30Z</time>
      </trkpt>
      <trkpt lat="42.57162" lon="1.95334">
        <ele>2349.43</ele>
        <time>2021-10-20T22:00:30Z</time>
      </trkpt>
      <trkpt lat="42.57162" lon="1.95319">
        <ele>2349.65</ele>
        <time>2021-10-20T22:00:30Z</time>
      </trkpt>
      <trkpt lat="42.57161" lon="1.95296">
        <ele>2350.19</ele>
        <time>2021-10-20T22:00:30Z</time>
      </trkpt>
      <trkpt lat="42.57161" lon="1.95277">
        <ele>2350.43</ele>
        <time>2021-10-20T22:00:30Z</time>
      </trkpt>
      <trkpt lat="42.57159" lon="1.95256">
        <ele>2351.04</ele>
        <time>2021-10-20T22:00:30Z</time>
      </trkpt>
      <trkpt lat="42.57156" lon="1.95236">
        <ele>2351.86</ele>
        <time>2021-10-20T22:00:30Z</time>
      </trkpt>
      <trkpt lat="42.57155" lon="1.95217">
        <ele>2352.26</ele>
        <time>2021-10-20T22:00:30Z</time>
      </trkpt>
      <trkpt lat="42.57151" lon="1.95204">
        <ele>2353.38</ele>
        <time>2021-10-20T22:00:30Z</time>
      </trkpt>
      <trkpt lat="42.57148" lon="1.95191">
        <ele>2354.29</ele>
        <time>2021-10-20T22:00:30Z</time>
      </trkpt>
      <trkpt lat="42.57149" lon="1.95166">
        <ele>2354.61</ele>
        <time>2021-10-20T22:00:30Z</time>
      </trkpt>
      <trkpt lat="42.57152" lon="1.95154">
        <ele>2354.28</ele>
        <time>2021-10-20T22:00:30Z</time>
      </trkpt>
      <trkpt lat="42.57158" lon="1.95129">
        <ele>2354.81</ele>
        <time>2021-10-20T22:00:30Z</time>
      </trkpt>
      <trkpt lat="42.57159" lon="1.95098">
        <ele>2357.5</ele>
        <time>2021-10-20T22:00:30Z</time>
      </trkpt>
      <trkpt lat="42.57161" lon="1.95075">
        <ele>2359.29</ele>
        <time>2021-10-20T22:00:30Z</time>
      </trkpt>
      <trkpt lat="42.57168" lon="1.95053">
        <ele>2360.31</ele>
        <time>2021-10-20T22:00:30Z</time>
      </trkpt>
      <trkpt lat="42.57172" lon="1.95032">
        <ele>2361.83</ele>
        <time>2021-10-20T22:00:30Z</time>
      </trkpt>
      <trkpt lat="42.57175" lon="1.95018">
        <ele>2362.83</ele>
        <time>2021-10-20T22:00:30Z</time>
      </trkpt>
      <trkpt lat="42.57179" lon="1.95007">
        <ele>2363.4</ele>
        <time>2021-10-20T22:00:30Z</time>
      </trkpt>
      <trkpt lat="42.57181" lon="1.94985">
        <ele>2365.23</ele>
        <time>2021-10-20T22:00:30Z</time>
      </trkpt>
      <trkpt lat="42.57175" lon="1.94973">
        <ele>2367.35</ele>
        <time>2021-10-20T22:00:30Z</time>
      </trkpt>
      <trkpt lat="42.57163" lon="1.94901">
        <ele>2376.13</ele>
        <time>2021-10-20T22:00:30Z</time>
      </trkpt>
      <trkpt lat="42.57126" lon="1.94837">
        <ele>2389.86</ele>
        <time>2021-10-20T22:00:30Z</time>
      </trkpt>
      <trkpt lat="42.57128" lon="1.94809">
        <ele>2392.55</ele>
        <time>2021-10-20T22:00:30Z</time>
      </trkpt>
      <trkpt lat="42.57118" lon="1.94752">
        <ele>2402.2</ele>
        <time>2021-10-20T22:00:30Z</time>
      </trkpt>
      <trkpt lat="42.57109" lon="1.94735">
        <ele>2406.42</ele>
        <time>2021-10-20T22:00:30Z</time>
      </trkpt>
      <trkpt lat="42.57096" lon="1.94707">
        <ele>2412.69</ele>
        <time>2021-10-20T22:00:30Z</time>
      </trkpt>
      <trkpt lat="42.57094" lon="1.94666">
        <ele>2417.82</ele>
        <time>2021-10-20T22:00:30Z</time>
      </trkpt>
      <trkpt lat="42.57097" lon="1.94649">
        <ele>2419.19</ele>
        <time>2021-10-20T22:00:30Z</time>
      </trkpt>
      <trkpt lat="42.57094" lon="1.94621">
        <ele>2423.06</ele>
        <time>2021-10-20T22:00:30Z</time>
      </trkpt>
      <trkpt lat="42.57093" lon="1.94585">
        <ele>2427.03</ele>
        <time>2021-10-20T22:00:30Z</time>
      </trkpt>
      <trkpt lat="42.57072" lon="1.94547">
        <ele>2434.61</ele>
        <time>2021-10-20T22:00:30Z</time>
      </trkpt>
      <trkpt lat="42.57054" lon="1.94526">
        <ele>2441.52</ele>
        <time>2021-10-20T22:00:30Z</time>
      </trkpt>
      <trkpt lat="42.57023" lon="1.9445">
        <ele>2458.01</ele>
        <time>2021-10-20T22:00:30Z</time>
      </trkpt>
      <trkpt lat="42.57007" lon="1.94337">
        <ele>2480.36</ele>
        <time>2021-10-20T22:00:30Z</time>
      </trkpt>
      <trkpt lat="42.57039" lon="1.94207">
        <ele>2516.12</ele>
        <time>2021-10-20T22:00:30Z</time>
      </trkpt>
      <trkpt lat="42.57039" lon="1.94192">
        <ele>2523.9</ele>
        <time>2021-10-20T22:00:30Z</time>
      </trkpt>
      <trkpt lat="42.57042" lon="1.9418">
        <ele>2529.86</ele>
        <time>2021-10-20T22:00:30Z</time>
      </trkpt>
      <trkpt lat="42.57053" lon="1.94144">
        <ele>2549.53</ele>
        <time>2021-10-20T22:00:30Z</time>
      </trkpt>
      <trkpt lat="42.57051" lon="1.94113">
        <ele>2567.27</ele>
        <time>2021-10-20T22:00:30Z</time>
      </trkpt>
      <trkpt lat="42.57051" lon="1.94065">
        <ele>2586.42</ele>
        <time>2021-10-20T22:00:30Z</time>
      </trkpt>
      <trkpt lat="42.57033" lon="1.93999">
        <ele>2601.79</ele>
        <time>2021-10-20T22:00:30Z</time>
      </trkpt>
      <trkpt lat="42.5701" lon="1.93945">
        <ele>2606.42</ele>
        <time>2021-10-20T22:00:30Z</time>
      </trkpt>
      <trkpt lat="42.56989" lon="1.93818">
        <ele>2632.92</ele>
        <time>2021-10-20T22:00:30Z</time>
      </trkpt>
      <trkpt lat="42.56984" lon="1.93795">
        <ele>2642.32</ele>
        <time>2021-10-20T22:00:30Z</time>
      </trkpt>
      <trkpt lat="42.56968" lon="1.93719">
        <ele>2671.49</ele>
        <time>2021-10-20T22:00:30Z</time>
      </trkpt>
      <trkpt lat="42.56964" lon="1.937">
        <ele>2678.41</ele>
        <time>2021-10-20T22:00:30Z</time>
      </trkpt>
      <trkpt lat="42.56965" lon="1.93677">
        <ele>2686.37</ele>
        <time>2021-10-20T22:00:30Z</time>
      </trkpt>
      <trkpt lat="42.56961" lon="1.93597">
        <ele>2715.61</ele>
        <time>2021-10-20T22:00:30Z</time>
      </trkpt>
      <trkpt lat="42.56964" lon="1.93585">
        <ele>2719.82</ele>
        <time>2021-10-20T22:00:30Z</time>
      </trkpt>
      <trkpt lat="42.56969" lon="1.93563">
        <ele>2727.92</ele>
        <time>2021-10-20T22:00:30Z</time>
      </trkpt>
      <trkpt lat="42.56971" lon="1.93539">
        <ele>2741.61</ele>
        <time>2021-10-20T22:00:30Z</time>
      </trkpt>
      <trkpt lat="42.56964" lon="1.93488">
        <ele>2770.32</ele>
        <time>2021-10-20T22:00:30Z</time>
      </trkpt>
      <trkpt lat="42.56974" lon="1.93421">
        <ele>2808.07</ele>
        <time>2021-10-20T22:00:30Z</time>
      </trkpt>
      <trkpt lat="42.57001" lon="1.93366">
        <ele>2839.17</ele>
        <time>2021-10-20T22:00:30Z</time>
      </trkpt>
      <trkpt lat="42.57012" lon="1.93337">
        <ele>2848.12</ele>
        <time>2021-10-20T22:00:30Z</time>
      </trkpt>
      <trkpt lat="42.57032" lon="1.93258">
        <ele>2866.28</ele>
        <time>2021-10-20T22:00:30Z</time>
      </trkpt>
      <trkpt lat="42.57034" lon="1.93245">
        <ele>2868.84</ele>
        <time>2021-10-20T22:00:30Z</time>
      </trkpt>
      <trkpt lat="42.57044" lon="1.93234">
        <ele>2866.68</ele>
        <time>2021-10-20T22:00:30Z</time>
      </trkpt>
      <trkpt lat="42.57042" lon="1.93217">
        <ele>2871.21</ele>
        <time>2021-10-20T22:00:30Z</time>
      </trkpt>
      <trkpt lat="42.57034" lon="1.93194">
        <ele>2875.86</ele>
        <time>2021-10-20T22:00:30Z</time>
      </trkpt>
      <trkpt lat="42.5702" lon="1.93193">
        <ele>2882.02</ele>
        <time>2021-10-20T22:00:30Z</time>
      </trkpt>
      <trkpt lat="42.57011" lon="1.93198">
        <ele>2886.18</ele>
        <time>2021-10-20T22:00:30Z</time>
      </trkpt>
      <trkpt lat="42.57001" lon="1.9321">
        <ele>2891.58</ele>
        <time>2021-10-20T22:00:30Z</time>
      </trkpt>
      <trkpt lat="42.56994" lon="1.93198">
        <ele>2892.06</ele>
        <time>2021-10-20T22:00:30Z</time>
      </trkpt>
      <trkpt lat="42.57002" lon="1.93193">
        <ele>2889.9</ele>
        <time>2021-10-20T22:00:30Z</time>
      </trkpt>
      <trkpt lat="42.5702" lon="1.93182">
        <ele>2881.83</ele>
        <time>2021-10-20T22:00:30Z</time>
      </trkpt>
      <trkpt lat="42.57039" lon="1.93182">
        <ele>2874.13</ele>
        <time>2021-10-20T22:00:30Z</time>
      </trkpt>
      <trkpt lat="42.57053" lon="1.9319">
        <ele>2867.81</ele>
        <time>2021-10-20T22:00:30Z</time>
      </trkpt>
      <trkpt lat="42.57072" lon="1.932">
        <ele>2856.33</ele>
        <time>2021-10-20T22:00:30Z</time>
      </trkpt>
      <trkpt lat="42.57078" lon="1.93233">
        <ele>2846.15</ele>
        <time>2021-10-20T22:00:30Z</time>
      </trkpt>
      <trkpt lat="42.57076" lon="1.9326">
        <ele>2840.58</ele>
        <time>2021-10-20T22:00:30Z</time>
      </trkpt>
      <trkpt lat="42.57068" lon="1.9328">
        <ele>2841.4</ele>
        <time>2021-10-20T22:00:30Z</time>
      </trkpt>
      <trkpt lat="42.57059" lon="1.93296">
        <ele>2842.34</ele>
        <time>2021-10-20T22:00:30Z</time>
      </trkpt>
      <trkpt lat="42.57062" lon="1.93324">
        <ele>2832.95</ele>
        <time>2021-10-20T22:00:30Z</time>
      </trkpt>
      <trkpt lat="42.57057" lon="1.93354">
        <ele>2826.1</ele>
        <time>2021-10-20T22:00:30Z</time>
      </trkpt>
      <trkpt lat="42.57051" lon="1.93374">
        <ele>2821.35</ele>
        <time>2021-10-20T22:00:30Z</time>
      </trkpt>
      <trkpt lat="42.57047" lon="1.93392">
        <ele>2816.01</ele>
        <time>2021-10-20T22:00:30Z</time>
      </trkpt>
      <trkpt lat="42.57044" lon="1.93424">
        <ele>2804.91</ele>
        <time>2021-10-20T22:00:30Z</time>
      </trkpt>
      <trkpt lat="42.57043" lon="1.93454">
        <ele>2791.65</ele>
        <time>2021-10-20T22:00:30Z</time>
      </trkpt>
      <trkpt lat="42.5704" lon="1.9348">
        <ele>2779.63</ele>
        <time>2021-10-20T22:00:30Z</time>
      </trkpt>
      <trkpt lat="42.57028" lon="1.93499">
        <ele>2769.45</ele>
        <time>2021-10-20T22:00:30Z</time>
      </trkpt>
      <trkpt lat="42.57013" lon="1.93518">
        <ele>2756.35</ele>
        <time>2021-10-20T22:00:30Z</time>
      </trkpt>
      <trkpt lat="42.57001" lon="1.93532">
        <ele>2745.69</ele>
        <time>2021-10-20T22:00:30Z</time>
      </trkpt>
      <trkpt lat="42.56989" lon="1.93547">
        <ele>2735.59</ele>
        <time>2021-10-20T22:00:30Z</time>
      </trkpt>
      <trkpt lat="42.56983" lon="1.93565">
        <ele>2724.95</ele>
        <time>2021-10-20T22:00:30Z</time>
      </trkpt>
      <trkpt lat="42.56975" lon="1.93587">
        <ele>2717.82</ele>
        <time>2021-10-20T22:00:30Z</time>
      </trkpt>
      <trkpt lat="42.56965" lon="1.93603">
        <ele>2712.94</ele>
        <time>2021-10-20T22:00:30Z</time>
      </trkpt>
      <trkpt lat="42.56964" lon="1.93622">
        <ele>2705.88</ele>
        <time>2021-10-20T22:00:30Z</time>
      </trkpt>
      <trkpt lat="42.56966" lon="1.93645">
        <ele>2697.4</ele>
        <time>2021-10-20T22:00:30Z</time>
      </trkpt>
      <trkpt lat="42.56968" lon="1.9368">
        <ele>2685.22</ele>
        <time>2021-10-20T22:00:30Z</time>
      </trkpt>
      <trkpt lat="42.56971" lon="1.93712">
        <ele>2673.96</ele>
        <time>2021-10-20T22:00:30Z</time>
      </trkpt>
      <trkpt lat="42.56976" lon="1.93753">
        <ele>2658.59</ele>
        <time>2021-10-20T22:00:30Z</time>
      </trkpt>
      <trkpt lat="42.56981" lon="1.93782">
        <ele>2647.45</ele>
        <time>2021-10-20T22:00:30Z</time>
      </trkpt>
      <trkpt lat="42.5699" lon="1.93824">
        <ele>2630.46</ele>
        <time>2021-10-20T22:00:30Z</time>
      </trkpt>
      <trkpt lat="42.56998" lon="1.93873">
        <ele>2616.17</ele>
        <time>2021-10-20T22:00:30Z</time>
      </trkpt>
      <trkpt lat="42.57001" lon="1.93915">
        <ele>2607.94</ele>
        <time>2021-10-20T22:00:30Z</time>
      </trkpt>
      <trkpt lat="42.57012" lon="1.93954">
        <ele>2605.54</ele>
        <time>2021-10-20T22:00:30Z</time>
      </trkpt>
      <trkpt lat="42.57021" lon="1.93991">
        <ele>2600.97</ele>
        <time>2021-10-20T22:00:30Z</time>
      </trkpt>
      <trkpt lat="42.57039" lon="1.94004">
        <ele>2601.87</ele>
        <time>2021-10-20T22:00:30Z</time>
      </trkpt>
      <trkpt lat="42.57049" lon="1.9403">
        <ele>2597.57</ele>
        <time>2021-10-20T22:00:30Z</time>
      </trkpt>
      <trkpt lat="42.57052" lon="1.9406">
        <ele>2588.53</ele>
        <time>2021-10-20T22:00:30Z</time>
      </trkpt>
      <trkpt lat="42.57052" lon="1.9408">
        <ele>2580.52</ele>
        <time>2021-10-20T22:00:30Z</time>
      </trkpt>
      <trkpt lat="42.5705" lon="1.94122">
        <ele>2562.35</ele>
        <time>2021-10-20T22:00:30Z</time>
      </trkpt>
      <trkpt lat="42.57052" lon="1.94149">
        <ele>2546.66</ele>
        <time>2021-10-20T22:00:30Z</time>
      </trkpt>
      <trkpt lat="42.57046" lon="1.94166">
        <ele>2537.32</ele>
        <time>2021-10-20T22:00:30Z</time>
      </trkpt>
      <trkpt lat="42.5704" lon="1.94194">
        <ele>2522.71</ele>
        <time>2021-10-20T22:00:30Z</time>
      </trkpt>
      <trkpt lat="42.57037" lon="1.94214">
        <ele>2512.87</ele>
        <time>2021-10-20T22:00:30Z</time>
      </trkpt>
      <trkpt lat="42.57035" lon="1.94246">
        <ele>2496.89</ele>
        <time>2021-10-20T22:00:30Z</time>
      </trkpt>
      <trkpt lat="42.5703" lon="1.94262">
        <ele>2492.23</ele>
        <time>2021-10-20T22:00:30Z</time>
      </trkpt>
      <trkpt lat="42.57022" lon="1.94277">
        <ele>2490.22</ele>
        <time>2021-10-20T22:00:30Z</time>
      </trkpt>
      <trkpt lat="42.57017" lon="1.94288">
        <ele>2488.67</ele>
        <time>2021-10-20T22:00:30Z</time>
      </trkpt>
      <trkpt lat="42.57014" lon="1.94306">
        <ele>2484.73</ele>
        <time>2021-10-20T22:00:30Z</time>
      </trkpt>
      <trkpt lat="42.5701" lon="1.94324">
        <ele>2481.58</ele>
        <time>2021-10-20T22:00:30Z</time>
      </trkpt>
      <trkpt lat="42.57008" lon="1.94339">
        <ele>2479.66</ele>
        <time>2021-10-20T22:00:30Z</time>
      </trkpt>
      <trkpt lat="42.57006" lon="1.94368">
        <ele>2475.29</ele>
        <time>2021-10-20T22:00:30Z</time>
      </trkpt>
      <trkpt lat="42.57008" lon="1.94385">
        <ele>2471.62</ele>
        <time>2021-10-20T22:00:30Z</time>
      </trkpt>
      <trkpt lat="42.57015" lon="1.94418">
        <ele>2464.77</ele>
        <time>2021-10-20T22:00:30Z</time>
      </trkpt>
      <trkpt lat="42.57021" lon="1.94447">
        <ele>2459.06</ele>
        <time>2021-10-20T22:00:30Z</time>
      </trkpt>
      <trkpt lat="42.57044" lon="1.94485">
        <ele>2447.89</ele>
        <time>2021-10-20T22:00:30Z</time>
      </trkpt>
      <trkpt lat="42.5705" lon="1.9451">
        <ele>2444.01</ele>
        <time>2021-10-20T22:00:30Z</time>
      </trkpt>
      <trkpt lat="42.57095" lon="1.94594">
        <ele>2425.95</ele>
        <time>2021-10-20T22:00:30Z</time>
      </trkpt>
      <trkpt lat="42.57094" lon="1.94621">
        <ele>2423.06</ele>
        <time>2021-10-20T22:00:30Z</time>
      </trkpt>
      <trkpt lat="42.57098" lon="1.94655">
        <ele>2418.28</ele>
        <time>2021-10-20T22:00:30Z</time>
      </trkpt>
      <trkpt lat="42.57096" lon="1.9468">
        <ele>2415.8</ele>
        <time>2021-10-20T22:00:30Z</time>
      </trkpt>
      <trkpt lat="42.57099" lon="1.9471">
        <ele>2411.67</ele>
        <time>2021-10-20T22:00:30Z</time>
      </trkpt>
      <trkpt lat="42.57114" lon="1.94743">
        <ele>2404.27</ele>
        <time>2021-10-20T22:00:30Z</time>
      </trkpt>
      <trkpt lat="42.57126" lon="1.94766">
        <ele>2398.48</ele>
        <time>2021-10-20T22:00:30Z</time>
      </trkpt>
      <trkpt lat="42.57126" lon="1.94802">
        <ele>2393.89</ele>
        <time>2021-10-20T22:00:30Z</time>
      </trkpt>
      <trkpt lat="42.57129" lon="1.94847">
        <ele>2387.9</ele>
        <time>2021-10-20T22:00:30Z</time>
      </trkpt>
      <trkpt lat="42.57139" lon="1.94873">
        <ele>2382.77</ele>
        <time>2021-10-20T22:00:30Z</time>
      </trkpt>
      <trkpt lat="42.57166" lon="1.94901">
        <ele>2375.61</ele>
        <time>2021-10-20T22:00:30Z</time>
      </trkpt>
      <trkpt lat="42.5717" lon="1.94932">
        <ele>2372.2</ele>
        <time>2021-10-20T22:00:30Z</time>
      </trkpt>
      <trkpt lat="42.5717" lon="1.94955">
        <ele>2369.97</ele>
        <time>2021-10-20T22:00:30Z</time>
      </trkpt>
      <trkpt lat="42.57181" lon="1.94986">
        <ele>2365.13</ele>
        <time>2021-10-20T22:00:30Z</time>
      </trkpt>
      <trkpt lat="42.57179" lon="1.95012">
        <ele>2362.87</ele>
        <time>2021-10-20T22:00:30Z</time>
      </trkpt>
      <trkpt lat="42.5717" lon="1.95038">
        <ele>2361.53</ele>
        <time>2021-10-20T22:00:30Z</time>
      </trkpt>
      <trkpt lat="42.57167" lon="1.95067">
        <ele>2359.06</ele>
        <time>2021-10-20T22:00:30Z</time>
      </trkpt>
      <trkpt lat="42.5716" lon="1.95085">
        <ele>2358.53</ele>
        <time>2021-10-20T22:00:30Z</time>
      </trkpt>
      <trkpt lat="42.57159" lon="1.95109">
        <ele>2356.48</ele>
        <time>2021-10-20T22:00:30Z</time>
      </trkpt>
      <trkpt lat="42.57158" lon="1.95134">
        <ele>2354.34</ele>
        <time>2021-10-20T22:00:30Z</time>
      </trkpt>
      <trkpt lat="42.57152" lon="1.95156">
        <ele>2354.24</ele>
        <time>2021-10-20T22:00:30Z</time>
      </trkpt>
      <trkpt lat="42.57146" lon="1.95181">
        <ele>2354.91</ele>
        <time>2021-10-20T22:00:30Z</time>
      </trkpt>
      <trkpt lat="42.57154" lon="1.95211">
        <ele>2352.57</ele>
        <time>2021-10-20T22:00:30Z</time>
      </trkpt>
      <trkpt lat="42.5716" lon="1.95247">
        <ele>2350.91</ele>
        <time>2021-10-20T22:00:30Z</time>
      </trkpt>
      <trkpt lat="42.57166" lon="1.95278">
        <ele>2349.4</ele>
        <time>2021-10-20T22:00:30Z</time>
      </trkpt>
      <trkpt lat="42.57173" lon="1.95296">
        <ele>2347.74</ele>
        <time>2021-10-20T22:00:30Z</time>
      </trkpt>
      <trkpt lat="42.5718" lon="1.95339">
        <ele>2345.69</ele>
        <time>2021-10-20T22:00:30Z</time>
      </trkpt>
      <trkpt lat="42.57186" lon="1.95373">
        <ele>2344.39</ele>
        <time>2021-10-20T22:00:30Z</time>
      </trkpt>
      <trkpt lat="42.57188" lon="1.95394">
        <ele>2344.13</ele>
        <time>2021-10-20T22:00:30Z</time>
      </trkpt>
      <trkpt lat="42.57195" lon="1.95414">
        <ele>2343.09</ele>
        <time>2021-10-20T22:00:30Z</time>
      </trkpt>
      <trkpt lat="42.57199" lon="1.95431">
        <ele>2342.33</ele>
        <time>2021-10-20T22:00:30Z</time>
      </trkpt>
      <trkpt lat="42.57206" lon="1.95449">
        <ele>2341.37</ele>
        <time>2021-10-20T22:00:30Z</time>
      </trkpt>
      <trkpt lat="42.57213" lon="1.95469">
        <ele>2340.76</ele>
        <time>2021-10-20T22:00:30Z</time>
      </trkpt>
      <trkpt lat="42.57218" lon="1.95488">
        <ele>2340.31</ele>
        <time>2021-10-20T22:00:30Z</time>
      </trkpt>
      <trkpt lat="42.57231" lon="1.95506">
        <ele>2340.11</ele>
        <time>2021-10-20T22:00:30Z</time>
      </trkpt>
      <trkpt lat="42.57239" lon="1.95529">
        <ele>2340.31</ele>
        <time>2021-10-20T22:00:30Z</time>
      </trkpt>
      <trkpt lat="42.57259" lon="1.95548">
        <ele>2340.11</ele>
        <time>2021-10-20T22:00:30Z</time>
      </trkpt>
      <trkpt lat="42.5728" lon="1.95566">
        <ele>2340.48</ele>
        <time>2021-10-20T22:00:30Z</time>
      </trkpt>
      <trkpt lat="42.57301" lon="1.956">
        <ele>2343.2</ele>
        <time>2021-10-20T22:00:30Z</time>
      </trkpt>
      <trkpt lat="42.57321" lon="1.95604">
        <ele>2344.04</ele>
        <time>2021-10-20T22:00:30Z</time>
      </trkpt>
      <trkpt lat="42.57335" lon="1.95614">
        <ele>2345.53</ele>
        <time>2021-10-20T22:00:30Z</time>
      </trkpt>
      <trkpt lat="42.57359" lon="1.95625">
        <ele>2344.13</ele>
        <time>2021-10-20T22:00:30Z</time>
      </trkpt>
      <trkpt lat="42.57378" lon="1.95635">
        <ele>2342.53</ele>
        <time>2021-10-20T22:00:30Z</time>
      </trkpt>
      <trkpt lat="42.57404" lon="1.95647">
        <ele>2339.32</ele>
        <time>2021-10-20T22:00:30Z</time>
      </trkpt>
      <trkpt lat="42.57433" lon="1.95666">
        <ele>2337.66</ele>
        <time>2021-10-20T22:00:30Z</time>
      </trkpt>
      <trkpt lat="42.57457" lon="1.95685">
        <ele>2336.03</ele>
        <time>2021-10-20T22:00:30Z</time>
      </trkpt>
      <trkpt lat="42.57468" lon="1.95711">
        <ele>2335.43</ele>
        <time>2021-10-20T22:00:30Z</time>
      </trkpt>
      <trkpt lat="42.57485" lon="1.95735">
        <ele>2333.98</ele>
        <time>2021-10-20T22:00:30Z</time>
      </trkpt>
      <trkpt lat="42.57498" lon="1.95766">
        <ele>2332.5</ele>
        <time>2021-10-20T22:00:30Z</time>
      </trkpt>
      <trkpt lat="42.57513" lon="1.95802">
        <ele>2329.85</ele>
        <time>2021-10-20T22:00:30Z</time>
      </trkpt>
      <trkpt lat="42.5752" lon="1.95829">
        <ele>2327.89</ele>
        <time>2021-10-20T22:00:30Z</time>
      </trkpt>
      <trkpt lat="42.57515" lon="1.95854">
        <ele>2328.25</ele>
        <time>2021-10-20T22:00:30Z</time>
      </trkpt>
      <trkpt lat="42.5752" lon="1.95875">
        <ele>2326.79</ele>
        <time>2021-10-20T22:00:30Z</time>
      </trkpt>
      <trkpt lat="42.57531" lon="1.959">
        <ele>2323.95</ele>
        <time>2021-10-20T22:00:30Z</time>
      </trkpt>
      <trkpt lat="42.5754" lon="1.95927">
        <ele>2321.33</ele>
        <time>2021-10-20T22:00:30Z</time>
      </trkpt>
      <trkpt lat="42.57544" lon="1.95959">
        <ele>2319.58</ele>
        <time>2021-10-20T22:00:30Z</time>
      </trkpt>
      <trkpt lat="42.57546" lon="1.95986">
        <ele>2318.93</ele>
        <time>2021-10-20T22:00:30Z</time>
      </trkpt>
      <trkpt lat="42.57549" lon="1.96007">
        <ele>2318.54</ele>
        <time>2021-10-20T22:00:30Z</time>
      </trkpt>
      <trkpt lat="42.57554" lon="1.96027">
        <ele>2317.88</ele>
        <time>2021-10-20T22:00:30Z</time>
      </trkpt>
      <trkpt lat="42.57561" lon="1.9605">
        <ele>2317.15</ele>
        <time>2021-10-20T22:00:30Z</time>
      </trkpt>
      <trkpt lat="42.57563" lon="1.96068">
        <ele>2317.15</ele>
        <time>2021-10-20T22:00:30Z</time>
      </trkpt>
      <trkpt lat="42.5757" lon="1.96095">
        <ele>2316.63</ele>
        <time>2021-10-20T22:00:30Z</time>
      </trkpt>
      <trkpt lat="42.57571" lon="1.96119">
        <ele>2317.08</ele>
        <time>2021-10-20T22:00:30Z</time>
      </trkpt>
      <trkpt lat="42.57581" lon="1.9614">
        <ele>2316.32</ele>
        <time>2021-10-20T22:00:30Z</time>
      </trkpt>
      <trkpt lat="42.57582" lon="1.96159">
        <ele>2316.71</ele>
        <time>2021-10-20T22:00:30Z</time>
      </trkpt>
      <trkpt lat="42.57595" lon="1.9619">
        <ele>2315.16</ele>
        <time>2021-10-20T22:00:30Z</time>
      </trkpt>
      <trkpt lat="42.57614" lon="1.96211">
        <ele>2312.55</ele>
        <time>2021-10-20T22:00:30Z</time>
      </trkpt>
      <trkpt lat="42.57633" lon="1.96239">
        <ele>2312.66</ele>
        <time>2021-10-20T22:00:30Z</time>
      </trkpt>
      <trkpt lat="42.57643" lon="1.96268">
        <ele>2312.67</ele>
        <time>2021-10-20T22:00:30Z</time>
      </trkpt>
      <trkpt lat="42.57651" lon="1.96294">
        <ele>2312.91</ele>
        <time>2021-10-20T22:00:30Z</time>
      </trkpt>
      <trkpt lat="42.57653" lon="1.96315">
        <ele>2313.06</ele>
        <time>2021-10-20T22:00:30Z</time>
      </trkpt>
      <trkpt lat="42.57657" lon="1.96342">
        <ele>2312.54</ele>
        <time>2021-10-20T22:00:30Z</time>
      </trkpt>
      <trkpt lat="42.57664" lon="1.96366">
        <ele>2312.09</ele>
        <time>2021-10-20T22:00:30Z</time>
      </trkpt>
      <trkpt lat="42.57653" lon="1.96382">
        <ele>2311.49</ele>
        <time>2021-10-20T22:00:30Z</time>
      </trkpt>
      <trkpt lat="42.57672" lon="1.96404">
        <ele>2310.3</ele>
        <time>2021-10-20T22:00:30Z</time>
      </trkpt>
      <trkpt lat="42.5771" lon="1.96407">
        <ele>2312.43</ele>
        <time>2021-10-20T22:00:30Z</time>
      </trkpt>
      <trkpt lat="42.57749" lon="1.96439">
        <ele>2309.87</ele>
        <time>2021-10-20T22:00:30Z</time>
      </trkpt>
      <trkpt lat="42.57786" lon="1.96458">
        <ele>2307.48</ele>
        <time>2021-10-20T22:00:30Z</time>
      </trkpt>
      <trkpt lat="42.57825" lon="1.96506">
        <ele>2300.61</ele>
        <time>2021-10-20T22:00:30Z</time>
      </trkpt>
      <trkpt lat="42.57871" lon="1.96572">
        <ele>2302.37</ele>
        <time>2021-10-20T22:00:30Z</time>
      </trkpt>
      <trkpt lat="42.57902" lon="1.96603">
        <ele>2308.61</ele>
        <time>2021-10-20T22:00:30Z</time>
      </trkpt>
      <trkpt lat="42.57934" lon="1.96651">
        <ele>2317.91</ele>
        <time>2021-10-20T22:00:30Z</time>
      </trkpt>
      <trkpt lat="42.57954" lon="1.96694">
        <ele>2321.49</ele>
        <time>2021-10-20T22:00:30Z</time>
      </trkpt>
      <trkpt lat="42.58002" lon="1.96736">
        <ele>2335.53</ele>
        <time>2021-10-20T22:00:30Z</time>
      </trkpt>
      <trkpt lat="42.58033" lon="1.96784">
        <ele>2339.54</ele>
        <time>2021-10-20T22:00:30Z</time>
      </trkpt>
      <trkpt lat="42.58087" lon="1.96813">
        <ele>2348.89</ele>
        <time>2021-10-20T22:00:30Z</time>
      </trkpt>
      <trkpt lat="42.58089" lon="1.96881">
        <ele>2349.98</ele>
        <time>2021-10-20T22:00:30Z</time>
      </trkpt>
      <trkpt lat="42.5814" lon="1.96966">
        <ele>2348.93</ele>
        <time>2021-10-20T22:00:30Z</time>
      </trkpt>
      <trkpt lat="42.58187" lon="1.97039">
        <ele>2339.06</ele>
        <time>2021-10-20T22:00:30Z</time>
      </trkpt>
      <trkpt lat="42.58235" lon="1.97106">
        <ele>2329.51</ele>
        <time>2021-10-20T22:00:30Z</time>
      </trkpt>
      <trkpt lat="42.58288" lon="1.97151">
        <ele>2337.22</ele>
        <time>2021-10-20T22:00:30Z</time>
      </trkpt>
      <trkpt lat="42.58344" lon="1.97181">
        <ele>2353.02</ele>
        <time>2021-10-20T22:00:30Z</time>
      </trkpt>
      <trkpt lat="42.58399" lon="1.9722">
        <ele>2369.5</ele>
        <time>2021-10-20T22:00:30Z</time>
      </trkpt>
      <trkpt lat="42.58454" lon="1.9723">
        <ele>2384.38</ele>
        <time>2021-10-20T22:00:30Z</time>
      </trkpt>
      <trkpt lat="42.58527" lon="1.97245">
        <ele>2384.36</ele>
        <time>2021-10-20T22:00:30Z</time>
      </trkpt>
      <trkpt lat="42.58573" lon="1.9725">
        <ele>2364.74</ele>
        <time>2021-10-20T22:00:30Z</time>
      </trkpt>
      <trkpt lat="42.58647" lon="1.97215">
        <ele>2323.49</ele>
        <time>2021-10-20T22:00:30Z</time>
      </trkpt>
      <trkpt lat="42.58658" lon="1.97177">
        <ele>2323.72</ele>
        <time>2021-10-20T22:00:30Z</time>
      </trkpt>
      <trkpt lat="42.58713" lon="1.97147">
        <ele>2293.58</ele>
        <time>2021-10-20T22:00:30Z</time>
      </trkpt>
      <trkpt lat="42.58767" lon="1.97102">
        <ele>2266.39</ele>
        <time>2021-10-20T22:00:30Z</time>
      </trkpt>
      <trkpt lat="42.58783" lon="1.97034">
        <ele>2259.7</ele>
        <time>2021-10-20T22:00:30Z</time>
      </trkpt>
      <trkpt lat="42.58779" lon="1.96969">
        <ele>2264.45</ele>
        <time>2021-10-20T22:00:30Z</time>
      </trkpt>
      <trkpt lat="42.58805" lon="1.96914">
        <ele>2253.18</ele>
        <time>2021-10-20T22:00:30Z</time>
      </trkpt>
      <trkpt lat="42.58822" lon="1.96824">
        <ele>2253.92</ele>
        <time>2021-10-20T22:00:30Z</time>
      </trkpt>
      <trkpt lat="42.58845" lon="1.96745">
        <ele>2250.59</ele>
        <time>2021-10-20T22:00:30Z</time>
      </trkpt>
      <trkpt lat="42.58879" lon="1.96681">
        <ele>2235.17</ele>
        <time>2021-10-20T22:00:30Z</time>
      </trkpt>
      <trkpt lat="42.58928" lon="1.96607">
        <ele>2211.76</ele>
        <time>2021-10-20T22:00:30Z</time>
      </trkpt>
      <trkpt lat="42.59008" lon="1.9656">
        <ele>2189.62</ele>
        <time>2021-10-20T22:00:30Z</time>
      </trkpt>
      <trkpt lat="42.59074" lon="1.96528">
        <ele>2178.29</ele>
        <time>2021-10-20T22:00:30Z</time>
      </trkpt>
      <trkpt lat="42.59157" lon="1.96528">
        <ele>2169.91</ele>
        <time>2021-10-20T22:00:30Z</time>
      </trkpt>
      <trkpt lat="42.5919" lon="1.96604">
        <ele>2165.26</ele>
        <time>2021-10-20T22:00:30Z</time>
      </trkpt>
      <trkpt lat="42.59227" lon="1.96683">
        <ele>2155.39</ele>
        <time>2021-10-20T22:00:30Z</time>
      </trkpt>
      <trkpt lat="42.59278" lon="1.9674">
        <ele>2141.58</ele>
        <time>2021-10-20T22:00:30Z</time>
      </trkpt>
      <trkpt lat="42.59319" lon="1.96788">
        <ele>2129.63</ele>
        <time>2021-10-20T22:00:30Z</time>
      </trkpt>
      <trkpt lat="42.59344" lon="1.96852">
        <ele>2120.24</ele>
        <time>2021-10-20T22:00:30Z</time>
      </trkpt>
      <trkpt lat="42.59357" lon="1.9689">
        <ele>2115.75</ele>
        <time>2021-10-20T22:00:30Z</time>
      </trkpt>
      <trkpt lat="42.59375" lon="1.96945">
        <ele>2109.66</ele>
        <time>2021-10-20T22:00:30Z</time>
      </trkpt>
      <trkpt lat="42.59356" lon="1.9708">
        <ele>2101.09</ele>
        <time>2021-10-20T22:00:30Z</time>
      </trkpt>
      <trkpt lat="42.59355" lon="1.97137">
        <ele>2098.67</ele>
        <time>2021-10-20T22:00:30Z</time>
      </trkpt>
      <trkpt lat="42.59341" lon="1.97202">
        <ele>2095.7</ele>
        <time>2021-10-20T22:00:30Z</time>
      </trkpt>
      <trkpt lat="42.59298" lon="1.97302">
        <ele>2091.44</ele>
        <time>2021-10-20T22:00:30Z</time>
      </trkpt>
      <trkpt lat="42.59245" lon="1.9745">
        <ele>2086.77</ele>
        <time>2021-10-20T22:00:30Z</time>
      </trkpt>
      <trkpt lat="42.59202" lon="1.97617">
        <ele>2080.87</ele>
        <time>2021-10-20T22:00:30Z</time>
      </trkpt>
      <trkpt lat="42.59162" lon="1.97697">
        <ele>2080.38</ele>
        <time>2021-10-20T22:00:30Z</time>
      </trkpt>
      <trkpt lat="42.59104" lon="1.97776">
        <ele>2080.51</ele>
        <time>2021-10-20T22:00:30Z</time>
      </trkpt>
      <trkpt lat="42.59067" lon="1.97851">
        <ele>2080.49</ele>
        <time>2021-10-20T22:00:30Z</time>
      </trkpt>
      <trkpt lat="42.59007" lon="1.9803">
        <ele>2079.69</ele>
        <time>2021-10-20T22:00:30Z</time>
      </trkpt>
      <trkpt lat="42.58954" lon="1.98188">
        <ele>2073.08</ele>
        <time>2021-10-20T22:00:30Z</time>
      </trkpt>
      <trkpt lat="42.58916" lon="1.98257">
        <ele>2066.59</ele>
        <time>2021-10-20T22:00:30Z</time>
      </trkpt>
      <trkpt lat="42.58888" lon="1.98365">
        <ele>2062.71</ele>
        <time>2021-10-20T22:00:30Z</time>
      </trkpt>
      <trkpt lat="42.58851" lon="1.98449">
        <ele>2061</ele>
        <time>2021-10-20T22:00:30Z</time>
      </trkpt>
      <trkpt lat="42.58822" lon="1.98503">
        <ele>2063.34</ele>
        <time>2021-10-20T22:00:30Z</time>
      </trkpt>
      <trkpt lat="42.58808" lon="1.98552">
        <ele>2063.16</ele>
        <time>2021-10-20T22:00:30Z</time>
      </trkpt>
      <trkpt lat="42.58756" lon="1.98675">
        <ele>2062.39</ele>
        <time>2021-10-20T22:00:30Z</time>
      </trkpt>
      <trkpt lat="42.58707" lon="1.98726">
        <ele>2063.25</ele>
        <time>2021-10-20T22:00:30Z</time>
      </trkpt>
      <trkpt lat="42.5864" lon="1.98814">
        <ele>2065.11</ele>
        <time>2021-10-20T22:00:30Z</time>
      </trkpt>
      <trkpt lat="42.58589" lon="1.98925">
        <ele>2062.52</ele>
        <time>2021-10-20T22:00:30Z</time>
      </trkpt>
      <trkpt lat="42.5853" lon="1.98999">
        <ele>2063.16</ele>
        <time>2021-10-20T22:00:30Z</time>
      </trkpt>
      <trkpt lat="42.58461" lon="1.99068">
        <ele>2062.69</ele>
        <time>2021-10-20T22:00:30Z</time>
      </trkpt>
      <trkpt lat="42.58402" lon="1.99132">
        <ele>2061.21</ele>
        <time>2021-10-20T22:00:30Z</time>
      </trkpt>
      <trkpt lat="42.58349" lon="1.99195">
        <ele>2059.78</ele>
        <time>2021-10-20T22:00:30Z</time>
      </trkpt>
      <trkpt lat="42.58306" lon="1.99224">
        <ele>2062.48</ele>
        <time>2021-10-20T22:00:30Z</time>
      </trkpt>
      <trkpt lat="42.58297" lon="1.99269">
        <ele>2059.03</ele>
        <time>2021-10-20T22:00:30Z</time>
      </trkpt>
      <trkpt lat="42.58254" lon="1.99327">
        <ele>2058.53</ele>
        <time>2021-10-20T22:00:30Z</time>
      </trkpt>
      <trkpt lat="42.58207" lon="1.99391">
        <ele>2059.47</ele>
        <time>2021-10-20T22:00:30Z</time>
      </trkpt>
      <trkpt lat="42.58176" lon="1.99397">
        <ele>2063.01</ele>
        <time>2021-10-20T22:00:30Z</time>
      </trkpt>
      <trkpt lat="42.58174" lon="1.99486">
        <ele>2056.1</ele>
        <time>2021-10-20T22:00:30Z</time>
      </trkpt>
      <trkpt lat="42.58125" lon="1.99524">
        <ele>2054.82</ele>
        <time>2021-10-20T22:00:30Z</time>
      </trkpt>
      <trkpt lat="42.58095" lon="1.99521">
        <ele>2053.86</ele>
        <time>2021-10-20T22:00:30Z</time>
      </trkpt>
      <trkpt lat="42.58073" lon="1.9956">
        <ele>2049.92</ele>
        <time>2021-10-20T22:00:30Z</time>
      </trkpt>
      <trkpt lat="42.58053" lon="1.99556">
        <ele>2048.41</ele>
        <time>2021-10-20T22:00:30Z</time>
      </trkpt>
      <trkpt lat="42.58017" lon="1.99556">
        <ele>2045.83</ele>
        <time>2021-10-20T22:00:30Z</time>
      </trkpt>
      <trkpt lat="42.5796" lon="1.99529">
        <ele>2045.46</ele>
        <time>2021-10-20T22:00:30Z</time>
      </trkpt>
      <trkpt lat="42.57915" lon="1.99475">
        <ele>2047.63</ele>
        <time>2021-10-20T22:00:30Z</time>
      </trkpt>
      <trkpt lat="42.57859" lon="1.99422">
        <ele>2043.98</ele>
        <time>2021-10-20T22:00:30Z</time>
      </trkpt>
      <trkpt lat="42.57818" lon="1.99399">
        <ele>2037.97</ele>
        <time>2021-10-20T22:00:30Z</time>
      </trkpt>
      <trkpt lat="42.57748" lon="1.99385">
        <ele>2033.73</ele>
        <time>2021-10-20T22:00:30Z</time>
      </trkpt>
      <trkpt lat="42.57693" lon="1.99385">
        <ele>2029.71</ele>
        <time>2021-10-20T22:00:30Z</time>
      </trkpt>
      <trkpt lat="42.57675" lon="1.99408">
        <ele>2026.52</ele>
        <time>2021-10-20T22:00:30Z</time>
      </trkpt>
      <trkpt lat="42.57639" lon="1.99403">
        <ele>2026.28</ele>
        <time>2021-10-20T22:00:30Z</time>
      </trkpt>
      <trkpt lat="42.57601" lon="1.99405">
        <ele>2025.77</ele>
        <time>2021-10-20T22:00:30Z</time>
      </trkpt>
      <trkpt lat="42.57546" lon="1.99383">
        <ele>2028.47</ele>
        <time>2021-10-20T22:00:30Z</time>
      </trkpt>
      <trkpt lat="42.57483" lon="1.9936">
        <ele>2028.91</ele>
        <time>2021-10-20T22:00:30Z</time>
      </trkpt>
      <trkpt lat="42.57433" lon="1.99312">
        <ele>2029.53</ele>
        <time>2021-10-20T22:00:30Z</time>
      </trkpt>
      <trkpt lat="42.57403" lon="1.99279">
        <ele>2030.88</ele>
        <time>2021-10-20T22:00:30Z</time>
      </trkpt>
      <trkpt lat="42.57411" lon="1.99243">
        <ele>2036.96</ele>
        <time>2021-10-20T22:00:30Z</time>
      </trkpt>
      <trkpt lat="42.574" lon="1.99207">
        <ele>2042.74</ele>
        <time>2021-10-20T22:00:30Z</time>
      </trkpt>
      <trkpt lat="42.57427" lon="1.99142">
        <ele>2057</ele>
        <time>2021-10-20T22:00:30Z</time>
      </trkpt>
      <trkpt lat="42.57497" lon="1.99113">
        <ele>2064.56</ele>
        <time>2021-10-20T22:00:30Z</time>
      </trkpt>
      <trkpt lat="42.57486" lon="1.99063">
        <ele>2072.72</ele>
        <time>2021-10-20T22:00:30Z</time>
      </trkpt>
      <trkpt lat="42.57502" lon="1.98967">
        <ele>2090.76</ele>
        <time>2021-10-20T22:00:30Z</time>
      </trkpt>
      <trkpt lat="42.57528" lon="1.98942">
        <ele>2097.53</ele>
        <time>2021-10-20T22:00:30Z</time>
      </trkpt>
      <trkpt lat="42.57539" lon="1.98878">
        <ele>2107.8</ele>
        <time>2021-10-20T22:00:30Z</time>
      </trkpt>
      <trkpt lat="42.57527" lon="1.98854">
        <ele>2109.23</ele>
        <time>2021-10-20T22:00:30Z</time>
      </trkpt>
      <trkpt lat="42.57553" lon="1.98834">
        <ele>2113.33</ele>
        <time>2021-10-20T22:00:30Z</time>
      </trkpt>
      <trkpt lat="42.57579" lon="1.98794">
        <ele>2117.82</ele>
        <time>2021-10-20T22:00:30Z</time>
      </trkpt>
      <trkpt lat="42.57608" lon="1.98793">
        <ele>2122.14</ele>
        <time>2021-10-20T22:00:30Z</time>
      </trkpt>
      <trkpt lat="42.57607" lon="1.98767">
        <ele>2120.26</ele>
        <time>2021-10-20T22:00:30Z</time>
      </trkpt>
      <trkpt lat="42.57546" lon="1.98703">
        <ele>2117.44</ele>
        <time>2021-10-20T22:00:30Z</time>
      </trkpt>
      <trkpt lat="42.57523" lon="1.98659">
        <ele>2122.94</ele>
        <time>2021-10-20T22:00:30Z</time>
      </trkpt>
      <trkpt lat="42.57524" lon="1.98614">
        <ele>2131.01</ele>
        <time>2021-10-20T22:00:30Z</time>
      </trkpt>
      <trkpt lat="42.57516" lon="1.98543">
        <ele>2147.5</ele>
        <time>2021-10-20T22:00:30Z</time>
      </trkpt>
      <trkpt lat="42.57492" lon="1.98503">
        <ele>2150.82</ele>
        <time>2021-10-20T22:00:30Z</time>
      </trkpt>
      <trkpt lat="42.57472" lon="1.98469">
        <ele>2149.96</ele>
        <time>2021-10-20T22:00:30Z</time>
      </trkpt>
      <trkpt lat="42.57497" lon="1.98439">
        <ele>2158.32</ele>
        <time>2021-10-20T22:00:30Z</time>
      </trkpt>
      <trkpt lat="42.57529" lon="1.98412">
        <ele>2165.5</ele>
        <time>2021-10-20T22:00:30Z</time>
      </trkpt>
      <trkpt lat="42.57554" lon="1.98372">
        <ele>2167.25</ele>
        <time>2021-10-20T22:00:30Z</time>
      </trkpt>
      <trkpt lat="42.57584" lon="1.98346">
        <ele>2168.41</ele>
        <time>2021-10-20T22:00:30Z</time>
      </trkpt>
      <trkpt lat="42.57608" lon="1.98321">
        <ele>2166.74</ele>
        <time>2021-10-20T22:00:30Z</time>
      </trkpt>
      <trkpt lat="42.57639" lon="1.98282">
        <ele>2165.44</ele>
        <time>2021-10-20T22:00:30Z</time>
      </trkpt>
      <trkpt lat="42.57664" lon="1.98243">
        <ele>2163.75</ele>
        <time>2021-10-20T22:00:30Z</time>
      </trkpt>
      <trkpt lat="42.57641" lon="1.98187">
        <ele>2168.99</ele>
        <time>2021-10-20T22:00:30Z</time>
      </trkpt>
      <trkpt lat="42.57595" lon="1.98085">
        <ele>2200.35</ele>
        <time>2021-10-20T22:00:30Z</time>
      </trkpt>
      <trkpt lat="42.57573" lon="1.98043">
        <ele>2217.95</ele>
        <time>2021-10-20T22:00:30Z</time>
      </trkpt>
      <trkpt lat="42.5756" lon="1.98006">
        <ele>2230.46</ele>
        <time>2021-10-20T22:00:30Z</time>
      </trkpt>
      <trkpt lat="42.57525" lon="1.9794">
        <ele>2248.72</ele>
        <time>2021-10-20T22:00:30Z</time>
      </trkpt>
      <trkpt lat="42.57498" lon="1.97845">
        <ele>2258.47</ele>
        <time>2021-10-20T22:00:30Z</time>
      </trkpt>
      <trkpt lat="42.57489" lon="1.97723">
        <ele>2257.88</ele>
        <time>2021-10-20T22:00:30Z</time>
      </trkpt>
      <trkpt lat="42.57481" lon="1.9767">
        <ele>2251.89</ele>
        <time>2021-10-20T22:00:30Z</time>
      </trkpt>
      <trkpt lat="42.57455" lon="1.97644">
        <ele>2251.09</ele>
        <time>2021-10-20T22:00:30Z</time>
      </trkpt>
      <trkpt lat="42.57451" lon="1.97608">
        <ele>2245.45</ele>
        <time>2021-10-20T22:00:30Z</time>
      </trkpt>
      <trkpt lat="42.57414" lon="1.97568">
        <ele>2243.19</ele>
        <time>2021-10-20T22:00:30Z</time>
      </trkpt>
      <trkpt lat="42.57381" lon="1.97525">
        <ele>2238.31</ele>
        <time>2021-10-20T22:00:30Z</time>
      </trkpt>
      <trkpt lat="42.57339" lon="1.97535">
        <ele>2241.04</ele>
        <time>2021-10-20T22:00:30Z</time>
      </trkpt>
      <trkpt lat="42.57324" lon="1.97543">
        <ele>2240.64</ele>
        <time>2021-10-20T22:00:30Z</time>
      </trkpt>
      <trkpt lat="42.57309" lon="1.97541">
        <ele>2239.63</ele>
        <time>2021-10-20T22:00:30Z</time>
      </trkpt>
      <trkpt lat="42.57297" lon="1.9756">
        <ele>2239.51</ele>
        <time>2021-10-20T22:00:30Z</time>
      </trkpt>
      <trkpt lat="42.57287" lon="1.97587">
        <ele>2239.39</ele>
        <time>2021-10-20T22:00:30Z</time>
      </trkpt>
      <trkpt lat="42.57279" lon="1.97607">
        <ele>2238.52</ele>
        <time>2021-10-20T22:00:30Z</time>
      </trkpt>
      <trkpt lat="42.57271" lon="1.97626">
        <ele>2237.45</ele>
        <time>2021-10-20T22:00:30Z</time>
      </trkpt>
      <trkpt lat="42.57258" lon="1.97648">
        <ele>2236.28</ele>
        <time>2021-10-20T22:00:30Z</time>
      </trkpt>
      <trkpt lat="42.57247" lon="1.97669">
        <ele>2234.66</ele>
        <time>2021-10-20T22:00:30Z</time>
      </trkpt>
      <trkpt lat="42.57238" lon="1.97687">
        <ele>2233</ele>
        <time>2021-10-20T22:00:30Z</time>
      </trkpt>
      <trkpt lat="42.57229" lon="1.97712">
        <ele>2233.02</ele>
        <time>2021-10-20T22:00:30Z</time>
      </trkpt>
      <trkpt lat="42.57218" lon="1.97733">
        <ele>2231.3</ele>
        <time>2021-10-20T22:00:30Z</time>
      </trkpt>
      <trkpt lat="42.57203" lon="1.97753">
        <ele>2227.27</ele>
        <time>2021-10-20T22:00:30Z</time>
      </trkpt>
      <trkpt lat="42.57192" lon="1.97767">
        <ele>2224.76</ele>
        <time>2021-10-20T22:00:30Z</time>
      </trkpt>
      <trkpt lat="42.57173" lon="1.97786">
        <ele>2219.42</ele>
        <time>2021-10-20T22:00:30Z</time>
      </trkpt>
      <trkpt lat="42.57165" lon="1.97801">
        <ele>2216.87</ele>
        <time>2021-10-20T22:00:30Z</time>
      </trkpt>
      <trkpt lat="42.57154" lon="1.97819">
        <ele>2212.82</ele>
        <time>2021-10-20T22:00:30Z</time>
      </trkpt>
      <trkpt lat="42.57149" lon="1.97829">
        <ele>2211.13</ele>
        <time>2021-10-20T22:00:30Z</time>
      </trkpt>
      <trkpt lat="42.57143" lon="1.9784">
        <ele>2209.22</ele>
        <time>2021-10-20T22:00:30Z</time>
      </trkpt>
      <trkpt lat="42.57129" lon="1.97852">
        <ele>2204.74</ele>
        <time>2021-10-20T22:00:30Z</time>
      </trkpt>
      <trkpt lat="42.57115" lon="1.97864">
        <ele>2201.36</ele>
        <time>2021-10-20T22:00:30Z</time>
      </trkpt>
      <trkpt lat="42.57095" lon="1.97879">
        <ele>2195.93</ele>
        <time>2021-10-20T22:00:30Z</time>
      </trkpt>
      <trkpt lat="42.57083" lon="1.97884">
        <ele>2192.47</ele>
        <time>2021-10-20T22:00:30Z</time>
      </trkpt>
      <trkpt lat="42.57074" lon="1.97893">
        <ele>2189.75</ele>
        <time>2021-10-20T22:00:30Z</time>
      </trkpt>
      <trkpt lat="42.57065" lon="1.97897">
        <ele>2187.3</ele>
        <time>2021-10-20T22:00:30Z</time>
      </trkpt>
      <trkpt lat="42.57046" lon="1.97914">
        <ele>2185.8</ele>
        <time>2021-10-20T22:00:30Z</time>
      </trkpt>
      <trkpt lat="42.57035" lon="1.97921">
        <ele>2184.7</ele>
        <time>2021-10-20T22:00:30Z</time>
      </trkpt>
      <trkpt lat="42.57023" lon="1.9793">
        <ele>2183.4</ele>
        <time>2021-10-20T22:00:30Z</time>
      </trkpt>
      <trkpt lat="42.57011" lon="1.9793">
        <ele>2181.88</ele>
        <time>2021-10-20T22:00:30Z</time>
      </trkpt>
      <trkpt lat="42.56998" lon="1.97931">
        <ele>2180.23</ele>
        <time>2021-10-20T22:00:30Z</time>
      </trkpt>
      <trkpt lat="42.5698" lon="1.97931">
        <ele>2178.82</ele>
        <time>2021-10-20T22:00:30Z</time>
      </trkpt>
      <trkpt lat="42.56971" lon="1.97936">
        <ele>2178.17</ele>
        <time>2021-10-20T22:00:30Z</time>
      </trkpt>
      <trkpt lat="42.56963" lon="1.9795">
        <ele>2177.59</ele>
        <time>2021-10-20T22:00:30Z</time>
      </trkpt>
      <trkpt lat="42.56955" lon="1.97965">
        <ele>2177.08</ele>
        <time>2021-10-20T22:00:30Z</time>
      </trkpt>
      <trkpt lat="42.56945" lon="1.97978">
        <ele>2176.54</ele>
        <time>2021-10-20T22:00:30Z</time>
      </trkpt>
      <trkpt lat="42.56937" lon="1.97993">
        <ele>2176.17</ele>
        <time>2021-10-20T22:00:30Z</time>
      </trkpt>
      <trkpt lat="42.56929" lon="1.98007">
        <ele>2175.8</ele>
        <time>2021-10-20T22:00:30Z</time>
      </trkpt>
      <trkpt lat="42.56923" lon="1.98016">
        <ele>2175.91</ele>
        <time>2021-10-20T22:00:30Z</time>
      </trkpt>
      <trkpt lat="42.56909" lon="1.98034">
        <ele>2176.31</ele>
        <time>2021-10-20T22:00:30Z</time>
      </trkpt>
      <trkpt lat="42.56896" lon="1.98049">
        <ele>2176.48</ele>
        <time>2021-10-20T22:00:30Z</time>
      </trkpt>
      <trkpt lat="42.56884" lon="1.98061">
        <ele>2176.51</ele>
        <time>2021-10-20T22:00:30Z</time>
      </trkpt>
      <trkpt lat="42.56876" lon="1.98069">
        <ele>2176.46</ele>
        <time>2021-10-20T22:00:30Z</time>
      </trkpt>
      <trkpt lat="42.56864" lon="1.98074">
        <ele>2176.36</ele>
        <time>2021-10-20T22:00:30Z</time>
      </trkpt>
      <trkpt lat="42.56853" lon="1.98075">
        <ele>2176.41</ele>
        <time>2021-10-20T22:00:30Z</time>
      </trkpt>
      <trkpt lat="42.56838" lon="1.9808">
        <ele>2176.55</ele>
        <time>2021-10-20T22:00:30Z</time>
      </trkpt>
      <trkpt lat="42.56822" lon="1.98092">
        <ele>2176.61</ele>
        <time>2021-10-20T22:00:30Z</time>
      </trkpt>
      <trkpt lat="42.56813" lon="1.98113">
        <ele>2176.44</ele>
        <time>2021-10-20T22:00:30Z</time>
      </trkpt>
      <trkpt lat="42.56799" lon="1.9813">
        <ele>2176.39</ele>
        <time>2021-10-20T22:00:30Z</time>
      </trkpt>
      <trkpt lat="42.56784" lon="1.98139">
        <ele>2176.32</ele>
        <time>2021-10-20T22:00:30Z</time>
      </trkpt>
      <trkpt lat="42.56773" lon="1.98154">
        <ele>2175.8</ele>
        <time>2021-10-20T22:00:30Z</time>
      </trkpt>
      <trkpt lat="42.56753" lon="1.98181">
        <ele>2174.56</ele>
        <time>2021-10-20T22:00:30Z</time>
      </trkpt>
      <trkpt lat="42.56749" lon="1.98197">
        <ele>2173.99</ele>
        <time>2021-10-20T22:00:30Z</time>
      </trkpt>
      <trkpt lat="42.56742" lon="1.98218">
        <ele>2173</ele>
        <time>2021-10-20T22:00:30Z</time>
      </trkpt>
      <trkpt lat="42.56731" lon="1.98228">
        <ele>2171.94</ele>
        <time>2021-10-20T22:00:30Z</time>
      </trkpt>
      <trkpt lat="42.56718" lon="1.98229">
        <ele>2170.6</ele>
        <time>2021-10-20T22:00:30Z</time>
      </trkpt>
      <trkpt lat="42.567" lon="1.98235">
        <ele>2166.89</ele>
        <time>2021-10-20T22:00:30Z</time>
      </trkpt>
      <trkpt lat="42.56687" lon="1.98239">
        <ele>2164.11</ele>
        <time>2021-10-20T22:00:30Z</time>
      </trkpt>
      <trkpt lat="42.56678" lon="1.98251">
        <ele>2161.54</ele>
        <time>2021-10-20T22:00:30Z</time>
      </trkpt>
      <trkpt lat="42.56666" lon="1.98256">
        <ele>2159.06</ele>
        <time>2021-10-20T22:00:30Z</time>
      </trkpt>
      <trkpt lat="42.56655" lon="1.98258">
        <ele>2157.01</ele>
        <time>2021-10-20T22:00:30Z</time>
      </trkpt>
      <trkpt lat="42.56634" lon="1.98262">
        <ele>2155.58</ele>
        <time>2021-10-20T22:00:30Z</time>
      </trkpt>
      <trkpt lat="42.56623" lon="1.98263">
        <ele>2155.04</ele>
        <time>2021-10-20T22:00:30Z</time>
      </trkpt>
      <trkpt lat="42.56607" lon="1.98266">
        <ele>2154.17</ele>
        <time>2021-10-20T22:00:30Z</time>
      </trkpt>
      <trkpt lat="42.56596" lon="1.98268">
        <ele>2153.57</ele>
        <time>2021-10-20T22:00:30Z</time>
      </trkpt>
      <trkpt lat="42.56586" lon="1.98272">
        <ele>2152.9</ele>
        <time>2021-10-20T22:00:30Z</time>
      </trkpt>
      <trkpt lat="42.56574" lon="1.98285">
        <ele>2152.21</ele>
        <time>2021-10-20T22:00:30Z</time>
      </trkpt>
      <trkpt lat="42.56564" lon="1.98299">
        <ele>2151.54</ele>
        <time>2021-10-20T22:00:30Z</time>
      </trkpt>
      <trkpt lat="42.56554" lon="1.98305">
        <ele>2151.4</ele>
        <time>2021-10-20T22:00:30Z</time>
      </trkpt>
      <trkpt lat="42.56542" lon="1.98316">
        <ele>2151.31</ele>
        <time>2021-10-20T22:00:30Z</time>
      </trkpt>
      <trkpt lat="42.56535" lon="1.98329">
        <ele>2151.07</ele>
        <time>2021-10-20T22:00:30Z</time>
      </trkpt>
      <trkpt lat="42.56531" lon="1.98349">
        <ele>2150.59</ele>
        <time>2021-10-20T22:00:30Z</time>
      </trkpt>
      <trkpt lat="42.56525" lon="1.98364">
        <ele>2150.21</ele>
        <time>2021-10-20T22:00:30Z</time>
      </trkpt>
      <trkpt lat="42.56513" lon="1.98378">
        <ele>2149.94</ele>
        <time>2021-10-20T22:00:30Z</time>
      </trkpt>
      <trkpt lat="42.56503" lon="1.98387">
        <ele>2149.88</ele>
        <time>2021-10-20T22:00:30Z</time>
      </trkpt>
      <trkpt lat="42.56495" lon="1.98399">
        <ele>2149.67</ele>
        <time>2021-10-20T22:00:30Z</time>
      </trkpt>
      <trkpt lat="42.56486" lon="1.98412">
        <ele>2149.34</ele>
        <time>2021-10-20T22:00:30Z</time>
      </trkpt>
      <trkpt lat="42.56483" lon="1.98428">
        <ele>2148.88</ele>
        <time>2021-10-20T22:00:30Z</time>
      </trkpt>
      <trkpt lat="42.56477" lon="1.9846">
        <ele>2147.56</ele>
        <time>2021-10-20T22:00:30Z</time>
      </trkpt>
      <trkpt lat="42.56473" lon="1.9848">
        <ele>2146.52</ele>
        <time>2021-10-20T22:00:30Z</time>
      </trkpt>
      <trkpt lat="42.56464" lon="1.98494">
        <ele>2145.53</ele>
        <time>2021-10-20T22:00:30Z</time>
      </trkpt>
      <trkpt lat="42.56455" lon="1.98504">
        <ele>2144.64</ele>
        <time>2021-10-20T22:00:30Z</time>
      </trkpt>
      <trkpt lat="42.56442" lon="1.98515">
        <ele>2143.19</ele>
        <time>2021-10-20T22:00:30Z</time>
      </trkpt>
      <trkpt lat="42.56435" lon="1.98523">
        <ele>2142.05</ele>
        <time>2021-10-20T22:00:30Z</time>
      </trkpt>
      <trkpt lat="42.5643" lon="1.9854">
        <ele>2139.92</ele>
        <time>2021-10-20T22:00:30Z</time>
      </trkpt>
      <trkpt lat="42.56427" lon="1.98555">
        <ele>2138.09</ele>
        <time>2021-10-20T22:00:30Z</time>
      </trkpt>
      <trkpt lat="42.5642" lon="1.98567">
        <ele>2136.49</ele>
        <time>2021-10-20T22:00:30Z</time>
      </trkpt>
      <trkpt lat="42.56407" lon="1.98575">
        <ele>2135.18</ele>
        <time>2021-10-20T22:00:30Z</time>
      </trkpt>
      <trkpt lat="42.56396" lon="1.98589">
        <ele>2133.22</ele>
        <time>2021-10-20T22:00:30Z</time>
      </trkpt>
      <trkpt lat="42.56377" lon="1.98606">
        <ele>2130.7</ele>
        <time>2021-10-20T22:00:30Z</time>
      </trkpt>
      <trkpt lat="42.5636" lon="1.98617">
        <ele>2129.03</ele>
        <time>2021-10-20T22:00:30Z</time>
      </trkpt>
      <trkpt lat="42.56346" lon="1.98635">
        <ele>2126.49</ele>
        <time>2021-10-20T22:00:30Z</time>
      </trkpt>
      <trkpt lat="42.56343" lon="1.98647">
        <ele>2124.94</ele>
        <time>2021-10-20T22:00:30Z</time>
      </trkpt>
      <trkpt lat="42.56337" lon="1.98667">
        <ele>2123.01</ele>
        <time>2021-10-20T22:00:30Z</time>
      </trkpt>
      <trkpt lat="42.5633" lon="1.98679">
        <ele>2121.76</ele>
        <time>2021-10-20T22:00:30Z</time>
      </trkpt>
      <trkpt lat="42.56318" lon="1.98696">
        <ele>2119.93</ele>
        <time>2021-10-20T22:00:30Z</time>
      </trkpt>
      <trkpt lat="42.56303" lon="1.9871">
        <ele>2118.28</ele>
        <time>2021-10-20T22:00:30Z</time>
      </trkpt>
      <trkpt lat="42.56289" lon="1.98719">
        <ele>2117.13</ele>
        <time>2021-10-20T22:00:30Z</time>
      </trkpt>
      <trkpt lat="42.5627" lon="1.98731">
        <ele>2115.53</ele>
        <time>2021-10-20T22:00:30Z</time>
      </trkpt>
      <trkpt lat="42.56266" lon="1.98745">
        <ele>2114.17</ele>
        <time>2021-10-20T22:00:30Z</time>
      </trkpt>
      <trkpt lat="42.56261" lon="1.98759">
        <ele>2112.68</ele>
        <time>2021-10-20T22:00:30Z</time>
      </trkpt>
      <trkpt lat="42.56253" lon="1.98771">
        <ele>2111.1</ele>
        <time>2021-10-20T22:00:30Z</time>
      </trkpt>
      <trkpt lat="42.56244" lon="1.9878">
        <ele>2109.62</ele>
        <time>2021-10-20T22:00:30Z</time>
      </trkpt>
      <trkpt lat="42.56236" lon="1.98787">
        <ele>2108.79</ele>
        <time>2021-10-20T22:00:30Z</time>
      </trkpt>
      <trkpt lat="42.56229" lon="1.98796">
        <ele>2108.08</ele>
        <time>2021-10-20T22:00:30Z</time>
      </trkpt>
      <trkpt lat="42.56221" lon="1.98803">
        <ele>2107.54</ele>
        <time>2021-10-20T22:00:30Z</time>
      </trkpt>
      <trkpt lat="42.56202" lon="1.98814">
        <ele>2106.69</ele>
        <time>2021-10-20T22:00:30Z</time>
      </trkpt>
      <trkpt lat="42.56192" lon="1.98823">
        <ele>2105.89</ele>
        <time>2021-10-20T22:00:30Z</time>
      </trkpt>
      <trkpt lat="42.56182" lon="1.98833">
        <ele>2104.95</ele>
        <time>2021-10-20T22:00:30Z</time>
      </trkpt>
      <trkpt lat="42.56172" lon="1.98843">
        <ele>2103.98</ele>
        <time>2021-10-20T22:00:30Z</time>
      </trkpt>
      <trkpt lat="42.56161" lon="1.98862">
        <ele>2102.73</ele>
        <time>2021-10-20T22:00:30Z</time>
      </trkpt>
      <trkpt lat="42.56157" lon="1.9888">
        <ele>2101.93</ele>
        <time>2021-10-20T22:00:30Z</time>
      </trkpt>
      <trkpt lat="42.5615" lon="1.98895">
        <ele>2101.27</ele>
        <time>2021-10-20T22:00:30Z</time>
      </trkpt>
      <trkpt lat="42.56139" lon="1.98907">
        <ele>2100.72</ele>
        <time>2021-10-20T22:00:30Z</time>
      </trkpt>
      <trkpt lat="42.56127" lon="1.98921">
        <ele>2100.01</ele>
        <time>2021-10-20T22:00:30Z</time>
      </trkpt>
      <trkpt lat="42.56112" lon="1.98936">
        <ele>2100.54</ele>
        <time>2021-10-20T22:00:30Z</time>
      </trkpt>
      <trkpt lat="42.56102" lon="1.98952">
        <ele>2100.83</ele>
        <time>2021-10-20T22:00:30Z</time>
      </trkpt>
      <trkpt lat="42.56095" lon="1.98963">
        <ele>2100.66</ele>
        <time>2021-10-20T22:00:30Z</time>
      </trkpt>
      <trkpt lat="42.56091" lon="1.98975">
        <ele>2100.46</ele>
        <time>2021-10-20T22:00:30Z</time>
      </trkpt>
      <trkpt lat="42.56085" lon="1.98985">
        <ele>2099.87</ele>
        <time>2021-10-20T22:00:30Z</time>
      </trkpt>
      <trkpt lat="42.56077" lon="1.99002">
        <ele>2099.49</ele>
        <time>2021-10-20T22:00:30Z</time>
      </trkpt>
      <trkpt lat="42.56069" lon="1.99023">
        <ele>2099.18</ele>
        <time>2021-10-20T22:00:30Z</time>
      </trkpt>
      <trkpt lat="42.56059" lon="1.99041">
        <ele>2097.9</ele>
        <time>2021-10-20T22:00:30Z</time>
      </trkpt>
      <trkpt lat="42.5605" lon="1.99053">
        <ele>2096.27</ele>
        <time>2021-10-20T22:00:30Z</time>
      </trkpt>
      <trkpt lat="42.56042" lon="1.99061">
        <ele>2094.53</ele>
        <time>2021-10-20T22:00:30Z</time>
      </trkpt>
      <trkpt lat="42.5603" lon="1.99075">
        <ele>2091.88</ele>
        <time>2021-10-20T22:00:30Z</time>
      </trkpt>
      <trkpt lat="42.56021" lon="1.99106">
        <ele>2089.25</ele>
        <time>2021-10-20T22:00:30Z</time>
      </trkpt>
      <trkpt lat="42.56015" lon="1.99133">
        <ele>2086.84</ele>
        <time>2021-10-20T22:00:30Z</time>
      </trkpt>
      <trkpt lat="42.56009" lon="1.99157">
        <ele>2084.24</ele>
        <time>2021-10-20T22:00:30Z</time>
      </trkpt>
      <trkpt lat="42.56009" lon="1.99177">
        <ele>2083.33</ele>
        <time>2021-10-20T22:00:30Z</time>
      </trkpt>
      <trkpt lat="42.56004" lon="1.992">
        <ele>2080.71</ele>
        <time>2021-10-20T22:00:30Z</time>
      </trkpt>
      <trkpt lat="42.56012" lon="1.99226">
        <ele>2081.15</ele>
        <time>2021-10-20T22:00:30Z</time>
      </trkpt>
      <trkpt lat="42.56012" lon="1.99254">
        <ele>2079.11</ele>
        <time>2021-10-20T22:00:30Z</time>
      </trkpt>
      <trkpt lat="42.56015" lon="1.99276">
        <ele>2078.17</ele>
        <time>2021-10-20T22:00:30Z</time>
      </trkpt>
      <trkpt lat="42.56015" lon="1.99301">
        <ele>2075.88</ele>
        <time>2021-10-20T22:00:30Z</time>
      </trkpt>
      <trkpt lat="42.56015" lon="1.99319">
        <ele>2074.23</ele>
        <time>2021-10-20T22:00:30Z</time>
      </trkpt>
      <trkpt lat="42.56014" lon="1.99342">
        <ele>2071.12</ele>
        <time>2021-10-20T22:00:30Z</time>
      </trkpt>
      <trkpt lat="42.56014" lon="1.99359">
        <ele>2068.23</ele>
        <time>2021-10-20T22:00:30Z</time>
      </trkpt>
      <trkpt lat="42.56022" lon="1.99378">
        <ele>2067.36</ele>
        <time>2021-10-20T22:00:30Z</time>
      </trkpt>
      <trkpt lat="42.56031" lon="1.99399">
        <ele>2066.38</ele>
        <time>2021-10-20T22:00:30Z</time>
      </trkpt>
      <trkpt lat="42.56032" lon="1.99419">
        <ele>2062.97</ele>
        <time>2021-10-20T22:00:30Z</time>
      </trkpt>
      <trkpt lat="42.56028" lon="1.99441">
        <ele>2057.82</ele>
        <time>2021-10-20T22:00:30Z</time>
      </trkpt>
      <trkpt lat="42.56024" lon="1.9947">
        <ele>2051.57</ele>
        <time>2021-10-20T22:00:30Z</time>
      </trkpt>
      <trkpt lat="42.56024" lon="1.99493">
        <ele>2048.46</ele>
        <time>2021-10-20T22:00:30Z</time>
      </trkpt>
      <trkpt lat="42.56022" lon="1.99514">
        <ele>2045.27</ele>
        <time>2021-10-20T22:00:30Z</time>
      </trkpt>
      <trkpt lat="42.56016" lon="1.99538">
        <ele>2041.13</ele>
        <time>2021-10-20T22:00:30Z</time>
      </trkpt>
      <trkpt lat="42.5601" lon="1.99561">
        <ele>2038.05</ele>
        <time>2021-10-20T22:00:30Z</time>
      </trkpt>
      <trkpt lat="42.56006" lon="1.99581">
        <ele>2035.79</ele>
        <time>2021-10-20T22:00:30Z</time>
      </trkpt>
      <trkpt lat="42.56" lon="1.99607">
        <ele>2033.02</ele>
        <time>2021-10-20T22:00:30Z</time>
      </trkpt>
      <trkpt lat="42.55994" lon="1.9963">
        <ele>2031.39</ele>
        <time>2021-10-20T22:00:30Z</time>
      </trkpt>
      <trkpt lat="42.55984" lon="1.9965">
        <ele>2029.85</ele>
        <time>2021-10-20T22:00:30Z</time>
      </trkpt>
      <trkpt lat="42.55978" lon="1.99665">
        <ele>2028.94</ele>
        <time>2021-10-20T22:00:30Z</time>
      </trkpt>
      <trkpt lat="42.55975" lon="1.99679">
        <ele>2028.27</ele>
        <time>2021-10-20T22:00:30Z</time>
      </trkpt>
      <trkpt lat="42.55976" lon="1.99695">
        <ele>2027.58</ele>
        <time>2021-10-20T22:00:30Z</time>
      </trkpt>
      <trkpt lat="42.55982" lon="1.99717">
        <ele>2026.79</ele>
        <time>2021-10-20T22:00:30Z</time>
      </trkpt>
      <trkpt lat="42.55987" lon="1.99738">
        <ele>2025.95</ele>
        <time>2021-10-20T22:00:30Z</time>
      </trkpt>
      <trkpt lat="42.55985" lon="1.99756">
        <ele>2022.9</ele>
        <time>2021-10-20T22:00:30Z</time>
      </trkpt>
      <trkpt lat="42.55986" lon="1.9978">
        <ele>2017.02</ele>
        <time>2021-10-20T22:00:30Z</time>
      </trkpt>
      <trkpt lat="42.55983" lon="1.998">
        <ele>2012.13</ele>
        <time>2021-10-20T22:00:30Z</time>
      </trkpt>
      <trkpt lat="42.5598" lon="1.99827">
        <ele>2007.8</ele>
        <time>2021-10-20T22:00:30Z</time>
      </trkpt>
      <trkpt lat="42.55978" lon="1.99849">
        <ele>2006.18</ele>
        <time>2021-10-20T22:00:30Z</time>
      </trkpt>
      <trkpt lat="42.55974" lon="1.99869">
        <ele>2004.78</ele>
        <time>2021-10-20T22:00:30Z</time>
      </trkpt>
      <trkpt lat="42.55959" lon="1.99885">
        <ele>2004.28</ele>
        <time>2021-10-20T22:00:30Z</time>
      </trkpt>
      <trkpt lat="42.55946" lon="1.99896">
        <ele>2004.92</ele>
        <time>2021-10-20T22:00:30Z</time>
      </trkpt>
      <trkpt lat="42.55939" lon="1.99909">
        <ele>2005.41</ele>
        <time>2021-10-20T22:00:30Z</time>
      </trkpt>
      <trkpt lat="42.55925" lon="1.99925">
        <ele>2006.07</ele>
        <time>2021-10-20T22:00:30Z</time>
      </trkpt>
      <trkpt lat="42.55916" lon="1.99935">
        <ele>2006.43</ele>
        <time>2021-10-20T22:00:30Z</time>
      </trkpt>
      <trkpt lat="42.55899" lon="1.99948">
        <ele>2006.93</ele>
        <time>2021-10-20T22:00:30Z</time>
      </trkpt>
      <trkpt lat="42.55886" lon="1.99955">
        <ele>2006.91</ele>
        <time>2021-10-20T22:00:30Z</time>
      </trkpt>
      <trkpt lat="42.55871" lon="1.99965">
        <ele>2006.97</ele>
        <time>2021-10-20T22:00:30Z</time>
      </trkpt>
      <trkpt lat="42.55866" lon="1.99989">
        <ele>2007.6</ele>
        <time>2021-10-20T22:00:30Z</time>
      </trkpt>
      <trkpt lat="42.55852" lon="2.00005">
        <ele>2008.16</ele>
        <time>2021-10-20T22:00:30Z</time>
      </trkpt>
      <trkpt lat="42.55832" lon="2.00002">
        <ele>2008.2</ele>
        <time>2021-10-20T22:00:30Z</time>
      </trkpt>
      <trkpt lat="42.55821" lon="1.99998">
        <ele>2007.85</ele>
        <time>2021-10-20T22:00:30Z</time>
      </trkpt>
      <trkpt lat="42.5581" lon="1.99997">
        <ele>2007.54</ele>
        <time>2021-10-20T22:00:30Z</time>
      </trkpt>
      <trkpt lat="42.55794" lon="2.00012">
        <ele>2007.7</ele>
        <time>2021-10-20T22:00:30Z</time>
      </trkpt>
      <trkpt lat="42.55782" lon="2.00015">
        <ele>2007.47</ele>
        <time>2021-10-20T22:00:30Z</time>
      </trkpt>
      <trkpt lat="42.55762" lon="2.00023">
        <ele>2006.78</ele>
        <time>2021-10-20T22:00:30Z</time>
      </trkpt>
      <trkpt lat="42.55741" lon="2.00033">
        <ele>2004.61</ele>
        <time>2021-10-20T22:00:30Z</time>
      </trkpt>
      <trkpt lat="42.55725" lon="2.00042">
        <ele>2003</ele>
        <time>2021-10-20T22:00:30Z</time>
      </trkpt>
      <trkpt lat="42.55711" lon="2.00044">
        <ele>2002.06</ele>
        <time>2021-10-20T22:00:30Z</time>
      </trkpt>
      <trkpt lat="42.55699" lon="2.00048">
        <ele>2001.18</ele>
        <time>2021-10-20T22:00:30Z</time>
      </trkpt>
      <trkpt lat="42.55683" lon="2.00053">
        <ele>2000.05</ele>
        <time>2021-10-20T22:00:30Z</time>
      </trkpt>
      <trkpt lat="42.55667" lon="2.00056">
        <ele>1999.01</ele>
        <time>2021-10-20T22:00:30Z</time>
      </trkpt>
      <trkpt lat="42.55652" lon="2.00058">
        <ele>1998.09</ele>
        <time>2021-10-20T22:00:30Z</time>
      </trkpt>
      <trkpt lat="42.55638" lon="2.00065">
        <ele>1997.15</ele>
        <time>2021-10-20T22:00:30Z</time>
      </trkpt>
      <trkpt lat="42.55623" lon="2.00076">
        <ele>1996.19</ele>
        <time>2021-10-20T22:00:30Z</time>
      </trkpt>
      <trkpt lat="42.55607" lon="2.00082">
        <ele>1995.17</ele>
        <time>2021-10-20T22:00:30Z</time>
      </trkpt>
      <trkpt lat="42.55589" lon="2.00087">
        <ele>1994.05</ele>
        <time>2021-10-20T22:00:30Z</time>
      </trkpt>
      <trkpt lat="42.55572" lon="2.00092">
        <ele>1992.93</ele>
        <time>2021-10-20T22:00:30Z</time>
      </trkpt>
      <trkpt lat="42.55553" lon="2.00093">
        <ele>1991.85</ele>
        <time>2021-10-20T22:00:30Z</time>
      </trkpt>
      <trkpt lat="42.55536" lon="2.001">
        <ele>1990.6</ele>
        <time>2021-10-20T22:00:30Z</time>
      </trkpt>
      <trkpt lat="42.55525" lon="2.00104">
        <ele>1989.84</ele>
        <time>2021-10-20T22:00:30Z</time>
      </trkpt>
      <trkpt lat="42.55515" lon="2.0011">
        <ele>1989.19</ele>
        <time>2021-10-20T22:00:30Z</time>
      </trkpt>
      <trkpt lat="42.55499" lon="2.00124">
        <ele>1988.29</ele>
        <time>2021-10-20T22:00:30Z</time>
      </trkpt>
      <trkpt lat="42.55481" lon="2.00131">
        <ele>1987.6</ele>
        <time>2021-10-20T22:00:30Z</time>
      </trkpt>
      <trkpt lat="42.55471" lon="2.00132">
        <ele>1987.58</ele>
        <time>2021-10-20T22:00:30Z</time>
      </trkpt>
      <trkpt lat="42.55461" lon="2.00134">
        <ele>1987.55</ele>
        <time>2021-10-20T22:00:30Z</time>
      </trkpt>
      <trkpt lat="42.55446" lon="2.0014">
        <ele>1987.46</ele>
        <time>2021-10-20T22:00:30Z</time>
      </trkpt>
      <trkpt lat="42.5543" lon="2.0014">
        <ele>1987.35</ele>
        <time>2021-10-20T22:00:30Z</time>
      </trkpt>
      <trkpt lat="42.55412" lon="2.00145">
        <ele>1987.07</ele>
        <time>2021-10-20T22:00:30Z</time>
      </trkpt>
      <trkpt lat="42.55387" lon="2.00152">
        <ele>1986.54</ele>
        <time>2021-10-20T22:00:30Z</time>
      </trkpt>
      <trkpt lat="42.55366" lon="2.00156">
        <ele>1986.24</ele>
        <time>2021-10-20T22:00:30Z</time>
      </trkpt>
      <trkpt lat="42.55346" lon="2.00159">
        <ele>1985.99</ele>
        <time>2021-10-20T22:00:30Z</time>
      </trkpt>
      <trkpt lat="42.55325" lon="2.00165">
        <ele>1985.51</ele>
        <time>2021-10-20T22:00:30Z</time>
      </trkpt>
      <trkpt lat="42.55308" lon="2.00171">
        <ele>1985.11</ele>
        <time>2021-10-20T22:00:30Z</time>
      </trkpt>
      <trkpt lat="42.55294" lon="2.00177">
        <ele>1984.77</ele>
        <time>2021-10-20T22:00:30Z</time>
      </trkpt>
      <trkpt lat="42.55279" lon="2.00184">
        <ele>1984.38</ele>
        <time>2021-10-20T22:00:30Z</time>
      </trkpt>
      <trkpt lat="42.55265" lon="2.00193">
        <ele>1984.1</ele>
        <time>2021-10-20T22:00:30Z</time>
      </trkpt>
      <trkpt lat="42.55194" lon="2.00212">
        <ele>1982.36</ele>
        <time>2021-10-20T22:00:30Z</time>
      </trkpt>
      <trkpt lat="42.55181" lon="2.00213">
        <ele>1982.02</ele>
        <time>2021-10-20T22:00:30Z</time>
      </trkpt>
      <trkpt lat="42.55159" lon="2.00221">
        <ele>1981.47</ele>
        <time>2021-10-20T22:00:30Z</time>
      </trkpt>
      <trkpt lat="42.55136" lon="2.00226">
        <ele>1980.82</ele>
        <time>2021-10-20T22:00:30Z</time>
      </trkpt>
      <trkpt lat="42.55107" lon="2.0023">
        <ele>1980.13</ele>
        <time>2021-10-20T22:00:30Z</time>
      </trkpt>
      <trkpt lat="42.55095" lon="2.00233">
        <ele>1979.91</ele>
        <time>2021-10-20T22:00:30Z</time>
      </trkpt>
      <trkpt lat="42.55081" lon="2.00234">
        <ele>1979.56</ele>
        <time>2021-10-20T22:00:30Z</time>
      </trkpt>
      <trkpt lat="42.55059" lon="2.00238">
        <ele>1979.11</ele>
        <time>2021-10-20T22:00:30Z</time>
      </trkpt>
      <trkpt lat="42.55041" lon="2.00241">
        <ele>1978.71</ele>
        <time>2021-10-20T22:00:30Z</time>
      </trkpt>
      <trkpt lat="42.55017" lon="2.00246">
        <ele>1978.23</ele>
        <time>2021-10-20T22:00:30Z</time>
      </trkpt>
      <trkpt lat="42.55007" lon="2.00253">
        <ele>1978.25</ele>
        <time>2021-10-20T22:00:30Z</time>
      </trkpt>
      <trkpt lat="42.5499" lon="2.00259">
        <ele>1977.81</ele>
        <time>2021-10-20T22:00:30Z</time>
      </trkpt>
      <trkpt lat="42.54974" lon="2.00262">
        <ele>1977.21</ele>
        <time>2021-10-20T22:00:30Z</time>
      </trkpt>
      <trkpt lat="42.54953" lon="2.00265">
        <ele>1976.34</ele>
        <time>2021-10-20T22:00:30Z</time>
      </trkpt>
      <trkpt lat="42.5494" lon="2.00269">
        <ele>1975.81</ele>
        <time>2021-10-20T22:00:30Z</time>
      </trkpt>
      <trkpt lat="42.54918" lon="2.00276">
        <ele>1974.67</ele>
        <time>2021-10-20T22:00:30Z</time>
      </trkpt>
      <trkpt lat="42.54895" lon="2.00282">
        <ele>1973.42</ele>
        <time>2021-10-20T22:00:30Z</time>
      </trkpt>
      <trkpt lat="42.5487" lon="2.00286">
        <ele>1972.02</ele>
        <time>2021-10-20T22:00:30Z</time>
      </trkpt>
      <trkpt lat="42.5485" lon="2.00292">
        <ele>1970.96</ele>
        <time>2021-10-20T22:00:30Z</time>
      </trkpt>
      <trkpt lat="42.54831" lon="2.00297">
        <ele>1969.98</ele>
        <time>2021-10-20T22:00:30Z</time>
      </trkpt>
      <trkpt lat="42.54805" lon="2.00307">
        <ele>1968.75</ele>
        <time>2021-10-20T22:00:30Z</time>
      </trkpt>
      <trkpt lat="42.54788" lon="2.00317">
        <ele>1967.92</ele>
        <time>2021-10-20T22:00:30Z</time>
      </trkpt>
      <trkpt lat="42.54778" lon="2.00322">
        <ele>1967.34</ele>
        <time>2021-10-20T22:00:30Z</time>
      </trkpt>
      <trkpt lat="42.54768" lon="2.00328">
        <ele>1966.74</ele>
        <time>2021-10-20T22:00:30Z</time>
      </trkpt>
      <trkpt lat="42.54755" lon="2.00336">
        <ele>1965.88</ele>
        <time>2021-10-20T22:00:30Z</time>
      </trkpt>
      <trkpt lat="42.54746" lon="2.00342">
        <ele>1965.24</ele>
        <time>2021-10-20T22:00:30Z</time>
      </trkpt>
      <trkpt lat="42.54732" lon="2.0035">
        <ele>1964.15</ele>
        <time>2021-10-20T22:00:30Z</time>
      </trkpt>
      <trkpt lat="42.54716" lon="2.0036">
        <ele>1962.79</ele>
        <time>2021-10-20T22:00:30Z</time>
      </trkpt>
      <trkpt lat="42.54689" lon="2.00371">
        <ele>1960.76</ele>
        <time>2021-10-20T22:00:30Z</time>
      </trkpt>
      <trkpt lat="42.54649" lon="2.00399">
        <ele>1957.93</ele>
        <time>2021-10-20T22:00:30Z</time>
      </trkpt>
      <trkpt lat="42.54637" lon="2.00411">
        <ele>1956.97</ele>
        <time>2021-10-20T22:00:30Z</time>
      </trkpt>
      <trkpt lat="42.54625" lon="2.0042">
        <ele>1955.76</ele>
        <time>2021-10-20T22:00:30Z</time>
      </trkpt>
      <trkpt lat="42.54615" lon="2.00428">
        <ele>1954.61</ele>
        <time>2021-10-20T22:00:30Z</time>
      </trkpt>
      <trkpt lat="42.54597" lon="2.00451">
        <ele>1954.24</ele>
        <time>2021-10-20T22:00:30Z</time>
      </trkpt>
      <trkpt lat="42.54582" lon="2.00476">
        <ele>1954.56</ele>
        <time>2021-10-20T22:00:30Z</time>
      </trkpt>
      <trkpt lat="42.5456" lon="2.00518">
        <ele>1955.78</ele>
        <time>2021-10-20T22:00:30Z</time>
      </trkpt>
      <trkpt lat="42.54542" lon="2.00552">
        <ele>1957.37</ele>
        <time>2021-10-20T22:00:30Z</time>
      </trkpt>
      <trkpt lat="42.54534" lon="2.00565">
        <ele>1957.47</ele>
        <time>2021-10-20T22:00:30Z</time>
      </trkpt>
      <trkpt lat="42.545" lon="2.00615">
        <ele>1957.73</ele>
        <time>2021-10-20T22:00:30Z</time>
      </trkpt>
      <trkpt lat="42.54484" lon="2.00627">
        <ele>1957.12</ele>
        <time>2021-10-20T22:00:30Z</time>
      </trkpt>
      <trkpt lat="42.54471" lon="2.00626">
        <ele>1955.46</ele>
        <time>2021-10-20T22:00:30Z</time>
      </trkpt>
      <trkpt lat="42.54461" lon="2.00616">
        <ele>1953.12</ele>
        <time>2021-10-20T22:00:30Z</time>
      </trkpt>
      <trkpt lat="42.54451" lon="2.00602">
        <ele>1950.46</ele>
        <time>2021-10-20T22:00:30Z</time>
      </trkpt>
      <trkpt lat="42.54442" lon="2.00585">
        <ele>1947.71</ele>
        <time>2021-10-20T22:00:30Z</time>
      </trkpt>
      <trkpt lat="42.54422" lon="2.00576">
        <ele>1944.91</ele>
        <time>2021-10-20T22:00:30Z</time>
      </trkpt>
      <trkpt lat="42.5441" lon="2.00576">
        <ele>1943.88</ele>
        <time>2021-10-20T22:00:30Z</time>
      </trkpt>
      <trkpt lat="42.54398" lon="2.00573">
        <ele>1942.46</ele>
        <time>2021-10-20T22:00:30Z</time>
      </trkpt>
      <trkpt lat="42.54386" lon="2.00571">
        <ele>1941.18</ele>
        <time>2021-10-20T22:00:30Z</time>
      </trkpt>
      <trkpt lat="42.54372" lon="2.00569">
        <ele>1939.9</ele>
        <time>2021-10-20T22:00:30Z</time>
      </trkpt>
      <trkpt lat="42.54361" lon="2.00568">
        <ele>1939.01</ele>
        <time>2021-10-20T22:00:30Z</time>
      </trkpt>
      <trkpt lat="42.54333" lon="2.00556">
        <ele>1936.03</ele>
        <time>2021-10-20T22:00:30Z</time>
      </trkpt>
      <trkpt lat="42.54309" lon="2.00558">
        <ele>1935.41</ele>
        <time>2021-10-20T22:00:30Z</time>
      </trkpt>
      <trkpt lat="42.54303" lon="2.00574">
        <ele>1937.25</ele>
        <time>2021-10-20T22:00:30Z</time>
      </trkpt>
      <trkpt lat="42.54301" lon="2.00603">
        <ele>1942.17</ele>
        <time>2021-10-20T22:00:30Z</time>
      </trkpt>
      <trkpt lat="42.54302" lon="2.00618">
        <ele>1944.63</ele>
        <time>2021-10-20T22:00:30Z</time>
      </trkpt>
      <trkpt lat="42.54314" lon="2.00634">
        <ele>1946.63</ele>
        <time>2021-10-20T22:00:30Z</time>
      </trkpt>
      <trkpt lat="42.54315" lon="2.00659">
        <ele>1952.15</ele>
        <time>2021-10-20T22:00:30Z</time>
      </trkpt>
      <trkpt lat="42.54315" lon="2.00671">
        <ele>1954.97</ele>
        <time>2021-10-20T22:00:30Z</time>
      </trkpt>
      <trkpt lat="42.5431" lon="2.00693">
        <ele>1960.53</ele>
        <time>2021-10-20T22:00:30Z</time>
      </trkpt>
      <trkpt lat="42.54301" lon="2.00707">
        <ele>1964.65</ele>
        <time>2021-10-20T22:00:30Z</time>
      </trkpt>
      <trkpt lat="42.5429" lon="2.00726">
        <ele>1970.87</ele>
        <time>2021-10-20T22:00:30Z</time>
      </trkpt>
      <trkpt lat="42.54279" lon="2.00733">
        <ele>1973.77</ele>
        <time>2021-10-20T22:00:30Z</time>
      </trkpt>
      <trkpt lat="42.5427" lon="2.00745">
        <ele>1977.87</ele>
        <time>2021-10-20T22:00:30Z</time>
      </trkpt>
      <trkpt lat="42.5426" lon="2.00757">
        <ele>1982.07</ele>
        <time>2021-10-20T22:00:30Z</time>
      </trkpt>
      <trkpt lat="42.54253" lon="2.00769">
        <ele>1986</ele>
        <time>2021-10-20T22:00:30Z</time>
      </trkpt>
      <trkpt lat="42.54235" lon="2.00788">
        <ele>1994.78</ele>
        <time>2021-10-20T22:00:30Z</time>
      </trkpt>
      <trkpt lat="42.54224" lon="2.00803">
        <ele>2001.44</ele>
        <time>2021-10-20T22:00:30Z</time>
      </trkpt>
      <trkpt lat="42.54214" lon="2.00813">
        <ele>2006.53</ele>
        <time>2021-10-20T22:00:30Z</time>
      </trkpt>
      <trkpt lat="42.54205" lon="2.00821">
        <ele>2010.86</ele>
        <time>2021-10-20T22:00:30Z</time>
      </trkpt>
      <trkpt lat="42.54197" lon="2.00832">
        <ele>2015.85</ele>
        <time>2021-10-20T22:00:30Z</time>
      </trkpt>
      <trkpt lat="42.54188" lon="2.00841">
        <ele>2020.53</ele>
        <time>2021-10-20T22:00:30Z</time>
      </trkpt>
      <trkpt lat="42.54176" lon="2.00852">
        <ele>2025.32</ele>
        <time>2021-10-20T22:00:30Z</time>
      </trkpt>
      <trkpt lat="42.54163" lon="2.00862">
        <ele>2029.63</ele>
        <time>2021-10-20T22:00:30Z</time>
      </trkpt>
      <trkpt lat="42.54143" lon="2.00869">
        <ele>2034.97</ele>
        <time>2021-10-20T22:00:30Z</time>
      </trkpt>
      <trkpt lat="42.54129" lon="2.00876">
        <ele>2039.09</ele>
        <time>2021-10-20T22:00:30Z</time>
      </trkpt>
      <trkpt lat="42.5411" lon="2.00888">
        <ele>2045.21</ele>
        <time>2021-10-20T22:00:30Z</time>
      </trkpt>
      <trkpt lat="42.54097" lon="2.009">
        <ele>2050.15</ele>
        <time>2021-10-20T22:00:30Z</time>
      </trkpt>
      <trkpt lat="42.54086" lon="2.00924">
        <ele>2055.74</ele>
        <time>2021-10-20T22:00:30Z</time>
      </trkpt>
      <trkpt lat="42.54079" lon="2.00945">
        <ele>2059.1</ele>
        <time>2021-10-20T22:00:30Z</time>
      </trkpt>
      <trkpt lat="42.54074" lon="2.0096">
        <ele>2061.51</ele>
        <time>2021-10-20T22:00:30Z</time>
      </trkpt>
      <trkpt lat="42.54066" lon="2.00972">
        <ele>2064.3</ele>
        <time>2021-10-20T22:00:30Z</time>
      </trkpt>
      <trkpt lat="42.54058" lon="2.00989">
        <ele>2067.31</ele>
        <time>2021-10-20T22:00:30Z</time>
      </trkpt>
      <trkpt lat="42.54044" lon="2.01014">
        <ele>2071.82</ele>
        <time>2021-10-20T22:00:30Z</time>
      </trkpt>
      <trkpt lat="42.54029" lon="2.01038">
        <ele>2077.7</ele>
        <time>2021-10-20T22:00:30Z</time>
      </trkpt>
      <trkpt lat="42.54013" lon="2.01058">
        <ele>2083.83</ele>
        <time>2021-10-20T22:00:30Z</time>
      </trkpt>
      <trkpt lat="42.54002" lon="2.01073">
        <ele>2088.07</ele>
        <time>2021-10-20T22:00:30Z</time>
      </trkpt>
      <trkpt lat="42.53995" lon="2.01083">
        <ele>2090.79</ele>
        <time>2021-10-20T22:00:30Z</time>
      </trkpt>
      <trkpt lat="42.53989" lon="2.01093">
        <ele>2093.21</ele>
        <time>2021-10-20T22:00:30Z</time>
      </trkpt>
      <trkpt lat="42.53981" lon="2.01102">
        <ele>2096.18</ele>
        <time>2021-10-20T22:00:30Z</time>
      </trkpt>
      <trkpt lat="42.53973" lon="2.01111">
        <ele>2099.26</ele>
        <time>2021-10-20T22:00:30Z</time>
      </trkpt>
      <trkpt lat="42.53965" lon="2.01118">
        <ele>2102.58</ele>
        <time>2021-10-20T22:00:30Z</time>
      </trkpt>
      <trkpt lat="42.53948" lon="2.01127">
        <ele>2109.17</ele>
        <time>2021-10-20T22:00:30Z</time>
      </trkpt>
      <trkpt lat="42.53931" lon="2.01134">
        <ele>2115.67</ele>
        <time>2021-10-20T22:00:30Z</time>
      </trkpt>
      <trkpt lat="42.5392" lon="2.01138">
        <ele>2119.85</ele>
        <time>2021-10-20T22:00:30Z</time>
      </trkpt>
      <trkpt lat="42.53901" lon="2.01144">
        <ele>2126.37</ele>
        <time>2021-10-20T22:00:30Z</time>
      </trkpt>
      <trkpt lat="42.53863" lon="2.01149">
        <ele>2135.69</ele>
        <time>2021-10-20T22:00:30Z</time>
      </trkpt>
      <trkpt lat="42.53854" lon="2.01152">
        <ele>2138.01</ele>
        <time>2021-10-20T22:00:30Z</time>
      </trkpt>
      <trkpt lat="42.53841" lon="2.01161">
        <ele>2141.65</ele>
        <time>2021-10-20T22:00:30Z</time>
      </trkpt>
      <trkpt lat="42.53828" lon="2.01165">
        <ele>2144.57</ele>
        <time>2021-10-20T22:00:30Z</time>
      </trkpt>
      <trkpt lat="42.53805" lon="2.01181">
        <ele>2149.85</ele>
        <time>2021-10-20T22:00:30Z</time>
      </trkpt>
      <trkpt lat="42.53788" lon="2.01193">
        <ele>2153.88</ele>
        <time>2021-10-20T22:00:30Z</time>
      </trkpt>
      <trkpt lat="42.53743" lon="2.01225">
        <ele>2166.14</ele>
        <time>2021-10-20T22:00:30Z</time>
      </trkpt>
      <trkpt lat="42.53734" lon="2.01231">
        <ele>2168.65</ele>
        <time>2021-10-20T22:00:30Z</time>
      </trkpt>
      <trkpt lat="42.53725" lon="2.01234">
        <ele>2170.89</ele>
        <time>2021-10-20T22:00:30Z</time>
      </trkpt>
      <trkpt lat="42.53712" lon="2.01243">
        <ele>2174.47</ele>
        <time>2021-10-20T22:00:30Z</time>
      </trkpt>
      <trkpt lat="42.53701" lon="2.01247">
        <ele>2177.2</ele>
        <time>2021-10-20T22:00:30Z</time>
      </trkpt>
      <trkpt lat="42.53683" lon="2.01259">
        <ele>2181.47</ele>
        <time>2021-10-20T22:00:30Z</time>
      </trkpt>
      <trkpt lat="42.53674" lon="2.01266">
        <ele>2183.54</ele>
        <time>2021-10-20T22:00:30Z</time>
      </trkpt>
      <trkpt lat="42.53663" lon="2.01269">
        <ele>2185.7</ele>
        <time>2021-10-20T22:00:30Z</time>
      </trkpt>
      <trkpt lat="42.53654" lon="2.01276">
        <ele>2187.63</ele>
        <time>2021-10-20T22:00:30Z</time>
      </trkpt>
      <trkpt lat="42.53636" lon="2.01287">
        <ele>2191.16</ele>
        <time>2021-10-20T22:00:30Z</time>
      </trkpt>
      <trkpt lat="42.53619" lon="2.01297">
        <ele>2193.78</ele>
        <time>2021-10-20T22:00:30Z</time>
      </trkpt>
      <trkpt lat="42.53613" lon="2.01306">
        <ele>2194.65</ele>
        <time>2021-10-20T22:00:30Z</time>
      </trkpt>
      <trkpt lat="42.53601" lon="2.01311">
        <ele>2196.08</ele>
        <time>2021-10-20T22:00:30Z</time>
      </trkpt>
      <trkpt lat="42.53592" lon="2.01311">
        <ele>2197.1</ele>
        <time>2021-10-20T22:00:30Z</time>
      </trkpt>
      <trkpt lat="42.53583" lon="2.0131">
        <ele>2198.13</ele>
        <time>2021-10-20T22:00:30Z</time>
      </trkpt>
      <trkpt lat="42.53574" lon="2.01308">
        <ele>2199.2</ele>
        <time>2021-10-20T22:00:30Z</time>
      </trkpt>
      <trkpt lat="42.53565" lon="2.01303">
        <ele>2200.38</ele>
        <time>2021-10-20T22:00:30Z</time>
      </trkpt>
      <trkpt lat="42.53555" lon="2.013">
        <ele>2201.33</ele>
        <time>2021-10-20T22:00:30Z</time>
      </trkpt>
      <trkpt lat="42.5354" lon="2.01298">
        <ele>2202.57</ele>
        <time>2021-10-20T22:00:30Z</time>
      </trkpt>
      <trkpt lat="42.53527" lon="2.01299">
        <ele>2203.55</ele>
        <time>2021-10-20T22:00:30Z</time>
      </trkpt>
      <trkpt lat="42.53518" lon="2.01303">
        <ele>2204.1</ele>
        <time>2021-10-20T22:00:30Z</time>
      </trkpt>
      <trkpt lat="42.53506" lon="2.01318">
        <ele>2204.41</ele>
        <time>2021-10-20T22:00:30Z</time>
      </trkpt>
      <trkpt lat="42.53499" lon="2.01333">
        <ele>2204.56</ele>
        <time>2021-10-20T22:00:30Z</time>
      </trkpt>
      <trkpt lat="42.53495" lon="2.01347">
        <ele>2204.63</ele>
        <time>2021-10-20T22:00:30Z</time>
      </trkpt>
      <trkpt lat="42.53491" lon="2.01363">
        <ele>2204.11</ele>
        <time>2021-10-20T22:00:30Z</time>
      </trkpt>
      <trkpt lat="42.5348" lon="2.014">
        <ele>2202.79</ele>
        <time>2021-10-20T22:00:30Z</time>
      </trkpt>
      <trkpt lat="42.53474" lon="2.01411">
        <ele>2202.26</ele>
        <time>2021-10-20T22:00:30Z</time>
      </trkpt>
      <trkpt lat="42.53465" lon="2.01431">
        <ele>2201.29</ele>
        <time>2021-10-20T22:00:30Z</time>
      </trkpt>
      <trkpt lat="42.53459" lon="2.0144">
        <ele>2200.55</ele>
        <time>2021-10-20T22:00:30Z</time>
      </trkpt>
      <trkpt lat="42.5345" lon="2.01454">
        <ele>2199.3</ele>
        <time>2021-10-20T22:00:30Z</time>
      </trkpt>
      <trkpt lat="42.53437" lon="2.01467">
        <ele>2197.33</ele>
        <time>2021-10-20T22:00:30Z</time>
      </trkpt>
      <trkpt lat="42.53429" lon="2.01472">
        <ele>2196.04</ele>
        <time>2021-10-20T22:00:30Z</time>
      </trkpt>
      <trkpt lat="42.53406" lon="2.01481">
        <ele>2188.64</ele>
        <time>2021-10-20T22:00:30Z</time>
      </trkpt>
      <trkpt lat="42.53389" lon="2.01482">
        <ele>2182.92</ele>
        <time>2021-10-20T22:00:30Z</time>
      </trkpt>
      <trkpt lat="42.53375" lon="2.01483">
        <ele>2178.18</ele>
        <time>2021-10-20T22:00:30Z</time>
      </trkpt>
      <trkpt lat="42.53365" lon="2.01483">
        <ele>2174.84</ele>
        <time>2021-10-20T22:00:30Z</time>
      </trkpt>
      <trkpt lat="42.53354" lon="2.01483">
        <ele>2171.19</ele>
        <time>2021-10-20T22:00:30Z</time>
      </trkpt>
      <trkpt lat="42.53332" lon="2.01483">
        <ele>2164.05</ele>
        <time>2021-10-20T22:00:30Z</time>
      </trkpt>
      <trkpt lat="42.53318" lon="2.01484">
        <ele>2159.4</ele>
        <time>2021-10-20T22:00:30Z</time>
      </trkpt>
      <trkpt lat="42.53307" lon="2.01487">
        <ele>2155.53</ele>
        <time>2021-10-20T22:00:30Z</time>
      </trkpt>
      <trkpt lat="42.53298" lon="2.01492">
        <ele>2152.1</ele>
        <time>2021-10-20T22:00:30Z</time>
      </trkpt>
      <trkpt lat="42.53289" lon="2.01496">
        <ele>2148.75</ele>
        <time>2021-10-20T22:00:30Z</time>
      </trkpt>
      <trkpt lat="42.53278" lon="2.01504">
        <ele>2145.15</ele>
        <time>2021-10-20T22:00:30Z</time>
      </trkpt>
      <trkpt lat="42.53266" lon="2.01514">
        <ele>2141.16</ele>
        <time>2021-10-20T22:00:30Z</time>
      </trkpt>
      <trkpt lat="42.53258" lon="2.01521">
        <ele>2138.47</ele>
        <time>2021-10-20T22:00:30Z</time>
      </trkpt>
      <trkpt lat="42.53249" lon="2.01528">
        <ele>2135.53</ele>
        <time>2021-10-20T22:00:30Z</time>
      </trkpt>
      <trkpt lat="42.53236" lon="2.01557">
        <ele>2127.81</ele>
        <time>2021-10-20T22:00:30Z</time>
      </trkpt>
      <trkpt lat="42.5323" lon="2.0157">
        <ele>2124.24</ele>
        <time>2021-10-20T22:00:30Z</time>
      </trkpt>
      <trkpt lat="42.53225" lon="2.01582">
        <ele>2121.08</ele>
        <time>2021-10-20T22:00:30Z</time>
      </trkpt>
      <trkpt lat="42.53217" lon="2.01595">
        <ele>2117.2</ele>
        <time>2021-10-20T22:00:30Z</time>
      </trkpt>
      <trkpt lat="42.5321" lon="2.01611">
        <ele>2112.92</ele>
        <time>2021-10-20T22:00:30Z</time>
      </trkpt>
      <trkpt lat="42.53205" lon="2.01621">
        <ele>2110.05</ele>
        <time>2021-10-20T22:00:30Z</time>
      </trkpt>
      <trkpt lat="42.53198" lon="2.01634">
        <ele>2106.27</ele>
        <time>2021-10-20T22:00:30Z</time>
      </trkpt>
      <trkpt lat="42.53195" lon="2.01647">
        <ele>2103.19</ele>
        <time>2021-10-20T22:00:30Z</time>
      </trkpt>
      <trkpt lat="42.53184" lon="2.01665">
        <ele>2097.84</ele>
        <time>2021-10-20T22:00:30Z</time>
      </trkpt>
      <trkpt lat="42.53178" lon="2.01676">
        <ele>2095.09</ele>
        <time>2021-10-20T22:00:30Z</time>
      </trkpt>
      <trkpt lat="42.53172" lon="2.01693">
        <ele>2091.59</ele>
        <time>2021-10-20T22:00:30Z</time>
      </trkpt>
      <trkpt lat="42.53167" lon="2.01706">
        <ele>2088.88</ele>
        <time>2021-10-20T22:00:30Z</time>
      </trkpt>
      <trkpt lat="42.53161" lon="2.0172">
        <ele>2085.9</ele>
        <time>2021-10-20T22:00:30Z</time>
      </trkpt>
      <trkpt lat="42.53153" lon="2.01733">
        <ele>2082.8</ele>
        <time>2021-10-20T22:00:30Z</time>
      </trkpt>
      <trkpt lat="42.53147" lon="2.01748">
        <ele>2080.65</ele>
        <time>2021-10-20T22:00:30Z</time>
      </trkpt>
      <trkpt lat="42.53138" lon="2.01761">
        <ele>2078.58</ele>
        <time>2021-10-20T22:00:30Z</time>
      </trkpt>
      <trkpt lat="42.53133" lon="2.01771">
        <ele>2077.26</ele>
        <time>2021-10-20T22:00:30Z</time>
      </trkpt>
      <trkpt lat="42.53124" lon="2.01782">
        <ele>2075.41</ele>
        <time>2021-10-20T22:00:30Z</time>
      </trkpt>
      <trkpt lat="42.53116" lon="2.01794">
        <ele>2073.66</ele>
        <time>2021-10-20T22:00:30Z</time>
      </trkpt>
      <trkpt lat="42.53106" lon="2.01805">
        <ele>2071.77</ele>
        <time>2021-10-20T22:00:30Z</time>
      </trkpt>
      <trkpt lat="42.53099" lon="2.01814">
        <ele>2070.46</ele>
        <time>2021-10-20T22:00:30Z</time>
      </trkpt>
      <trkpt lat="42.53085" lon="2.01826">
        <ele>2068.11</ele>
        <time>2021-10-20T22:00:30Z</time>
      </trkpt>
      <trkpt lat="42.53076" lon="2.01834">
        <ele>2066.44</ele>
        <time>2021-10-20T22:00:30Z</time>
      </trkpt>
      <trkpt lat="42.53069" lon="2.01842">
        <ele>2065.02</ele>
        <time>2021-10-20T22:00:30Z</time>
      </trkpt>
      <trkpt lat="42.53061" lon="2.01851">
        <ele>2063.44</ele>
        <time>2021-10-20T22:00:30Z</time>
      </trkpt>
      <trkpt lat="42.5305" lon="2.01864">
        <ele>2061.27</ele>
        <time>2021-10-20T22:00:30Z</time>
      </trkpt>
      <trkpt lat="42.53039" lon="2.01876">
        <ele>2059.27</ele>
        <time>2021-10-20T22:00:30Z</time>
      </trkpt>
      <trkpt lat="42.53029" lon="2.01887">
        <ele>2057.74</ele>
        <time>2021-10-20T22:00:30Z</time>
      </trkpt>
      <trkpt lat="42.53019" lon="2.01899">
        <ele>2056.28</ele>
        <time>2021-10-20T22:00:30Z</time>
      </trkpt>
      <trkpt lat="42.53011" lon="2.0191">
        <ele>2055.28</ele>
        <time>2021-10-20T22:00:30Z</time>
      </trkpt>
      <trkpt lat="42.52998" lon="2.01925">
        <ele>2054.12</ele>
        <time>2021-10-20T22:00:30Z</time>
      </trkpt>
      <trkpt lat="42.52987" lon="2.01935">
        <ele>2053.17</ele>
        <time>2021-10-20T22:00:30Z</time>
      </trkpt>
      <trkpt lat="42.52975" lon="2.01937">
        <ele>2052.27</ele>
        <time>2021-10-20T22:00:30Z</time>
      </trkpt>
      <trkpt lat="42.5296" lon="2.01938">
        <ele>2051.16</ele>
        <time>2021-10-20T22:00:30Z</time>
      </trkpt>
      <trkpt lat="42.52953" lon="2.01924">
        <ele>2050.85</ele>
        <time>2021-10-20T22:00:30Z</time>
      </trkpt>
      <trkpt lat="42.5294" lon="2.01902">
        <ele>2050.4</ele>
        <time>2021-10-20T22:00:30Z</time>
      </trkpt>
      <trkpt lat="42.52931" lon="2.01894">
        <ele>2050.16</ele>
        <time>2021-10-20T22:00:30Z</time>
      </trkpt>
      <trkpt lat="42.52919" lon="2.01889">
        <ele>2049.73</ele>
        <time>2021-10-20T22:00:30Z</time>
      </trkpt>
      <trkpt lat="42.52908" lon="2.01882">
        <ele>2049.33</ele>
        <time>2021-10-20T22:00:30Z</time>
      </trkpt>
      <trkpt lat="42.52896" lon="2.01879">
        <ele>2048.84</ele>
        <time>2021-10-20T22:00:30Z</time>
      </trkpt>
      <trkpt lat="42.52878" lon="2.01879">
        <ele>2048.07</ele>
        <time>2021-10-20T22:00:30Z</time>
      </trkpt>
      <trkpt lat="42.52868" lon="2.01879">
        <ele>2047.88</ele>
        <time>2021-10-20T22:00:30Z</time>
      </trkpt>
      <trkpt lat="42.52856" lon="2.01879">
        <ele>2047.7</ele>
        <time>2021-10-20T22:00:30Z</time>
      </trkpt>
      <trkpt lat="42.5284" lon="2.01877">
        <ele>2047.47</ele>
        <time>2021-10-20T22:00:30Z</time>
      </trkpt>
      <trkpt lat="42.5283" lon="2.01877">
        <ele>2047.33</ele>
        <time>2021-10-20T22:00:30Z</time>
      </trkpt>
      <trkpt lat="42.52818" lon="2.01873">
        <ele>2047.13</ele>
        <time>2021-10-20T22:00:30Z</time>
      </trkpt>
      <trkpt lat="42.52807" lon="2.01867">
        <ele>2046.82</ele>
        <time>2021-10-20T22:00:30Z</time>
      </trkpt>
      <trkpt lat="42.52794" lon="2.01867">
        <ele>2047.22</ele>
        <time>2021-10-20T22:00:30Z</time>
      </trkpt>
      <trkpt lat="42.52777" lon="2.01873">
        <ele>2047.87</ele>
        <time>2021-10-20T22:00:30Z</time>
      </trkpt>
      <trkpt lat="42.5277" lon="2.01881">
        <ele>2048.04</ele>
        <time>2021-10-20T22:00:30Z</time>
      </trkpt>
      <trkpt lat="42.52757" lon="2.01912">
        <ele>2048.06</ele>
        <time>2021-10-20T22:00:30Z</time>
      </trkpt>
      <trkpt lat="42.52741" lon="2.01927">
        <ele>2048.19</ele>
        <time>2021-10-20T22:00:30Z</time>
      </trkpt>
      <trkpt lat="42.52731" lon="2.01935">
        <ele>2048.37</ele>
        <time>2021-10-20T22:00:30Z</time>
      </trkpt>
      <trkpt lat="42.52722" lon="2.01941">
        <ele>2048.53</ele>
        <time>2021-10-20T22:00:30Z</time>
      </trkpt>
      <trkpt lat="42.52713" lon="2.01953">
        <ele>2048.22</ele>
        <time>2021-10-20T22:00:30Z</time>
      </trkpt>
      <trkpt lat="42.52681" lon="2.01979">
        <ele>2046.83</ele>
        <time>2021-10-20T22:00:30Z</time>
      </trkpt>
      <trkpt lat="42.52673" lon="2.02008">
        <ele>2044.34</ele>
        <time>2021-10-20T22:00:30Z</time>
      </trkpt>
      <trkpt lat="42.52669" lon="2.02026">
        <ele>2043.4</ele>
        <time>2021-10-20T22:00:30Z</time>
      </trkpt>
      <trkpt lat="42.52661" lon="2.02037">
        <ele>2043.17</ele>
        <time>2021-10-20T22:00:30Z</time>
      </trkpt>
      <trkpt lat="42.5265" lon="2.02057">
        <ele>2042.49</ele>
        <time>2021-10-20T22:00:30Z</time>
      </trkpt>
      <trkpt lat="42.52642" lon="2.02068">
        <ele>2042.07</ele>
        <time>2021-10-20T22:00:30Z</time>
      </trkpt>
      <trkpt lat="42.52627" lon="2.02083">
        <ele>2041.45</ele>
        <time>2021-10-20T22:00:30Z</time>
      </trkpt>
      <trkpt lat="42.5262" lon="2.02094">
        <ele>2040.86</ele>
        <time>2021-10-20T22:00:30Z</time>
      </trkpt>
      <trkpt lat="42.52608" lon="2.02105">
        <ele>2040.17</ele>
        <time>2021-10-20T22:00:30Z</time>
      </trkpt>
      <trkpt lat="42.52586" lon="2.02127">
        <ele>2038.79</ele>
        <time>2021-10-20T22:00:30Z</time>
      </trkpt>
      <trkpt lat="42.52553" lon="2.02158">
        <ele>2037.09</ele>
        <time>2021-10-20T22:00:30Z</time>
      </trkpt>
      <trkpt lat="42.52539" lon="2.0217">
        <ele>2036.4</ele>
        <time>2021-10-20T22:00:30Z</time>
      </trkpt>
      <trkpt lat="42.52527" lon="2.02174">
        <ele>2035.88</ele>
        <time>2021-10-20T22:00:30Z</time>
      </trkpt>
      <trkpt lat="42.52515" lon="2.02181">
        <ele>2034.84</ele>
        <time>2021-10-20T22:00:30Z</time>
      </trkpt>
      <trkpt lat="42.52505" lon="2.02188">
        <ele>2033.9</ele>
        <time>2021-10-20T22:00:30Z</time>
      </trkpt>
      <trkpt lat="42.52498" lon="2.02209">
        <ele>2032.06</ele>
        <time>2021-10-20T22:00:30Z</time>
      </trkpt>
      <trkpt lat="42.52494" lon="2.02221">
        <ele>2031.24</ele>
        <time>2021-10-20T22:00:30Z</time>
      </trkpt>
      <trkpt lat="42.52483" lon="2.02245">
        <ele>2030.41</ele>
        <time>2021-10-20T22:00:30Z</time>
      </trkpt>
      <trkpt lat="42.52475" lon="2.02268">
        <ele>2029.73</ele>
        <time>2021-10-20T22:00:30Z</time>
      </trkpt>
      <trkpt lat="42.52421" lon="2.02331">
        <ele>2025.7</ele>
        <time>2021-10-20T22:00:30Z</time>
      </trkpt>
      <trkpt lat="42.52406" lon="2.02341">
        <ele>2024.15</ele>
        <time>2021-10-20T22:00:30Z</time>
      </trkpt>
      <trkpt lat="42.52383" lon="2.02352">
        <ele>2021.71</ele>
        <time>2021-10-20T22:00:30Z</time>
      </trkpt>
      <trkpt lat="42.52356" lon="2.02361">
        <ele>2019.25</ele>
        <time>2021-10-20T22:00:30Z</time>
      </trkpt>
      <trkpt lat="42.52339" lon="2.02367">
        <ele>2017.78</ele>
        <time>2021-10-20T22:00:30Z</time>
      </trkpt>
      <trkpt lat="42.52328" lon="2.02368">
        <ele>2016.7</ele>
        <time>2021-10-20T22:00:30Z</time>
      </trkpt>
      <trkpt lat="42.52286" lon="2.02359">
        <ele>2012.7</ele>
        <time>2021-10-20T22:00:30Z</time>
      </trkpt>
      <trkpt lat="42.52276" lon="2.02351">
        <ele>2011.42</ele>
        <time>2021-10-20T22:00:30Z</time>
      </trkpt>
      <trkpt lat="42.5226" lon="2.02309">
        <ele>2008.2</ele>
        <time>2021-10-20T22:00:30Z</time>
      </trkpt>
      <trkpt lat="42.52261" lon="2.0229">
        <ele>2007.49</ele>
        <time>2021-10-20T22:00:30Z</time>
      </trkpt>
      <trkpt lat="42.52262" lon="2.02274">
        <ele>2007.12</ele>
        <time>2021-10-20T22:00:30Z</time>
      </trkpt>
      <trkpt lat="42.52259" lon="2.02249">
        <ele>2006.03</ele>
        <time>2021-10-20T22:00:30Z</time>
      </trkpt>
      <trkpt lat="42.52257" lon="2.02224">
        <ele>2005.24</ele>
        <time>2021-10-20T22:00:30Z</time>
      </trkpt>
      <trkpt lat="42.52256" lon="2.02205">
        <ele>2004.87</ele>
        <time>2021-10-20T22:00:30Z</time>
      </trkpt>
      <trkpt lat="42.52246" lon="2.02173">
        <ele>2004.26</ele>
        <time>2021-10-20T22:00:30Z</time>
      </trkpt>
      <trkpt lat="42.52242" lon="2.02161">
        <ele>2003.88</ele>
        <time>2021-10-20T22:00:30Z</time>
      </trkpt>
      <trkpt lat="42.5221" lon="2.02102">
        <ele>1999.26</ele>
        <time>2021-10-20T22:00:30Z</time>
      </trkpt>
      <trkpt lat="42.52195" lon="2.02073">
        <ele>1995.53</ele>
        <time>2021-10-20T22:00:30Z</time>
      </trkpt>
      <trkpt lat="42.52168" lon="2.02056">
        <ele>1992.28</ele>
        <time>2021-10-20T22:00:30Z</time>
      </trkpt>
      <trkpt lat="42.52158" lon="2.02035">
        <ele>1989.75</ele>
        <time>2021-10-20T22:00:30Z</time>
      </trkpt>
      <trkpt lat="42.52135" lon="2.02016">
        <ele>1984.79</ele>
        <time>2021-10-20T22:00:30Z</time>
      </trkpt>
      <trkpt lat="42.52124" lon="2.02005">
        <ele>1982.23</ele>
        <time>2021-10-20T22:00:30Z</time>
      </trkpt>
      <trkpt lat="42.52115" lon="2.02002">
        <ele>1980.76</ele>
        <time>2021-10-20T22:00:30Z</time>
      </trkpt>
      <trkpt lat="42.52104" lon="2.02">
        <ele>1979.09</ele>
        <time>2021-10-20T22:00:30Z</time>
      </trkpt>
      <trkpt lat="42.52094" lon="2.01997">
        <ele>1977.44</ele>
        <time>2021-10-20T22:00:30Z</time>
      </trkpt>
      <trkpt lat="42.5208" lon="2.01993">
        <ele>1975.05</ele>
        <time>2021-10-20T22:00:30Z</time>
      </trkpt>
      <trkpt lat="42.52064" lon="2.01979">
        <ele>1971.19</ele>
        <time>2021-10-20T22:00:30Z</time>
      </trkpt>
      <trkpt lat="42.52044" lon="2.01966">
        <ele>1966.58</ele>
        <time>2021-10-20T22:00:30Z</time>
      </trkpt>
      <trkpt lat="42.52026" lon="2.0196">
        <ele>1963.22</ele>
        <time>2021-10-20T22:00:30Z</time>
      </trkpt>
      <trkpt lat="42.52011" lon="2.01958">
        <ele>1960.74</ele>
        <time>2021-10-20T22:00:30Z</time>
      </trkpt>
      <trkpt lat="42.52002" lon="2.01955">
        <ele>1958.94</ele>
        <time>2021-10-20T22:00:30Z</time>
      </trkpt>
      <trkpt lat="42.51992" lon="2.01954">
        <ele>1957.28</ele>
        <time>2021-10-20T22:00:30Z</time>
      </trkpt>
      <trkpt lat="42.51982" lon="2.01952">
        <ele>1955.48</ele>
        <time>2021-10-20T22:00:30Z</time>
      </trkpt>
      <trkpt lat="42.51966" lon="2.01967">
        <ele>1956.24</ele>
        <time>2021-10-20T22:00:30Z</time>
      </trkpt>
      <trkpt lat="42.51956" lon="2.01986">
        <ele>1958.39</ele>
        <time>2021-10-20T22:00:30Z</time>
      </trkpt>
      <trkpt lat="42.51946" lon="2.02005">
        <ele>1960.55</ele>
        <time>2021-10-20T22:00:30Z</time>
      </trkpt>
      <trkpt lat="42.51941" lon="2.02015">
        <ele>1961.65</ele>
        <time>2021-10-20T22:00:30Z</time>
      </trkpt>
      <trkpt lat="42.51931" lon="2.02035">
        <ele>1963.4</ele>
        <time>2021-10-20T22:00:30Z</time>
      </trkpt>
      <trkpt lat="42.51924" lon="2.02044">
        <ele>1963.68</ele>
        <time>2021-10-20T22:00:30Z</time>
      </trkpt>
      <trkpt lat="42.51899" lon="2.02078">
        <ele>1962.59</ele>
        <time>2021-10-20T22:00:30Z</time>
      </trkpt>
      <trkpt lat="42.51891" lon="2.02086">
        <ele>1961.35</ele>
        <time>2021-10-20T22:00:30Z</time>
      </trkpt>
      <trkpt lat="42.51881" lon="2.02099">
        <ele>1960.05</ele>
        <time>2021-10-20T22:00:30Z</time>
      </trkpt>
      <trkpt lat="42.51875" lon="2.02108">
        <ele>1959.4</ele>
        <time>2021-10-20T22:00:30Z</time>
      </trkpt>
      <trkpt lat="42.51868" lon="2.02137">
        <ele>1960.52</ele>
        <time>2021-10-20T22:00:30Z</time>
      </trkpt>
      <trkpt lat="42.51863" lon="2.02152">
        <ele>1960.7</ele>
        <time>2021-10-20T22:00:30Z</time>
      </trkpt>
      <trkpt lat="42.51857" lon="2.02181">
        <ele>1961.72</ele>
        <time>2021-10-20T22:00:30Z</time>
      </trkpt>
      <trkpt lat="42.51855" lon="2.02198">
        <ele>1962.7</ele>
        <time>2021-10-20T22:00:30Z</time>
      </trkpt>
      <trkpt lat="42.5185" lon="2.02221">
        <ele>1963.25</ele>
        <time>2021-10-20T22:00:30Z</time>
      </trkpt>
      <trkpt lat="42.51847" lon="2.02233">
        <ele>1963.12</ele>
        <time>2021-10-20T22:00:30Z</time>
      </trkpt>
      <trkpt lat="42.51839" lon="2.02255">
        <ele>1962.24</ele>
        <time>2021-10-20T22:00:30Z</time>
      </trkpt>
      <trkpt lat="42.51837" lon="2.02271">
        <ele>1962.67</ele>
        <time>2021-10-20T22:00:30Z</time>
      </trkpt>
      <trkpt lat="42.51833" lon="2.02288">
        <ele>1962.56</ele>
        <time>2021-10-20T22:00:30Z</time>
      </trkpt>
      <trkpt lat="42.51829" lon="2.02303">
        <ele>1961.84</ele>
        <time>2021-10-20T22:00:30Z</time>
      </trkpt>
      <trkpt lat="42.51828" lon="2.02325">
        <ele>1962.08</ele>
        <time>2021-10-20T22:00:30Z</time>
      </trkpt>
      <trkpt lat="42.51825" lon="2.0234">
        <ele>1961.69</ele>
        <time>2021-10-20T22:00:30Z</time>
      </trkpt>
      <trkpt lat="42.51824" lon="2.02361">
        <ele>1961.83</ele>
        <time>2021-10-20T22:00:30Z</time>
      </trkpt>
      <trkpt lat="42.5182" lon="2.02389">
        <ele>1961.06</ele>
        <time>2021-10-20T22:00:30Z</time>
      </trkpt>
      <trkpt lat="42.51818" lon="2.02409">
        <ele>1960.73</ele>
        <time>2021-10-20T22:00:30Z</time>
      </trkpt>
      <trkpt lat="42.51813" lon="2.02441">
        <ele>1959.31</ele>
        <time>2021-10-20T22:00:30Z</time>
      </trkpt>
      <trkpt lat="42.5182" lon="2.02454">
        <ele>1960.31</ele>
        <time>2021-10-20T22:00:30Z</time>
      </trkpt>
      <trkpt lat="42.51825" lon="2.02482">
        <ele>1960.24</ele>
        <time>2021-10-20T22:00:30Z</time>
      </trkpt>
      <trkpt lat="42.51809" lon="2.02494">
        <ele>1957.46</ele>
        <time>2021-10-20T22:00:30Z</time>
      </trkpt>
      <trkpt lat="42.51793" lon="2.02513">
        <ele>1954.58</ele>
        <time>2021-10-20T22:00:30Z</time>
      </trkpt>
      <trkpt lat="42.51754" lon="2.02526">
        <ele>1949.74</ele>
        <time>2021-10-20T22:00:30Z</time>
      </trkpt>
      <trkpt lat="42.51734" lon="2.02526">
        <ele>1947.41</ele>
        <time>2021-10-20T22:00:30Z</time>
      </trkpt>
      <trkpt lat="42.51716" lon="2.02531">
        <ele>1945.5</ele>
        <time>2021-10-20T22:00:30Z</time>
      </trkpt>
      <trkpt lat="42.51707" lon="2.02539">
        <ele>1944.81</ele>
        <time>2021-10-20T22:00:30Z</time>
      </trkpt>
      <trkpt lat="42.51681" lon="2.02578">
        <ele>1942.95</ele>
        <time>2021-10-20T22:00:30Z</time>
      </trkpt>
      <trkpt lat="42.51661" lon="2.02605">
        <ele>1941.32</ele>
        <time>2021-10-20T22:00:30Z</time>
      </trkpt>
      <trkpt lat="42.51651" lon="2.02616">
        <ele>1940.61</ele>
        <time>2021-10-20T22:00:30Z</time>
      </trkpt>
      <trkpt lat="42.51638" lon="2.02642">
        <ele>1939.84</ele>
        <time>2021-10-20T22:00:30Z</time>
      </trkpt>
      <trkpt lat="42.51621" lon="2.0267">
        <ele>1937.61</ele>
        <time>2021-10-20T22:00:30Z</time>
      </trkpt>
      <trkpt lat="42.51615" lon="2.0268">
        <ele>1936.78</ele>
        <time>2021-10-20T22:00:30Z</time>
      </trkpt>
      <trkpt lat="42.51602" lon="2.02706">
        <ele>1934.88</ele>
        <time>2021-10-20T22:00:30Z</time>
      </trkpt>
      <trkpt lat="42.51601" lon="2.02725">
        <ele>1934.76</ele>
        <time>2021-10-20T22:00:30Z</time>
      </trkpt>
      <trkpt lat="42.51603" lon="2.0274">
        <ele>1935.07</ele>
        <time>2021-10-20T22:00:30Z</time>
      </trkpt>
      <trkpt lat="42.51606" lon="2.02755">
        <ele>1935.5</ele>
        <time>2021-10-20T22:00:30Z</time>
      </trkpt>
      <trkpt lat="42.51612" lon="2.0277">
        <ele>1936.22</ele>
        <time>2021-10-20T22:00:30Z</time>
      </trkpt>
      <trkpt lat="42.51616" lon="2.02784">
        <ele>1936.41</ele>
        <time>2021-10-20T22:00:30Z</time>
      </trkpt>
      <trkpt lat="42.51621" lon="2.02799">
        <ele>1936.58</ele>
        <time>2021-10-20T22:00:30Z</time>
      </trkpt>
      <trkpt lat="42.5163" lon="2.02814">
        <ele>1936.99</ele>
        <time>2021-10-20T22:00:30Z</time>
      </trkpt>
      <trkpt lat="42.51638" lon="2.02827">
        <ele>1937.17</ele>
        <time>2021-10-20T22:00:30Z</time>
      </trkpt>
      <trkpt lat="42.51644" lon="2.02851">
        <ele>1935.57</ele>
        <time>2021-10-20T22:00:30Z</time>
      </trkpt>
      <trkpt lat="42.51659" lon="2.02868">
        <ele>1933.98</ele>
        <time>2021-10-20T22:00:30Z</time>
      </trkpt>
      <trkpt lat="42.51668" lon="2.02874">
        <ele>1933.42</ele>
        <time>2021-10-20T22:00:30Z</time>
      </trkpt>
      <trkpt lat="42.51681" lon="2.02876">
        <ele>1933.19</ele>
        <time>2021-10-20T22:00:30Z</time>
      </trkpt>
      <trkpt lat="42.51697" lon="2.02883">
        <ele>1932.56</ele>
        <time>2021-10-20T22:00:30Z</time>
      </trkpt>
      <trkpt lat="42.51707" lon="2.02887">
        <ele>1932.23</ele>
        <time>2021-10-20T22:00:30Z</time>
      </trkpt>
      <trkpt lat="42.51723" lon="2.02894">
        <ele>1931.86</ele>
        <time>2021-10-20T22:00:30Z</time>
      </trkpt>
      <trkpt lat="42.51731" lon="2.02906">
        <ele>1931.23</ele>
        <time>2021-10-20T22:00:30Z</time>
      </trkpt>
      <trkpt lat="42.51743" lon="2.02925">
        <ele>1930.87</ele>
        <time>2021-10-20T22:00:30Z</time>
      </trkpt>
      <trkpt lat="42.51751" lon="2.02931">
        <ele>1931</ele>
        <time>2021-10-20T22:00:30Z</time>
      </trkpt>
      <trkpt lat="42.51762" lon="2.0295">
        <ele>1931.16</ele>
        <time>2021-10-20T22:00:30Z</time>
      </trkpt>
      <trkpt lat="42.51765" lon="2.02965">
        <ele>1931.16</ele>
        <time>2021-10-20T22:00:30Z</time>
      </trkpt>
      <trkpt lat="42.51769" lon="2.02979">
        <ele>1931.43</ele>
        <time>2021-10-20T22:00:30Z</time>
      </trkpt>
      <trkpt lat="42.51775" lon="2.02998">
        <ele>1932.14</ele>
        <time>2021-10-20T22:00:30Z</time>
      </trkpt>
      <trkpt lat="42.51782" lon="2.03012">
        <ele>1932.83</ele>
        <time>2021-10-20T22:00:30Z</time>
      </trkpt>
      <trkpt lat="42.51795" lon="2.03032">
        <ele>1933.88</ele>
        <time>2021-10-20T22:00:30Z</time>
      </trkpt>
      <trkpt lat="42.5181" lon="2.03052">
        <ele>1935.04</ele>
        <time>2021-10-20T22:00:30Z</time>
      </trkpt>
      <trkpt lat="42.51822" lon="2.03057">
        <ele>1935.82</ele>
        <time>2021-10-20T22:00:30Z</time>
      </trkpt>
      <trkpt lat="42.51843" lon="2.03065">
        <ele>1937.16</ele>
        <time>2021-10-20T22:00:30Z</time>
      </trkpt>
      <trkpt lat="42.51846" lon="2.03097">
        <ele>1937.8</ele>
        <time>2021-10-20T22:00:30Z</time>
      </trkpt>
      <trkpt lat="42.51846" lon="2.03117">
        <ele>1937.77</ele>
        <time>2021-10-20T22:00:30Z</time>
      </trkpt>
      <trkpt lat="42.51845" lon="2.0313">
        <ele>1937.33</ele>
        <time>2021-10-20T22:00:30Z</time>
      </trkpt>
      <trkpt lat="42.51843" lon="2.03146">
        <ele>1936.73</ele>
        <time>2021-10-20T22:00:30Z</time>
      </trkpt>
      <trkpt lat="42.51838" lon="2.03169">
        <ele>1935.69</ele>
        <time>2021-10-20T22:00:30Z</time>
      </trkpt>
      <trkpt lat="42.51836" lon="2.03184">
        <ele>1934.82</ele>
        <time>2021-10-20T22:00:30Z</time>
      </trkpt>
      <trkpt lat="42.51832" lon="2.03199">
        <ele>1933.33</ele>
        <time>2021-10-20T22:00:30Z</time>
      </trkpt>
      <trkpt lat="42.51824" lon="2.03218">
        <ele>1931.12</ele>
        <time>2021-10-20T22:00:30Z</time>
      </trkpt>
      <trkpt lat="42.51815" lon="2.03235">
        <ele>1928.85</ele>
        <time>2021-10-20T22:00:30Z</time>
      </trkpt>
      <trkpt lat="42.51807" lon="2.03245">
        <ele>1927.18</ele>
        <time>2021-10-20T22:00:30Z</time>
      </trkpt>
      <trkpt lat="42.51796" lon="2.03257">
        <ele>1925.95</ele>
        <time>2021-10-20T22:00:30Z</time>
      </trkpt>
      <trkpt lat="42.51785" lon="2.03274">
        <ele>1924.83</ele>
        <time>2021-10-20T22:00:30Z</time>
      </trkpt>
      <trkpt lat="42.51777" lon="2.03285">
        <ele>1923.89</ele>
        <time>2021-10-20T22:00:30Z</time>
      </trkpt>
      <trkpt lat="42.51759" lon="2.03301">
        <ele>1920.8</ele>
        <time>2021-10-20T22:00:30Z</time>
      </trkpt>
      <trkpt lat="42.51755" lon="2.03312">
        <ele>1920.06</ele>
        <time>2021-10-20T22:00:30Z</time>
      </trkpt>
      <trkpt lat="42.51744" lon="2.03331">
        <ele>1918.12</ele>
        <time>2021-10-20T22:00:30Z</time>
      </trkpt>
      <trkpt lat="42.51737" lon="2.03339">
        <ele>1916.83</ele>
        <time>2021-10-20T22:00:30Z</time>
      </trkpt>
      <trkpt lat="42.51725" lon="2.03344">
        <ele>1914.58</ele>
        <time>2021-10-20T22:00:30Z</time>
      </trkpt>
      <trkpt lat="42.51713" lon="2.03354">
        <ele>1912.21</ele>
        <time>2021-10-20T22:00:30Z</time>
      </trkpt>
      <trkpt lat="42.51695" lon="2.03386">
        <ele>1908.21</ele>
        <time>2021-10-20T22:00:30Z</time>
      </trkpt>
      <trkpt lat="42.51689" lon="2.03402">
        <ele>1907.62</ele>
        <time>2021-10-20T22:00:30Z</time>
      </trkpt>
      <trkpt lat="42.51693" lon="2.0339">
        <ele>1907.97</ele>
        <time>2021-10-20T22:00:30Z</time>
      </trkpt>
      <trkpt lat="42.51687" lon="2.03407">
        <ele>1907.4</ele>
        <time>2021-10-20T22:00:30Z</time>
      </trkpt>
      <trkpt lat="42.51684" lon="2.03419">
        <ele>1907.23</ele>
        <time>2021-10-20T22:00:30Z</time>
      </trkpt>
      <trkpt lat="42.51682" lon="2.03441">
        <ele>1907.65</ele>
        <time>2021-10-20T22:00:30Z</time>
      </trkpt>
      <trkpt lat="42.5168" lon="2.03455">
        <ele>1907.77</ele>
        <time>2021-10-20T22:00:30Z</time>
      </trkpt>
      <trkpt lat="42.51669" lon="2.03472">
        <ele>1906.21</ele>
        <time>2021-10-20T22:00:30Z</time>
      </trkpt>
      <trkpt lat="42.51648" lon="2.03494">
        <ele>1902.53</ele>
        <time>2021-10-20T22:00:30Z</time>
      </trkpt>
      <trkpt lat="42.5164" lon="2.03509">
        <ele>1901.36</ele>
        <time>2021-10-20T22:00:30Z</time>
      </trkpt>
      <trkpt lat="42.51627" lon="2.03527">
        <ele>1898.8</ele>
        <time>2021-10-20T22:00:30Z</time>
      </trkpt>
      <trkpt lat="42.51618" lon="2.03544">
        <ele>1897.34</ele>
        <time>2021-10-20T22:00:30Z</time>
      </trkpt>
      <trkpt lat="42.51609" lon="2.03558">
        <ele>1895.66</ele>
        <time>2021-10-20T22:00:30Z</time>
      </trkpt>
      <trkpt lat="42.51601" lon="2.03579">
        <ele>1894.55</ele>
        <time>2021-10-20T22:00:30Z</time>
      </trkpt>
      <trkpt lat="42.51598" lon="2.03591">
        <ele>1894.29</ele>
        <time>2021-10-20T22:00:30Z</time>
      </trkpt>
      <trkpt lat="42.51592" lon="2.03602">
        <ele>1892.58</ele>
        <time>2021-10-20T22:00:30Z</time>
      </trkpt>
      <trkpt lat="42.51586" lon="2.03614">
        <ele>1890.9</ele>
        <time>2021-10-20T22:00:30Z</time>
      </trkpt>
      <trkpt lat="42.51581" lon="2.03624">
        <ele>1889.52</ele>
        <time>2021-10-20T22:00:30Z</time>
      </trkpt>
      <trkpt lat="42.51576" lon="2.03634">
        <ele>1888.16</ele>
        <time>2021-10-20T22:00:30Z</time>
      </trkpt>
      <trkpt lat="42.51575" lon="2.03622">
        <ele>1887.9</ele>
        <time>2021-10-20T22:00:30Z</time>
      </trkpt>
      <trkpt lat="42.51573" lon="2.03599">
        <ele>1887.37</ele>
        <time>2021-10-20T22:00:30Z</time>
      </trkpt>
      <trkpt lat="42.51565" lon="2.03589">
        <ele>1885</ele>
        <time>2021-10-20T22:00:30Z</time>
      </trkpt>
      <trkpt lat="42.51553" lon="2.03604">
        <ele>1881.57</ele>
        <time>2021-10-20T22:00:30Z</time>
      </trkpt>
      <trkpt lat="42.51548" lon="2.0362">
        <ele>1880.11</ele>
        <time>2021-10-20T22:00:30Z</time>
      </trkpt>
      <trkpt lat="42.5154" lon="2.03643">
        <ele>1877.78</ele>
        <time>2021-10-20T22:00:30Z</time>
      </trkpt>
      <trkpt lat="42.51533" lon="2.03661">
        <ele>1875.74</ele>
        <time>2021-10-20T22:00:30Z</time>
      </trkpt>
      <trkpt lat="42.51527" lon="2.03675">
        <ele>1874.06</ele>
        <time>2021-10-20T22:00:30Z</time>
      </trkpt>
      <trkpt lat="42.51521" lon="2.03707">
        <ele>1872.58</ele>
        <time>2021-10-20T22:00:30Z</time>
      </trkpt>
      <trkpt lat="42.51522" lon="2.03726">
        <ele>1872.97</ele>
        <time>2021-10-20T22:00:30Z</time>
      </trkpt>
      <trkpt lat="42.51522" lon="2.03741">
        <ele>1872.93</ele>
        <time>2021-10-20T22:00:30Z</time>
      </trkpt>
      <trkpt lat="42.5152" lon="2.03754">
        <ele>1872.36</ele>
        <time>2021-10-20T22:00:30Z</time>
      </trkpt>
      <trkpt lat="42.51512" lon="2.03764">
        <ele>1870.29</ele>
        <time>2021-10-20T22:00:30Z</time>
      </trkpt>
      <trkpt lat="42.515" lon="2.0375">
        <ele>1867.51</ele>
        <time>2021-10-20T22:00:30Z</time>
      </trkpt>
      <trkpt lat="42.51491" lon="2.03748">
        <ele>1866.01</ele>
        <time>2021-10-20T22:00:30Z</time>
      </trkpt>
      <trkpt lat="42.51486" lon="2.0376">
        <ele>1865.26</ele>
        <time>2021-10-20T22:00:30Z</time>
      </trkpt>
      <trkpt lat="42.5148" lon="2.03771">
        <ele>1864.4</ele>
        <time>2021-10-20T22:00:30Z</time>
      </trkpt>
      <trkpt lat="42.51471" lon="2.03784">
        <ele>1863.17</ele>
        <time>2021-10-20T22:00:30Z</time>
      </trkpt>
      <trkpt lat="42.51463" lon="2.03794">
        <ele>1862.14</ele>
        <time>2021-10-20T22:00:30Z</time>
      </trkpt>
      <trkpt lat="42.51449" lon="2.03806">
        <ele>1860.11</ele>
        <time>2021-10-20T22:00:30Z</time>
      </trkpt>
      <trkpt lat="42.5144" lon="2.03819">
        <ele>1858.8</ele>
        <time>2021-10-20T22:00:30Z</time>
      </trkpt>
      <trkpt lat="42.5143" lon="2.03826">
        <ele>1857.59</ele>
        <time>2021-10-20T22:00:30Z</time>
      </trkpt>
      <trkpt lat="42.51417" lon="2.0383">
        <ele>1856.36</ele>
        <time>2021-10-20T22:00:30Z</time>
      </trkpt>
      <trkpt lat="42.51396" lon="2.03838">
        <ele>1854.43</ele>
        <time>2021-10-20T22:00:30Z</time>
      </trkpt>
      <trkpt lat="42.51372" lon="2.03847">
        <ele>1852.32</ele>
        <time>2021-10-20T22:00:30Z</time>
      </trkpt>
      <trkpt lat="42.51365" lon="2.03856">
        <ele>1851.8</ele>
        <time>2021-10-20T22:00:30Z</time>
      </trkpt>
      <trkpt lat="42.51357" lon="2.03863">
        <ele>1851.09</ele>
        <time>2021-10-20T22:00:30Z</time>
      </trkpt>
      <trkpt lat="42.51341" lon="2.03884">
        <ele>1849.49</ele>
        <time>2021-10-20T22:00:30Z</time>
      </trkpt>
      <trkpt lat="42.51332" lon="2.03894">
        <ele>1848.57</ele>
        <time>2021-10-20T22:00:30Z</time>
      </trkpt>
      <trkpt lat="42.5132" lon="2.03903">
        <ele>1847.34</ele>
        <time>2021-10-20T22:00:30Z</time>
      </trkpt>
      <trkpt lat="42.51308" lon="2.03914">
        <ele>1846.12</ele>
        <time>2021-10-20T22:00:30Z</time>
      </trkpt>
      <trkpt lat="42.51298" lon="2.03923">
        <ele>1845.1</ele>
        <time>2021-10-20T22:00:30Z</time>
      </trkpt>
      <trkpt lat="42.51289" lon="2.03936">
        <ele>1844.6</ele>
        <time>2021-10-20T22:00:30Z</time>
      </trkpt>
      <trkpt lat="42.51279" lon="2.03957">
        <ele>1844.54</ele>
        <time>2021-10-20T22:00:30Z</time>
      </trkpt>
      <trkpt lat="42.51275" lon="2.0397">
        <ele>1844.61</ele>
        <time>2021-10-20T22:00:30Z</time>
      </trkpt>
      <trkpt lat="42.51273" lon="2.03983">
        <ele>1844.79</ele>
        <time>2021-10-20T22:00:30Z</time>
      </trkpt>
      <trkpt lat="42.51273" lon="2.03999">
        <ele>1845.17</ele>
        <time>2021-10-20T22:00:30Z</time>
      </trkpt>
      <trkpt lat="42.51273" lon="2.04013">
        <ele>1845.11</ele>
        <time>2021-10-20T22:00:30Z</time>
      </trkpt>
      <trkpt lat="42.51269" lon="2.04027">
        <ele>1844.68</ele>
        <time>2021-10-20T22:00:30Z</time>
      </trkpt>
      <trkpt lat="42.51251" lon="2.04033">
        <ele>1843.65</ele>
        <time>2021-10-20T22:00:30Z</time>
      </trkpt>
      <trkpt lat="42.51236" lon="2.04037">
        <ele>1842.89</ele>
        <time>2021-10-20T22:00:30Z</time>
      </trkpt>
      <trkpt lat="42.51224" lon="2.04039">
        <ele>1842.66</ele>
        <time>2021-10-20T22:00:30Z</time>
      </trkpt>
      <trkpt lat="42.51211" lon="2.04041">
        <ele>1843.07</ele>
        <time>2021-10-20T22:00:30Z</time>
      </trkpt>
      <trkpt lat="42.51199" lon="2.04043">
        <ele>1843.45</ele>
        <time>2021-10-20T22:00:30Z</time>
      </trkpt>
      <trkpt lat="42.51187" lon="2.04046">
        <ele>1843.84</ele>
        <time>2021-10-20T22:00:30Z</time>
      </trkpt>
      <trkpt lat="42.51167" lon="2.04044">
        <ele>1844.39</ele>
        <time>2021-10-20T22:00:30Z</time>
      </trkpt>
      <trkpt lat="42.51157" lon="2.04054">
        <ele>1845.13</ele>
        <time>2021-10-20T22:00:30Z</time>
      </trkpt>
      <trkpt lat="42.51151" lon="2.04068">
        <ele>1846.21</ele>
        <time>2021-10-20T22:00:30Z</time>
      </trkpt>
      <trkpt lat="42.51139" lon="2.04081">
        <ele>1848.21</ele>
        <time>2021-10-20T22:00:30Z</time>
      </trkpt>
      <trkpt lat="42.51133" lon="2.04101">
        <ele>1849.42</ele>
        <time>2021-10-20T22:00:30Z</time>
      </trkpt>
      <trkpt lat="42.51128" lon="2.04114">
        <ele>1850.29</ele>
        <time>2021-10-20T22:00:30Z</time>
      </trkpt>
      <trkpt lat="42.5112" lon="2.04133">
        <ele>1851.54</ele>
        <time>2021-10-20T22:00:30Z</time>
      </trkpt>
      <trkpt lat="42.51114" lon="2.0415">
        <ele>1852.72</ele>
        <time>2021-10-20T22:00:30Z</time>
      </trkpt>
      <trkpt lat="42.51106" lon="2.04166">
        <ele>1854.32</ele>
        <time>2021-10-20T22:00:30Z</time>
      </trkpt>
      <trkpt lat="42.51102" lon="2.04177">
        <ele>1855.26</ele>
        <time>2021-10-20T22:00:30Z</time>
      </trkpt>
      <trkpt lat="42.51098" lon="2.04196">
        <ele>1856.56</ele>
        <time>2021-10-20T22:00:30Z</time>
      </trkpt>
      <trkpt lat="42.51095" lon="2.04214">
        <ele>1857.64</ele>
        <time>2021-10-20T22:00:30Z</time>
      </trkpt>
      <trkpt lat="42.51081" lon="2.04229">
        <ele>1857.97</ele>
        <time>2021-10-20T22:00:30Z</time>
      </trkpt>
      <trkpt lat="42.51071" lon="2.0425">
        <ele>1857.87</ele>
        <time>2021-10-20T22:00:30Z</time>
      </trkpt>
      <trkpt lat="42.5107" lon="2.04271">
        <ele>1858.32</ele>
        <time>2021-10-20T22:00:30Z</time>
      </trkpt>
      <trkpt lat="42.51052" lon="2.04295">
        <ele>1856.49</ele>
        <time>2021-10-20T22:00:30Z</time>
      </trkpt>
      <trkpt lat="42.5104" lon="2.04298">
        <ele>1855.45</ele>
        <time>2021-10-20T22:00:30Z</time>
      </trkpt>
      <trkpt lat="42.51005" lon="2.04296">
        <ele>1851.65</ele>
        <time>2021-10-20T22:00:30Z</time>
      </trkpt>
      <trkpt lat="42.50992" lon="2.04302">
        <ele>1849.49</ele>
        <time>2021-10-20T22:00:30Z</time>
      </trkpt>
      <trkpt lat="42.50982" lon="2.04304">
        <ele>1847.95</ele>
        <time>2021-10-20T22:00:30Z</time>
      </trkpt>
      <trkpt lat="42.50971" lon="2.04302">
        <ele>1846.43</ele>
        <time>2021-10-20T22:00:30Z</time>
      </trkpt>
      <trkpt lat="42.50959" lon="2.04301">
        <ele>1844.73</ele>
        <time>2021-10-20T22:00:30Z</time>
      </trkpt>
      <trkpt lat="42.50933" lon="2.04297">
        <ele>1840.69</ele>
        <time>2021-10-20T22:00:30Z</time>
      </trkpt>
      <trkpt lat="42.50918" lon="2.04294">
        <ele>1838.28</ele>
        <time>2021-10-20T22:00:30Z</time>
      </trkpt>
      <trkpt lat="42.50903" lon="2.04294">
        <ele>1835.77</ele>
        <time>2021-10-20T22:00:30Z</time>
      </trkpt>
      <trkpt lat="42.50886" lon="2.04293">
        <ele>1832.93</ele>
        <time>2021-10-20T22:00:30Z</time>
      </trkpt>
      <trkpt lat="42.50871" lon="2.04295">
        <ele>1830.34</ele>
        <time>2021-10-20T22:00:30Z</time>
      </trkpt>
      <trkpt lat="42.50854" lon="2.04295">
        <ele>1827.44</ele>
        <time>2021-10-20T22:00:30Z</time>
      </trkpt>
      <trkpt lat="42.50839" lon="2.04295">
        <ele>1824.87</ele>
        <time>2021-10-20T22:00:30Z</time>
      </trkpt>
      <trkpt lat="42.50822" lon="2.04294">
        <ele>1821.97</ele>
        <time>2021-10-20T22:00:30Z</time>
      </trkpt>
      <trkpt lat="42.50809" lon="2.04294">
        <ele>1819.74</ele>
        <time>2021-10-20T22:00:30Z</time>
      </trkpt>
      <trkpt lat="42.50799" lon="2.04294">
        <ele>1818.03</ele>
        <time>2021-10-20T22:00:30Z</time>
      </trkpt>
      <trkpt lat="42.50784" lon="2.04294">
        <ele>1815.47</ele>
        <time>2021-10-20T22:00:30Z</time>
      </trkpt>
      <trkpt lat="42.50773" lon="2.04281">
        <ele>1813.95</ele>
        <time>2021-10-20T22:00:30Z</time>
      </trkpt>
      <trkpt lat="42.50767" lon="2.04267">
        <ele>1812.97</ele>
        <time>2021-10-20T22:00:30Z</time>
      </trkpt>
      <trkpt lat="42.50762" lon="2.04256">
        <ele>1812.1</ele>
        <time>2021-10-20T22:00:30Z</time>
      </trkpt>
      <trkpt lat="42.50753" lon="2.04242">
        <ele>1810.73</ele>
        <time>2021-10-20T22:00:30Z</time>
      </trkpt>
      <trkpt lat="42.50744" lon="2.04232">
        <ele>1809.45</ele>
        <time>2021-10-20T22:00:30Z</time>
      </trkpt>
      <trkpt lat="42.50736" lon="2.04223">
        <ele>1808.26</ele>
        <time>2021-10-20T22:00:30Z</time>
      </trkpt>
      <trkpt lat="42.50725" lon="2.04216">
        <ele>1806.66</ele>
        <time>2021-10-20T22:00:30Z</time>
      </trkpt>
      <trkpt lat="42.50682" lon="2.04212">
        <ele>1800.38</ele>
        <time>2021-10-20T22:00:30Z</time>
      </trkpt>
      <trkpt lat="42.50666" lon="2.0421">
        <ele>1796.76</ele>
        <time>2021-10-20T22:00:30Z</time>
      </trkpt>
      <trkpt lat="42.50658" lon="2.04205">
        <ele>1794.63</ele>
        <time>2021-10-20T22:00:30Z</time>
      </trkpt>
      <trkpt lat="42.50639" lon="2.04159">
        <ele>1788.05</ele>
        <time>2021-10-20T22:00:30Z</time>
      </trkpt>
      <trkpt lat="42.50636" lon="2.04145">
        <ele>1786.81</ele>
        <time>2021-10-20T22:00:30Z</time>
      </trkpt>
      <trkpt lat="42.50631" lon="2.04133">
        <ele>1785.17</ele>
        <time>2021-10-20T22:00:30Z</time>
      </trkpt>
      <trkpt lat="42.50625" lon="2.04113">
        <ele>1783.01</ele>
        <time>2021-10-20T22:00:30Z</time>
      </trkpt>
      <trkpt lat="42.50618" lon="2.04099">
        <ele>1781.15</ele>
        <time>2021-10-20T22:00:30Z</time>
      </trkpt>
      <trkpt lat="42.50594" lon="2.04055">
        <ele>1776.38</ele>
        <time>2021-10-20T22:00:30Z</time>
      </trkpt>
      <trkpt lat="42.50587" lon="2.04042">
        <ele>1775.34</ele>
        <time>2021-10-20T22:00:30Z</time>
      </trkpt>
      <trkpt lat="42.50578" lon="2.04027">
        <ele>1773.99</ele>
        <time>2021-10-20T22:00:30Z</time>
      </trkpt>
      <trkpt lat="42.5052" lon="2.04048">
        <ele>1762.91</ele>
        <time>2021-10-20T22:00:30Z</time>
      </trkpt>
      <trkpt lat="42.50505" lon="2.04094">
        <ele>1759.01</ele>
        <time>2021-10-20T22:00:30Z</time>
      </trkpt>
      <trkpt lat="42.50507" lon="2.04128">
        <ele>1758.68</ele>
        <time>2021-10-20T22:00:30Z</time>
      </trkpt>
      <trkpt lat="42.50509" lon="2.04145">
        <ele>1758.82</ele>
        <time>2021-10-20T22:00:30Z</time>
      </trkpt>
      <trkpt lat="42.50514" lon="2.04179">
        <ele>1759.72</ele>
        <time>2021-10-20T22:00:30Z</time>
      </trkpt>
      <trkpt lat="42.50516" lon="2.04192">
        <ele>1760.1</ele>
        <time>2021-10-20T22:00:30Z</time>
      </trkpt>
    </trkseg>
  </trk>
</gpx>